<?xml version="1.0" encoding="UTF-8" standalone="no" ?>
<gpx xmlns="http://www.topografix.com/GPX/1/1" xmlns:xsi="http://www.w3.org/2001/XMLSchema-instance" xsi:schemaLocation="http://www.topografix.com/GPX/1/1 http://www.topografix.com/GPX/1/1/gpx.xsd" version="1.1" creator="VisuGPX - https://www.visugpx.com">
  <metadata>
    <name>B-GTB : Menez Bré - Trébeurden</name>
  </metadata>
  <trk>
    <name><![CDATA[B-GTB : Menez Bré - Trébeurden]]></name>
    <trkseg>
      <trkpt lat="48.57637" lon="-3.30794">
        <ele>289.692001</ele>
        <time>2020-09-06T19:00:56.086Z</time>
      </trkpt>
      <trkpt lat="48.57652" lon="-3.30769">
        <ele>289.692001</ele>
        <time>2020-09-06T19:01:02.134Z</time>
      </trkpt>
      <trkpt lat="48.57658" lon="-3.30753">
        <ele>289.692001</ele>
        <time>2020-09-06T19:01:05.367Z</time>
      </trkpt>
      <trkpt lat="48.57666" lon="-3.30752">
        <ele>289.692001</ele>
        <time>2020-09-06T19:01:06.554Z</time>
      </trkpt>
      <trkpt lat="48.5767" lon="-3.30733">
        <ele>289.692001</ele>
        <time>2020-09-06T19:01:10.064Z</time>
      </trkpt>
      <trkpt lat="48.57677" lon="-3.30704">
        <ele>289.692001</ele>
        <time>2020-09-06T19:01:15.275Z</time>
      </trkpt>
      <trkpt lat="48.57694" lon="-3.30665">
        <ele>288.675091</ele>
        <time>2020-09-06T19:01:23.139Z</time>
      </trkpt>
      <trkpt lat="48.57705" lon="-3.30621">
        <ele>286.766555</ele>
        <time>2020-09-06T19:01:30.809Z</time>
      </trkpt>
      <trkpt lat="48.57708" lon="-3.30608">
        <ele>286.202594</ele>
        <time>2020-09-06T19:01:32.881Z</time>
      </trkpt>
      <trkpt lat="48.57727" lon="-3.30561">
        <ele>283.95813</ele>
        <time>2020-09-06T19:01:41.520Z</time>
      </trkpt>
      <trkpt lat="48.57778" lon="-3.30486">
        <ele>279.598415</ele>
        <time>2020-09-06T19:01:57.614Z</time>
      </trkpt>
      <trkpt lat="48.57887" lon="-3.30271">
        <ele>264.7376</ele>
        <time>2020-09-06T19:02:37.097Z</time>
      </trkpt>
      <trkpt lat="48.57906" lon="-3.30251">
        <ele>262.881798</ele>
        <time>2020-09-06T19:02:42.326Z</time>
      </trkpt>
      <trkpt lat="48.57908" lon="-3.30249">
        <ele>262.682559</ele>
        <time>2020-09-06T19:02:42.856Z</time>
      </trkpt>
      <trkpt lat="48.57934" lon="-3.30225">
        <ele>260.452933</ele>
        <time>2020-09-06T19:02:49.869Z</time>
      </trkpt>
      <trkpt lat="48.58009" lon="-3.30145">
        <ele>253.714418</ele>
        <time>2020-09-06T19:03:10.489Z</time>
      </trkpt>
      <trkpt lat="48.58175" lon="-3.30046">
        <ele>240.609271</ele>
        <time>2020-09-06T19:03:51.694Z</time>
      </trkpt>
      <trkpt lat="48.58205" lon="-3.30022">
        <ele>238.072004</ele>
        <time>2020-09-06T19:03:59.359Z</time>
      </trkpt>
      <trkpt lat="48.58244" lon="-3.29975">
        <ele>232.450131</ele>
        <time>2020-09-06T19:04:10.143Z</time>
      </trkpt>
      <trkpt lat="48.58251" lon="-3.29964">
        <ele>231.094699</ele>
        <time>2020-09-06T19:04:12.209Z</time>
      </trkpt>
      <trkpt lat="48.5827" lon="-3.29936">
        <ele>227.68142</ele>
        <time>2020-09-06T19:04:17.928Z</time>
      </trkpt>
      <trkpt lat="48.58327" lon="-3.29864">
        <ele>217.976869</ele>
        <time>2020-09-06T19:04:33.082Z</time>
      </trkpt>
      <trkpt lat="48.58332" lon="-3.29859">
        <ele>217.231846</ele>
        <time>2020-09-06T19:04:34.193Z</time>
      </trkpt>
      <trkpt lat="48.58366" lon="-3.29811">
        <ele>210.825954</ele>
        <time>2020-09-06T19:04:43.500Z</time>
      </trkpt>
      <trkpt lat="48.58378" lon="-3.29793">
        <ele>208.295762</ele>
        <time>2020-09-06T19:04:46.911Z</time>
      </trkpt>
      <trkpt lat="48.58396" lon="-3.29779">
        <ele>205.18646</ele>
        <time>2020-09-06T19:04:51.040Z</time>
      </trkpt>
      <trkpt lat="48.58404" lon="-3.29772">
        <ele>203.820557</ele>
        <time>2020-09-06T19:04:52.869Z</time>
      </trkpt>
      <trkpt lat="48.58452" lon="-3.29706">
        <ele>193.999651</ele>
        <time>2020-09-06T19:05:06.004Z</time>
      </trkpt>
      <trkpt lat="48.58461" lon="-3.29691">
        <ele>192.017697</ele>
        <time>2020-09-06T19:05:08.685Z</time>
      </trkpt>
      <trkpt lat="48.58468" lon="-3.29678">
        <ele>190.24806</ele>
        <time>2020-09-06T19:05:11.033Z</time>
      </trkpt>
      <trkpt lat="48.58482" lon="-3.29667">
        <ele>187.903123</ele>
        <time>2020-09-06T19:05:14.235Z</time>
      </trkpt>
      <trkpt lat="48.58515" lon="-3.2968">
        <ele>183.776789</ele>
        <time>2020-09-06T19:05:21.215Z</time>
      </trkpt>
      <trkpt lat="48.58537" lon="-3.29672">
        <ele>181.357053</ele>
        <time>2020-09-06T19:05:25.836Z</time>
      </trkpt>
      <trkpt lat="48.58595" lon="-3.2964">
        <ele>174.699494</ele>
        <time>2020-09-06T19:05:38.936Z</time>
      </trkpt>
      <trkpt lat="48.58614" lon="-3.29604">
        <ele>171.415738</ele>
        <time>2020-09-06T19:05:45.453Z</time>
      </trkpt>
      <trkpt lat="48.5864" lon="-3.29537">
        <ele>166.363037</ele>
        <time>2020-09-06T19:05:56.872Z</time>
      </trkpt>
      <trkpt lat="48.5866" lon="-3.29457">
        <ele>163.076368</ele>
        <time>2020-09-06T19:06:09.740Z</time>
      </trkpt>
      <trkpt lat="48.58694" lon="-3.29401">
        <ele>160.101769</ele>
        <time>2020-09-06T19:06:21.753Z</time>
      </trkpt>
      <trkpt lat="48.58701" lon="-3.29375">
        <ele>159.014141</ele>
        <time>2020-09-06T19:06:26.185Z</time>
      </trkpt>
      <trkpt lat="48.58684" lon="-3.29265">
        <ele>155.595228</ele>
        <time>2020-09-06T19:06:44.766Z</time>
      </trkpt>
      <trkpt lat="48.58681" lon="-3.29219">
        <ele>154.776656</ele>
        <time>2020-09-06T19:06:52.713Z</time>
      </trkpt>
      <trkpt lat="48.58685" lon="-3.29202">
        <ele>154.456853</ele>
        <time>2020-09-06T19:06:55.917Z</time>
      </trkpt>
      <trkpt lat="48.58691" lon="-3.2918">
        <ele>154.031896</ele>
        <time>2020-09-06T19:07:00.098Z</time>
      </trkpt>
      <trkpt lat="48.58702" lon="-3.29179">
        <ele>153.741665</ele>
        <time>2020-09-06T19:07:01.819Z</time>
      </trkpt>
      <trkpt lat="48.58781" lon="-3.2917">
        <ele>151.622565</ele>
        <time>2020-09-06T19:07:14.842Z</time>
      </trkpt>
      <trkpt lat="48.58814" lon="-3.29166">
        <ele>151.177545</ele>
        <time>2020-09-06T19:07:20.497Z</time>
      </trkpt>
      <trkpt lat="48.58818" lon="-3.29162">
        <ele>151.111804</ele>
        <time>2020-09-06T19:07:21.430Z</time>
      </trkpt>
      <trkpt lat="48.58834" lon="-3.29139">
        <ele>150.84775</ele>
        <time>2020-09-06T19:07:25.058Z</time>
      </trkpt>
      <trkpt lat="48.58844" lon="-3.29105">
        <ele>150.54355</ele>
        <time>2020-09-06T19:07:29.511Z</time>
      </trkpt>
      <trkpt lat="48.58846" lon="-3.29094">
        <ele>150.451577</ele>
        <time>2020-09-06T19:07:30.833Z</time>
      </trkpt>
      <trkpt lat="48.58847" lon="-3.29028">
        <ele>149.908048</ele>
        <time>2020-09-06T19:07:38.804Z</time>
      </trkpt>
      <trkpt lat="48.58848" lon="-3.28907">
        <ele>149.02642</ele>
        <time>2020-09-06T19:07:53.170Z</time>
      </trkpt>
      <trkpt lat="48.58852" lon="-3.28878">
        <ele>148.838401</ele>
        <time>2020-09-06T19:07:56.821Z</time>
      </trkpt>
      <trkpt lat="48.58854" lon="-3.28853">
        <ele>148.684129</ele>
        <time>2020-09-06T19:07:59.803Z</time>
      </trkpt>
      <trkpt lat="48.58858" lon="-3.28805">
        <ele>148.38278</ele>
        <time>2020-09-06T19:08:05.692Z</time>
      </trkpt>
      <trkpt lat="48.58862" lon="-3.28765">
        <ele>148.127253</ele>
        <time>2020-09-06T19:08:10.678Z</time>
      </trkpt>
      <trkpt lat="48.58885" lon="-3.28742">
        <ele>147.870241</ele>
        <time>2020-09-06T19:08:15.674Z</time>
      </trkpt>
      <trkpt lat="48.58913" lon="-3.28704">
        <ele>147.349263</ele>
        <time>2020-09-06T19:08:22.538Z</time>
      </trkpt>
      <trkpt lat="48.58921" lon="-3.28693">
        <ele>147.129044</ele>
        <time>2020-09-06T19:08:24.442Z</time>
      </trkpt>
      <trkpt lat="48.58923" lon="-3.28689">
        <ele>147.0602</ele>
        <time>2020-09-06T19:08:24.962Z</time>
      </trkpt>
      <trkpt lat="48.58936" lon="-3.28655">
        <ele>146.52561</ele>
        <time>2020-09-06T19:08:29.246Z</time>
      </trkpt>
      <trkpt lat="48.58935" lon="-3.28627">
        <ele>146.139718</ele>
        <time>2020-09-06T19:08:32.281Z</time>
      </trkpt>
      <trkpt lat="48.58905" lon="-3.28544">
        <ele>144.851344</ele>
        <time>2020-09-06T19:08:42.533Z</time>
      </trkpt>
      <trkpt lat="48.58895" lon="-3.28498">
        <ele>144.199161</ele>
        <time>2020-09-06T19:08:47.619Z</time>
      </trkpt>
      <trkpt lat="48.58893" lon="-3.28489">
        <ele>144.061708</ele>
        <time>2020-09-06T19:08:48.625Z</time>
      </trkpt>
      <trkpt lat="48.58888" lon="-3.2847">
        <ele>143.737189</ele>
        <time>2020-09-06T19:08:50.645Z</time>
      </trkpt>
      <trkpt lat="48.58884" lon="-3.28317">
        <ele>141.024717</ele>
        <time>2020-09-06T19:09:06.167Z</time>
      </trkpt>
      <trkpt lat="48.58873" lon="-3.28216">
        <ele>139.208605</ele>
        <time>2020-09-06T19:09:16.911Z</time>
      </trkpt>
      <trkpt lat="48.58875" lon="-3.28182">
        <ele>139.009728</ele>
        <time>2020-09-06T19:09:20.978Z</time>
      </trkpt>
      <trkpt lat="48.58879" lon="-3.28115">
        <ele>138.777658</ele>
        <time>2020-09-06T19:09:28.818Z</time>
      </trkpt>
      <trkpt lat="48.58879" lon="-3.28094">
        <ele>138.703839</ele>
        <time>2020-09-06T19:09:31.258Z</time>
      </trkpt>
      <trkpt lat="48.58893" lon="-3.28098">
        <ele>138.632098</ele>
        <time>2020-09-06T19:09:35.959Z</time>
      </trkpt>
      <trkpt lat="48.5895" lon="-3.28109">
        <ele>138.330988</ele>
        <time>2020-09-06T19:09:53.660Z</time>
      </trkpt>
      <trkpt lat="48.59017" lon="-3.28139">
        <ele>138.517562</ele>
        <time>2020-09-06T19:10:18.494Z</time>
      </trkpt>
      <trkpt lat="48.5909" lon="-3.28211">
        <ele>139.31365</ele>
        <time>2020-09-06T19:10:51.564Z</time>
      </trkpt>
      <trkpt lat="48.59125" lon="-3.28233">
        <ele>139.658947</ele>
        <time>2020-09-06T19:11:05.223Z</time>
      </trkpt>
      <trkpt lat="48.59215" lon="-3.28249">
        <ele>140.51267</ele>
        <time>2020-09-06T19:11:37.909Z</time>
      </trkpt>
      <trkpt lat="48.59315" lon="-3.28308">
        <ele>141.517301</ele>
        <time>2020-09-06T19:12:17.231Z</time>
      </trkpt>
      <trkpt lat="48.59342" lon="-3.28327">
        <ele>141.75408</ele>
        <time>2020-09-06T19:12:28.305Z</time>
      </trkpt>
      <trkpt lat="48.59346" lon="-3.28312">
        <ele>141.841511</ele>
        <time>2020-09-06T19:12:31.208Z</time>
      </trkpt>
      <trkpt lat="48.59347" lon="-3.28277">
        <ele>142.020834</ele>
        <time>2020-09-06T19:12:36.967Z</time>
      </trkpt>
      <trkpt lat="48.59338" lon="-3.28225">
        <ele>142.305694</ele>
        <time>2020-09-06T19:12:46.510Z</time>
      </trkpt>
      <trkpt lat="48.59342" lon="-3.28205">
        <ele>142.413332</ele>
        <time>2020-09-06T19:12:49.702Z</time>
      </trkpt>
      <trkpt lat="48.59461" lon="-3.28218">
        <ele>142.815413</ele>
        <time>2020-09-06T19:13:15.215Z</time>
      </trkpt>
      <trkpt lat="48.59478" lon="-3.28215">
        <ele>142.778946</ele>
        <time>2020-09-06T19:13:18.871Z</time>
      </trkpt>
      <trkpt lat="48.59489" lon="-3.28206">
        <ele>142.751638</ele>
        <time>2020-09-06T19:13:21.106Z</time>
      </trkpt>
      <trkpt lat="48.59502" lon="-3.28189">
        <ele>142.713705</ele>
        <time>2020-09-06T19:13:24.650Z</time>
      </trkpt>
      <trkpt lat="48.59506" lon="-3.28172">
        <ele>142.688507</ele>
        <time>2020-09-06T19:13:26.828Z</time>
      </trkpt>
      <trkpt lat="48.59517" lon="-3.28066">
        <ele>142.554679</ele>
        <time>2020-09-06T19:13:40.258Z</time>
      </trkpt>
      <trkpt lat="48.59529" lon="-3.28041">
        <ele>142.62006</ele>
        <time>2020-09-06T19:13:44.141Z</time>
      </trkpt>
      <trkpt lat="48.59545" lon="-3.28027">
        <ele>142.678043</ele>
        <time>2020-09-06T19:13:47.626Z</time>
      </trkpt>
      <trkpt lat="48.59602" lon="-3.28027">
        <ele>142.860139</ele>
        <time>2020-09-06T19:13:58.952Z</time>
      </trkpt>
      <trkpt lat="48.59742" lon="-3.28049">
        <ele>143.629033</ele>
        <time>2020-09-06T19:14:35.005Z</time>
      </trkpt>
      <trkpt lat="48.59822" lon="-3.28054">
        <ele>144.309163</ele>
        <time>2020-09-06T19:14:55.381Z</time>
      </trkpt>
      <trkpt lat="48.59884" lon="-3.28052">
        <ele>144.534944</ele>
        <time>2020-09-06T19:15:09.539Z</time>
      </trkpt>
      <trkpt lat="48.5988" lon="-3.28017">
        <ele>144.408816</ele>
        <time>2020-09-06T19:15:14.005Z</time>
      </trkpt>
      <trkpt lat="48.59851" lon="-3.27836">
        <ele>143.756647</ele>
        <time>2020-09-06T19:15:35.314Z</time>
      </trkpt>
      <trkpt lat="48.59802" lon="-3.27678">
        <ele>142.777169</ele>
        <time>2020-09-06T19:15:54.421Z</time>
      </trkpt>
      <trkpt lat="48.59787" lon="-3.27621">
        <ele>142.419207</ele>
        <time>2020-09-06T19:16:01.556Z</time>
      </trkpt>
      <trkpt lat="48.59899" lon="-3.2764">
        <ele>142.008912</ele>
        <time>2020-09-06T19:16:23.499Z</time>
      </trkpt>
      <trkpt lat="48.59911" lon="-3.27645">
        <ele>141.993072</ele>
        <time>2020-09-06T19:16:25.837Z</time>
      </trkpt>
      <trkpt lat="48.59926" lon="-3.27652">
        <ele>141.97171</ele>
        <time>2020-09-06T19:16:29.017Z</time>
      </trkpt>
      <trkpt lat="48.59962" lon="-3.27679">
        <ele>141.917639</ele>
        <time>2020-09-06T19:16:37.654Z</time>
      </trkpt>
      <trkpt lat="48.60041" lon="-3.27714">
        <ele>141.804246</ele>
        <time>2020-09-06T19:16:54.527Z</time>
      </trkpt>
      <trkpt lat="48.60097" lon="-3.27772">
        <ele>141.711401</ele>
        <time>2020-09-06T19:17:07.814Z</time>
      </trkpt>
      <trkpt lat="48.60183" lon="-3.27821">
        <ele>141.651457</ele>
        <time>2020-09-06T19:17:25.570Z</time>
      </trkpt>
      <trkpt lat="48.60253" lon="-3.27847">
        <ele>141.718325</ele>
        <time>2020-09-06T19:17:40.271Z</time>
      </trkpt>
      <trkpt lat="48.60319" lon="-3.27867">
        <ele>141.779778</ele>
        <time>2020-09-06T19:17:54.565Z</time>
      </trkpt>
      <trkpt lat="48.60315" lon="-3.27872">
        <ele>141.783967</ele>
        <time>2020-09-06T19:17:55.524Z</time>
      </trkpt>
      <trkpt lat="48.60357" lon="-3.27869">
        <ele>141.971542</ele>
        <time>2020-09-06T19:18:09.764Z</time>
      </trkpt>
      <trkpt lat="48.60387" lon="-3.27867">
        <ele>142.126966</ele>
        <time>2020-09-06T19:18:20.087Z</time>
      </trkpt>
      <trkpt lat="48.60434" lon="-3.27876">
        <ele>142.37789</ele>
        <time>2020-09-06T19:18:37.126Z</time>
      </trkpt>
      <trkpt lat="48.60502" lon="-3.27905">
        <ele>142.668921</ele>
        <time>2020-09-06T19:19:02.117Z</time>
      </trkpt>
      <trkpt lat="48.60507" lon="-3.27904">
        <ele>142.552663</ele>
        <time>2020-09-06T19:19:04.209Z</time>
      </trkpt>
      <trkpt lat="48.60544" lon="-3.27898">
        <ele>141.811345</ele>
        <time>2020-09-06T19:19:15.464Z</time>
      </trkpt>
      <trkpt lat="48.6058" lon="-3.27894">
        <ele>141.068315</ele>
        <time>2020-09-06T19:19:26.471Z</time>
      </trkpt>
      <trkpt lat="48.60666" lon="-3.27904">
        <ele>139.323267</ele>
        <time>2020-09-06T19:19:48.751Z</time>
      </trkpt>
      <trkpt lat="48.60674" lon="-3.27908">
        <ele>139.154632</ele>
        <time>2020-09-06T19:19:51.021Z</time>
      </trkpt>
      <trkpt lat="48.60672" lon="-3.27911">
        <ele>139.110715</ele>
        <time>2020-09-06T19:19:51.290Z</time>
      </trkpt>
      <trkpt lat="48.60648" lon="-3.28016">
        <ele>135.153727</ele>
        <time>2020-09-06T19:20:01.753Z</time>
      </trkpt>
      <trkpt lat="48.60647" lon="-3.28029">
        <ele>134.69502</ele>
        <time>2020-09-06T19:20:02.922Z</time>
      </trkpt>
      <trkpt lat="48.60649" lon="-3.28051">
        <ele>133.897502</ele>
        <time>2020-09-06T19:20:04.917Z</time>
      </trkpt>
      <trkpt lat="48.60656" lon="-3.2811">
        <ele>131.758938</ele>
        <time>2020-09-06T19:20:10.320Z</time>
      </trkpt>
      <trkpt lat="48.60656" lon="-3.28195">
        <ele>128.9505</ele>
        <time>2020-09-06T19:20:18.070Z</time>
      </trkpt>
      <trkpt lat="48.60632" lon="-3.28335">
        <ele>125.918328</ele>
        <time>2020-09-06T19:20:32.021Z</time>
      </trkpt>
      <trkpt lat="48.60637" lon="-3.28437">
        <ele>123.778194</ele>
        <time>2020-09-06T19:20:43.877Z</time>
      </trkpt>
      <trkpt lat="48.60651" lon="-3.28471">
        <ele>123.794638</ele>
        <time>2020-09-06T19:20:49.103Z</time>
      </trkpt>
      <trkpt lat="48.60725" lon="-3.28559">
        <ele>124.588696</ele>
        <time>2020-09-06T19:21:12.946Z</time>
      </trkpt>
      <trkpt lat="48.60749" lon="-3.28599">
        <ele>124.889564</ele>
        <time>2020-09-06T19:21:22.991Z</time>
      </trkpt>
      <trkpt lat="48.60768" lon="-3.28645">
        <ele>125.217013</ele>
        <time>2020-09-06T19:21:33.120Z</time>
      </trkpt>
      <trkpt lat="48.6078" lon="-3.28697">
        <ele>125.669797</ele>
        <time>2020-09-06T19:21:43.131Z</time>
      </trkpt>
      <trkpt lat="48.60787" lon="-3.28715">
        <ele>125.838825</ele>
        <time>2020-09-06T19:21:47.396Z</time>
      </trkpt>
      <trkpt lat="48.60795" lon="-3.28731">
        <ele>126.000541</ele>
        <time>2020-09-06T19:21:50.197Z</time>
      </trkpt>
      <trkpt lat="48.60845" lon="-3.28861">
        <ele>127.22369</ele>
        <time>2020-09-06T19:22:15.670Z</time>
      </trkpt>
      <trkpt lat="48.60849" lon="-3.28871">
        <ele>127.318791</ele>
        <time>2020-09-06T19:22:17.187Z</time>
      </trkpt>
      <trkpt lat="48.60889" lon="-3.29026">
        <ele>129.375668</ele>
        <time>2020-09-06T19:22:47.921Z</time>
      </trkpt>
      <trkpt lat="48.60892" lon="-3.29069">
        <ele>129.906646</ele>
        <time>2020-09-06T19:22:57.247Z</time>
      </trkpt>
      <trkpt lat="48.60886" lon="-3.29138">
        <ele>130.788699</ele>
        <time>2020-09-06T19:23:12.392Z</time>
      </trkpt>
      <trkpt lat="48.60879" lon="-3.29176">
        <ele>131.490885</ele>
        <time>2020-09-06T19:23:21.461Z</time>
      </trkpt>
      <trkpt lat="48.60872" lon="-3.29178">
        <ele>131.661472</ele>
        <time>2020-09-06T19:23:23.357Z</time>
      </trkpt>
      <trkpt lat="48.60867" lon="-3.2918">
        <ele>131.813559</ele>
        <time>2020-09-06T19:23:25.654Z</time>
      </trkpt>
      <trkpt lat="48.60786" lon="-3.29199">
        <ele>133.990408</ele>
        <time>2020-09-06T19:23:53.901Z</time>
      </trkpt>
      <trkpt lat="48.60734" lon="-3.29208">
        <ele>135.372325</ele>
        <time>2020-09-06T19:24:12.263Z</time>
      </trkpt>
      <trkpt lat="48.60715" lon="-3.29224">
        <ele>135.712536</ele>
        <time>2020-09-06T19:24:18.557Z</time>
      </trkpt>
      <trkpt lat="48.60709" lon="-3.29235">
        <ele>135.824748</ele>
        <time>2020-09-06T19:24:21.546Z</time>
      </trkpt>
      <trkpt lat="48.60705" lon="-3.29244">
        <ele>135.915804</ele>
        <time>2020-09-06T19:24:23.789Z</time>
      </trkpt>
      <trkpt lat="48.60697" lon="-3.29249">
        <ele>136.01991</ele>
        <time>2020-09-06T19:24:25.847Z</time>
      </trkpt>
      <trkpt lat="48.60653" lon="-3.29282">
        <ele>136.645286</ele>
        <time>2020-09-06T19:24:38.695Z</time>
      </trkpt>
      <trkpt lat="48.6065" lon="-3.29286">
        <ele>136.695783</ele>
        <time>2020-09-06T19:24:40.072Z</time>
      </trkpt>
      <trkpt lat="48.60643" lon="-3.29297">
        <ele>136.818515</ele>
        <time>2020-09-06T19:24:42.803Z</time>
      </trkpt>
      <trkpt lat="48.60633" lon="-3.29326">
        <ele>137.097767</ele>
        <time>2020-09-06T19:24:47.705Z</time>
      </trkpt>
      <trkpt lat="48.60622" lon="-3.29416">
        <ele>137.777865</ele>
        <time>2020-09-06T19:25:02.337Z</time>
      </trkpt>
      <trkpt lat="48.60614" lon="-3.29436">
        <ele>137.806865</ele>
        <time>2020-09-06T19:25:05.866Z</time>
      </trkpt>
      <trkpt lat="48.60607" lon="-3.29445">
        <ele>137.823229</ele>
        <time>2020-09-06T19:25:07.841Z</time>
      </trkpt>
      <trkpt lat="48.60599" lon="-3.29454">
        <ele>137.841572</ele>
        <time>2020-09-06T19:25:09.815Z</time>
      </trkpt>
      <trkpt lat="48.60479" lon="-3.29548">
        <ele>138.089448</ele>
        <time>2020-09-06T19:25:36.996Z</time>
      </trkpt>
      <trkpt lat="48.60433" lon="-3.29615">
        <ele>138.70065</ele>
        <time>2020-09-06T19:25:51.008Z</time>
      </trkpt>
      <trkpt lat="48.60374" lon="-3.29721">
        <ele>139.604315</ele>
        <time>2020-09-06T19:26:15.274Z</time>
      </trkpt>
      <trkpt lat="48.6037" lon="-3.29734">
        <ele>139.702712</ele>
        <time>2020-09-06T19:26:18.173Z</time>
      </trkpt>
      <trkpt lat="48.60365" lon="-3.29752">
        <ele>139.824812</ele>
        <time>2020-09-06T19:26:21.299Z</time>
      </trkpt>
      <trkpt lat="48.60373" lon="-3.29782">
        <ele>140.209226</ele>
        <time>2020-09-06T19:26:27.846Z</time>
      </trkpt>
      <trkpt lat="48.60385" lon="-3.29843">
        <ele>141.062347</ele>
        <time>2020-09-06T19:26:40.136Z</time>
      </trkpt>
      <trkpt lat="48.60399" lon="-3.29913">
        <ele>142.030769</ele>
        <time>2020-09-06T19:26:54.672Z</time>
      </trkpt>
      <trkpt lat="48.60425" lon="-3.29979">
        <ele>143.045561</ele>
        <time>2020-09-06T19:27:10.500Z</time>
      </trkpt>
      <trkpt lat="48.60452" lon="-3.30003">
        <ele>143.593834</ele>
        <time>2020-09-06T19:27:19.555Z</time>
      </trkpt>
      <trkpt lat="48.60464" lon="-3.30024">
        <ele>143.80112</ele>
        <time>2020-09-06T19:27:24.454Z</time>
      </trkpt>
      <trkpt lat="48.6048" lon="-3.30094">
        <ele>144.364273</ele>
        <time>2020-09-06T19:27:37.315Z</time>
      </trkpt>
      <trkpt lat="48.6049" lon="-3.30131">
        <ele>144.668049</ele>
        <time>2020-09-06T19:27:43.731Z</time>
      </trkpt>
      <trkpt lat="48.60501" lon="-3.30168">
        <ele>144.972523</ele>
        <time>2020-09-06T19:27:50.119Z</time>
      </trkpt>
      <trkpt lat="48.60525" lon="-3.30291">
        <ele>145.666267</ele>
        <time>2020-09-06T19:28:08.700Z</time>
      </trkpt>
      <trkpt lat="48.60533" lon="-3.30353">
        <ele>145.814939</ele>
        <time>2020-09-06T19:28:17.362Z</time>
      </trkpt>
      <trkpt lat="48.60532" lon="-3.30397">
        <ele>145.916545</ele>
        <time>2020-09-06T19:28:23.321Z</time>
      </trkpt>
      <trkpt lat="48.60527" lon="-3.30438">
        <ele>146.014533</ele>
        <time>2020-09-06T19:28:28.836Z</time>
      </trkpt>
      <trkpt lat="48.60489" lon="-3.30606">
        <ele>146.64425</ele>
        <time>2020-09-06T19:28:53.547Z</time>
      </trkpt>
      <trkpt lat="48.60479" lon="-3.30636">
        <ele>146.788471</ele>
        <time>2020-09-06T19:28:58.483Z</time>
      </trkpt>
      <trkpt lat="48.60464" lon="-3.30659">
        <ele>146.928616</ele>
        <time>2020-09-06T19:29:03.316Z</time>
      </trkpt>
      <trkpt lat="48.60415" lon="-3.30712">
        <ele>147.321832</ele>
        <time>2020-09-06T19:29:17.247Z</time>
      </trkpt>
      <trkpt lat="48.60424" lon="-3.30729">
        <ele>147.472884</ele>
        <time>2020-09-06T19:29:20.917Z</time>
      </trkpt>
      <trkpt lat="48.60499" lon="-3.30784">
        <ele>148.56453</ele>
        <time>2020-09-06T19:29:42.912Z</time>
      </trkpt>
      <trkpt lat="48.60564" lon="-3.30817">
        <ele>149.454236</ele>
        <time>2020-09-06T19:30:01.884Z</time>
      </trkpt>
      <trkpt lat="48.60613" lon="-3.30869">
        <ele>150.346087</ele>
        <time>2020-09-06T19:30:18.655Z</time>
      </trkpt>
      <trkpt lat="48.60666" lon="-3.30913">
        <ele>151.297237</ele>
        <time>2020-09-06T19:30:35.643Z</time>
      </trkpt>
      <trkpt lat="48.60725" lon="-3.31">
        <ele>152.573955</ele>
        <time>2020-09-06T19:30:59.444Z</time>
      </trkpt>
      <trkpt lat="48.60762" lon="-3.31094">
        <ele>153.122321</ele>
        <time>2020-09-06T19:31:18.681Z</time>
      </trkpt>
      <trkpt lat="48.60765" lon="-3.31101">
        <ele>153.160563</ele>
        <time>2020-09-06T19:31:20.195Z</time>
      </trkpt>
      <trkpt lat="48.60773" lon="-3.31094">
        <ele>153.228001</ele>
        <time>2020-09-06T19:31:22.177Z</time>
      </trkpt>
      <trkpt lat="48.6078" lon="-3.31089">
        <ele>153.287972</ele>
        <time>2020-09-06T19:31:23.965Z</time>
      </trkpt>
      <trkpt lat="48.60784" lon="-3.31097">
        <ele>153.336583</ele>
        <time>2020-09-06T19:31:25.490Z</time>
      </trkpt>
      <trkpt lat="48.60832" lon="-3.31164">
        <ele>153.829422</ele>
        <time>2020-09-06T19:31:39.743Z</time>
      </trkpt>
      <trkpt lat="48.6084" lon="-3.31187">
        <ele>153.817498</ele>
        <time>2020-09-06T19:31:43.120Z</time>
      </trkpt>
      <trkpt lat="48.60851" lon="-3.3125">
        <ele>153.335354</ele>
        <time>2020-09-06T19:31:51.424Z</time>
      </trkpt>
      <trkpt lat="48.60893" lon="-3.31331">
        <ele>152.574368</ele>
        <time>2020-09-06T19:32:03.445Z</time>
      </trkpt>
      <trkpt lat="48.60995" lon="-3.3145">
        <ele>150.518</ele>
        <time>2020-09-06T19:32:24.973Z</time>
      </trkpt>
      <trkpt lat="48.61047" lon="-3.31539">
        <ele>148.928212</ele>
        <time>2020-09-06T19:32:37.759Z</time>
      </trkpt>
      <trkpt lat="48.61064" lon="-3.31584">
        <ele>148.227114</ele>
        <time>2020-09-06T19:32:43.330Z</time>
      </trkpt>
      <trkpt lat="48.61069" lon="-3.31641">
        <ele>147.248104</ele>
        <time>2020-09-06T19:32:49.492Z</time>
      </trkpt>
      <trkpt lat="48.61066" lon="-3.31671">
        <ele>146.718898</ele>
        <time>2020-09-06T19:32:52.800Z</time>
      </trkpt>
      <trkpt lat="48.61029" lon="-3.31787">
        <ele>144.527831</ele>
        <time>2020-09-06T19:33:06.310Z</time>
      </trkpt>
      <trkpt lat="48.61027" lon="-3.31821">
        <ele>143.963528</ele>
        <time>2020-09-06T19:33:09.748Z</time>
      </trkpt>
      <trkpt lat="48.61043" lon="-3.31908">
        <ele>142.251836</ele>
        <time>2020-09-06T19:33:19.080Z</time>
      </trkpt>
      <trkpt lat="48.61079" lon="-3.32004">
        <ele>140.122342</ele>
        <time>2020-09-06T19:33:30.321Z</time>
      </trkpt>
      <trkpt lat="48.61106" lon="-3.32154">
        <ele>137.543789</ele>
        <time>2020-09-06T19:33:46.345Z</time>
      </trkpt>
      <trkpt lat="48.61129" lon="-3.32304">
        <ele>135.60839</ele>
        <time>2020-09-06T19:34:03.247Z</time>
      </trkpt>
      <trkpt lat="48.61134" lon="-3.32313">
        <ele>135.466554</ele>
        <time>2020-09-06T19:34:04.451Z</time>
      </trkpt>
      <trkpt lat="48.6115" lon="-3.32382">
        <ele>134.986194</ele>
        <time>2020-09-06T19:34:12.801Z</time>
      </trkpt>
      <trkpt lat="48.61169" lon="-3.32412">
        <ele>135.055388</ele>
        <time>2020-09-06T19:34:17.579Z</time>
      </trkpt>
      <trkpt lat="48.61386" lon="-3.32507">
        <ele>136.248118</ele>
        <time>2020-09-06T19:35:09.337Z</time>
      </trkpt>
      <trkpt lat="48.61398" lon="-3.32511">
        <ele>136.359193</ele>
        <time>2020-09-06T19:35:12.224Z</time>
      </trkpt>
      <trkpt lat="48.614" lon="-3.32521">
        <ele>136.42154</ele>
        <time>2020-09-06T19:35:14.823Z</time>
      </trkpt>
      <trkpt lat="48.61427" lon="-3.32555">
        <ele>136.744677</ele>
        <time>2020-09-06T19:35:28.361Z</time>
      </trkpt>
      <trkpt lat="48.61433" lon="-3.32563">
        <ele>136.818933</ele>
        <time>2020-09-06T19:35:31.436Z</time>
      </trkpt>
      <trkpt lat="48.61435" lon="-3.32568">
        <ele>136.853676</ele>
        <time>2020-09-06T19:35:33.129Z</time>
      </trkpt>
      <trkpt lat="48.61449" lon="-3.32588">
        <ele>137.028657</ele>
        <time>2020-09-06T19:35:38.722Z</time>
      </trkpt>
      <trkpt lat="48.61504" lon="-3.32633">
        <ele>137.046688</ele>
        <time>2020-09-06T19:35:57.541Z</time>
      </trkpt>
      <trkpt lat="48.61572" lon="-3.32658">
        <ele>137.061955</ele>
        <time>2020-09-06T19:36:15.878Z</time>
      </trkpt>
      <trkpt lat="48.61602" lon="-3.32675">
        <ele>137.069014</ele>
        <time>2020-09-06T19:36:23.266Z</time>
      </trkpt>
      <trkpt lat="48.61598" lon="-3.32705">
        <ele>136.976499</ele>
        <time>2020-09-06T19:36:26.827Z</time>
      </trkpt>
      <trkpt lat="48.61594" lon="-3.32719">
        <ele>136.733482</ele>
        <time>2020-09-06T19:36:28.407Z</time>
      </trkpt>
      <trkpt lat="48.61562" lon="-3.32781">
        <ele>135.505801</ele>
        <time>2020-09-06T19:36:36.488Z</time>
      </trkpt>
      <trkpt lat="48.61497" lon="-3.3285">
        <ele>133.62196</ele>
        <time>2020-09-06T19:36:48.199Z</time>
      </trkpt>
      <trkpt lat="48.61456" lon="-3.32903">
        <ele>132.354573</ele>
        <time>2020-09-06T19:36:55.950Z</time>
      </trkpt>
      <trkpt lat="48.61415" lon="-3.32982">
        <ele>130.801466</ele>
        <time>2020-09-06T19:37:05.786Z</time>
      </trkpt>
      <trkpt lat="48.61367" lon="-3.33045">
        <ele>129.33488</ele>
        <time>2020-09-06T19:37:15.449Z</time>
      </trkpt>
      <trkpt lat="48.6134" lon="-3.33132">
        <ele>128.43741</ele>
        <time>2020-09-06T19:37:26.120Z</time>
      </trkpt>
      <trkpt lat="48.6133" lon="-3.3314">
        <ele>128.366615</ele>
        <time>2020-09-06T19:37:28.136Z</time>
      </trkpt>
      <trkpt lat="48.61272" lon="-3.33144">
        <ele>128.021809</ele>
        <time>2020-09-06T19:37:38.709Z</time>
      </trkpt>
      <trkpt lat="48.61258" lon="-3.33152">
        <ele>127.9308</ele>
        <time>2020-09-06T19:37:41.315Z</time>
      </trkpt>
      <trkpt lat="48.6125" lon="-3.33161">
        <ele>127.868582</ele>
        <time>2020-09-06T19:37:43.645Z</time>
      </trkpt>
      <trkpt lat="48.61239" lon="-3.33177">
        <ele>127.778684</ele>
        <time>2020-09-06T19:37:46.253Z</time>
      </trkpt>
      <trkpt lat="48.61205" lon="-3.33245">
        <ele>127.332843</ele>
        <time>2020-09-06T19:37:56.713Z</time>
      </trkpt>
      <trkpt lat="48.61192" lon="-3.33263">
        <ele>127.130892</ele>
        <time>2020-09-06T19:37:59.759Z</time>
      </trkpt>
      <trkpt lat="48.61174" lon="-3.33285">
        <ele>126.873579</ele>
        <time>2020-09-06T19:38:03.971Z</time>
      </trkpt>
      <trkpt lat="48.61188" lon="-3.33301">
        <ele>126.677031</ele>
        <time>2020-09-06T19:38:06.782Z</time>
      </trkpt>
      <trkpt lat="48.61226" lon="-3.33357">
        <ele>126.07859</ele>
        <time>2020-09-06T19:38:15.736Z</time>
      </trkpt>
      <trkpt lat="48.61289" lon="-3.33474">
        <ele>124.514869</ele>
        <time>2020-09-06T19:38:31.243Z</time>
      </trkpt>
      <trkpt lat="48.61435" lon="-3.33644">
        <ele>120.981892</ele>
        <time>2020-09-06T19:38:59.668Z</time>
      </trkpt>
      <trkpt lat="48.61566" lon="-3.33825">
        <ele>118.210141</ele>
        <time>2020-09-06T19:39:28.053Z</time>
      </trkpt>
      <trkpt lat="48.61583" lon="-3.33843">
        <ele>117.98003</ele>
        <time>2020-09-06T19:39:31.588Z</time>
      </trkpt>
      <trkpt lat="48.61631" lon="-3.3389">
        <ele>117.350457</ele>
        <time>2020-09-06T19:39:41.317Z</time>
      </trkpt>
      <trkpt lat="48.617" lon="-3.3395">
        <ele>116.819968</ele>
        <time>2020-09-06T19:39:54.847Z</time>
      </trkpt>
      <trkpt lat="48.6172" lon="-3.3397">
        <ele>116.825472</ele>
        <time>2020-09-06T19:39:59.437Z</time>
      </trkpt>
      <trkpt lat="48.61702" lon="-3.33979">
        <ele>116.829753</ele>
        <time>2020-09-06T19:40:02.734Z</time>
      </trkpt>
      <trkpt lat="48.61679" lon="-3.33989">
        <ele>116.835367</ele>
        <time>2020-09-06T19:40:07.498Z</time>
      </trkpt>
      <trkpt lat="48.61645" lon="-3.34015">
        <ele>116.843905</ele>
        <time>2020-09-06T19:40:14.853Z</time>
      </trkpt>
      <trkpt lat="48.61559" lon="-3.3411">
        <ele>118.22236</ele>
        <time>2020-09-06T19:40:40.156Z</time>
      </trkpt>
      <trkpt lat="48.61492" lon="-3.34245">
        <ele>120.68682</ele>
        <time>2020-09-06T19:41:16.786Z</time>
      </trkpt>
      <trkpt lat="48.61449" lon="-3.3437">
        <ele>123.924935</ele>
        <time>2020-09-06T19:41:52.563Z</time>
      </trkpt>
      <trkpt lat="48.6142" lon="-3.34434">
        <ele>125.724855</ele>
        <time>2020-09-06T19:42:12.015Z</time>
      </trkpt>
      <trkpt lat="48.61401" lon="-3.34501">
        <ele>127.380629</ele>
        <time>2020-09-06T19:42:29.298Z</time>
      </trkpt>
      <trkpt lat="48.61398" lon="-3.34515">
        <ele>127.621557</ele>
        <time>2020-09-06T19:42:33.734Z</time>
      </trkpt>
      <trkpt lat="48.61394" lon="-3.3453">
        <ele>127.866275</ele>
        <time>2020-09-06T19:42:37.220Z</time>
      </trkpt>
      <trkpt lat="48.61388" lon="-3.34548">
        <ele>128.180836</ele>
        <time>2020-09-06T19:42:41.099Z</time>
      </trkpt>
      <trkpt lat="48.61384" lon="-3.3456">
        <ele>128.389221</ele>
        <time>2020-09-06T19:42:44.468Z</time>
      </trkpt>
      <trkpt lat="48.6139" lon="-3.34565">
        <ele>128.554111</ele>
        <time>2020-09-06T19:42:47.312Z</time>
      </trkpt>
      <trkpt lat="48.61407" lon="-3.34572">
        <ele>128.96642</ele>
        <time>2020-09-06T19:42:52.433Z</time>
      </trkpt>
      <trkpt lat="48.61481" lon="-3.34556">
        <ele>130.755322</ele>
        <time>2020-09-06T19:43:16.384Z</time>
      </trkpt>
      <trkpt lat="48.616" lon="-3.3456">
        <ele>132.217526</ele>
        <time>2020-09-06T19:43:47.917Z</time>
      </trkpt>
      <trkpt lat="48.61672" lon="-3.34626">
        <ele>132.904543</ele>
        <time>2020-09-06T19:44:06.462Z</time>
      </trkpt>
      <trkpt lat="48.61699" lon="-3.34694">
        <ele>132.84979</ele>
        <time>2020-09-06T19:44:17.496Z</time>
      </trkpt>
      <trkpt lat="48.61706" lon="-3.34701">
        <ele>132.827557</ele>
        <time>2020-09-06T19:44:18.983Z</time>
      </trkpt>
      <trkpt lat="48.61709" lon="-3.34703">
        <ele>132.816553</ele>
        <time>2020-09-06T19:44:19.733Z</time>
      </trkpt>
      <trkpt lat="48.61733" lon="-3.34708">
        <ele>132.750272</ele>
        <time>2020-09-06T19:44:24.545Z</time>
      </trkpt>
      <trkpt lat="48.61763" lon="-3.34698">
        <ele>132.662859</ele>
        <time>2020-09-06T19:44:30.612Z</time>
      </trkpt>
      <trkpt lat="48.61788" lon="-3.34687">
        <ele>132.591536</ele>
        <time>2020-09-06T19:44:35.465Z</time>
      </trkpt>
      <trkpt lat="48.61805" lon="-3.34682">
        <ele>132.54103</ele>
        <time>2020-09-06T19:44:38.989Z</time>
      </trkpt>
      <trkpt lat="48.61837" lon="-3.34678">
        <ele>132.404338</ele>
        <time>2020-09-06T19:44:44.706Z</time>
      </trkpt>
      <trkpt lat="48.61898" lon="-3.34698">
        <ele>131.725339</ele>
        <time>2020-09-06T19:44:55.864Z</time>
      </trkpt>
      <trkpt lat="48.61929" lon="-3.34675">
        <ele>131.353899</ele>
        <time>2020-09-06T19:45:01.968Z</time>
      </trkpt>
      <trkpt lat="48.61947" lon="-3.34644">
        <ele>131.059844</ele>
        <time>2020-09-06T19:45:06.923Z</time>
      </trkpt>
      <trkpt lat="48.61953" lon="-3.34633">
        <ele>130.964588</ele>
        <time>2020-09-06T19:45:08.396Z</time>
      </trkpt>
      <trkpt lat="48.61962" lon="-3.34615">
        <ele>130.801506</ele>
        <time>2020-09-06T19:45:11.115Z</time>
      </trkpt>
      <trkpt lat="48.61975" lon="-3.34594">
        <ele>130.592724</ele>
        <time>2020-09-06T19:45:14.480Z</time>
      </trkpt>
      <trkpt lat="48.62031" lon="-3.34576">
        <ele>129.815084</ele>
        <time>2020-09-06T19:45:24.515Z</time>
      </trkpt>
      <trkpt lat="48.62063" lon="-3.34568">
        <ele>129.366966</ele>
        <time>2020-09-06T19:45:30.108Z</time>
      </trkpt>
      <trkpt lat="48.62207" lon="-3.34563">
        <ele>126.887104</ele>
        <time>2020-09-06T19:45:54.731Z</time>
      </trkpt>
      <trkpt lat="48.62277" lon="-3.34606">
        <ele>125.051005</ele>
        <time>2020-09-06T19:46:06.712Z</time>
      </trkpt>
      <trkpt lat="48.62283" lon="-3.34608">
        <ele>124.912085</ele>
        <time>2020-09-06T19:46:07.598Z</time>
      </trkpt>
      <trkpt lat="48.6229" lon="-3.34608">
        <ele>124.725591</ele>
        <time>2020-09-06T19:46:08.776Z</time>
      </trkpt>
      <trkpt lat="48.62306" lon="-3.34598">
        <ele>124.309772</ele>
        <time>2020-09-06T19:46:11.432Z</time>
      </trkpt>
      <trkpt lat="48.62349" lon="-3.34541">
        <ele>122.737048</ele>
        <time>2020-09-06T19:46:20.357Z</time>
      </trkpt>
      <trkpt lat="48.62354" lon="-3.34538">
        <ele>122.57273</ele>
        <time>2020-09-06T19:46:21.153Z</time>
      </trkpt>
      <trkpt lat="48.62362" lon="-3.34538">
        <ele>122.343383</ele>
        <time>2020-09-06T19:46:22.273Z</time>
      </trkpt>
      <trkpt lat="48.62393" lon="-3.34554">
        <ele>121.339575</ele>
        <time>2020-09-06T19:46:27.417Z</time>
      </trkpt>
      <trkpt lat="48.62442" lon="-3.34618">
        <ele>119.404495</ele>
        <time>2020-09-06T19:46:37.361Z</time>
      </trkpt>
      <trkpt lat="48.62454" lon="-3.3463">
        <ele>118.954</ele>
        <time>2020-09-06T19:46:39.576Z</time>
      </trkpt>
      <trkpt lat="48.62457" lon="-3.34633">
        <ele>118.862596</ele>
        <time>2020-09-06T19:46:40.033Z</time>
      </trkpt>
      <trkpt lat="48.62504" lon="-3.34685">
        <ele>117.16815</ele>
        <time>2020-09-06T19:46:49.361Z</time>
      </trkpt>
      <trkpt lat="48.62508" lon="-3.34696">
        <ele>116.923734</ele>
        <time>2020-09-06T19:46:50.745Z</time>
      </trkpt>
      <trkpt lat="48.62508" lon="-3.34696">
        <ele>116.923734</ele>
        <time>2020-09-06T19:46:50.748Z</time>
      </trkpt>
      <trkpt lat="48.62509" lon="-3.34706">
        <ele>116.733305</ele>
        <time>2020-09-06T19:46:51.742Z</time>
      </trkpt>
      <trkpt lat="48.625" lon="-3.34765">
        <ele>115.599548</ele>
        <time>2020-09-06T19:46:58.137Z</time>
      </trkpt>
      <trkpt lat="48.62507" lon="-3.34797">
        <ele>114.966622</ele>
        <time>2020-09-06T19:47:01.700Z</time>
      </trkpt>
      <trkpt lat="48.62571" lon="-3.34884">
        <ele>112.453111</ele>
        <time>2020-09-06T19:47:14.971Z</time>
      </trkpt>
      <trkpt lat="48.62627" lon="-3.34977">
        <ele>109.841852</ele>
        <time>2020-09-06T19:47:27.636Z</time>
      </trkpt>
      <trkpt lat="48.62714" lon="-3.35093">
        <ele>107.312495</ele>
        <time>2020-09-06T19:47:45.579Z</time>
      </trkpt>
      <trkpt lat="48.62739" lon="-3.35134">
        <ele>107.130849</ele>
        <time>2020-09-06T19:47:51.985Z</time>
      </trkpt>
      <trkpt lat="48.62749" lon="-3.35161">
        <ele>107.033473</ele>
        <time>2020-09-06T19:47:55.440Z</time>
      </trkpt>
      <trkpt lat="48.6277" lon="-3.35232">
        <ele>106.779317</ele>
        <time>2020-09-06T19:48:07.276Z</time>
      </trkpt>
      <trkpt lat="48.62797" lon="-3.35333">
        <ele>108.013639</ele>
        <time>2020-09-06T19:48:30.570Z</time>
      </trkpt>
      <trkpt lat="48.62805" lon="-3.35416">
        <ele>109.82959</ele>
        <time>2020-09-06T19:48:52.581Z</time>
      </trkpt>
      <trkpt lat="48.62803" lon="-3.35488">
        <ele>111.371611</ele>
        <time>2020-09-06T19:49:12.027Z</time>
      </trkpt>
      <trkpt lat="48.62799" lon="-3.35607">
        <ele>112.98494</ele>
        <time>2020-09-06T19:49:41.366Z</time>
      </trkpt>
      <trkpt lat="48.628" lon="-3.35615">
        <ele>113.043209</ele>
        <time>2020-09-06T19:49:43.124Z</time>
      </trkpt>
      <trkpt lat="48.62805" lon="-3.35647">
        <ele>113.281988</ele>
        <time>2020-09-06T19:49:49.791Z</time>
      </trkpt>
      <trkpt lat="48.62825" lon="-3.35684">
        <ele>113.636404</ele>
        <time>2020-09-06T19:49:58.678Z</time>
      </trkpt>
      <trkpt lat="48.62899" lon="-3.35757">
        <ele>114.170437</ele>
        <time>2020-09-06T19:50:15.380Z</time>
      </trkpt>
      <trkpt lat="48.62904" lon="-3.35771">
        <ele>113.888438</ele>
        <time>2020-09-06T19:50:17.227Z</time>
      </trkpt>
      <trkpt lat="48.62903" lon="-3.35786">
        <ele>113.636982</ele>
        <time>2020-09-06T19:50:18.721Z</time>
      </trkpt>
      <trkpt lat="48.63075" lon="-3.35872">
        <ele>108.906997</ele>
        <time>2020-09-06T19:50:44.760Z</time>
      </trkpt>
      <trkpt lat="48.631" lon="-3.35891">
        <ele>108.186858</ele>
        <time>2020-09-06T19:50:48.818Z</time>
      </trkpt>
      <trkpt lat="48.63243" lon="-3.36003">
        <ele>105.102369</ele>
        <time>2020-09-06T19:51:13.318Z</time>
      </trkpt>
      <trkpt lat="48.63339" lon="-3.36115">
        <ele>104.815302</ele>
        <time>2020-09-06T19:51:38.408Z</time>
      </trkpt>
      <trkpt lat="48.6336" lon="-3.36127">
        <ele>104.837363</ele>
        <time>2020-09-06T19:51:44.634Z</time>
      </trkpt>
      <trkpt lat="48.63378" lon="-3.36137">
        <ele>105.034192</ele>
        <time>2020-09-06T19:51:48.936Z</time>
      </trkpt>
      <trkpt lat="48.63413" lon="-3.36174">
        <ele>105.461924</ele>
        <time>2020-09-06T19:51:59.480Z</time>
      </trkpt>
      <trkpt lat="48.63417" lon="-3.36181">
        <ele>105.528318</ele>
        <time>2020-09-06T19:52:01.910Z</time>
      </trkpt>
      <trkpt lat="48.63419" lon="-3.36186">
        <ele>105.573711</ele>
        <time>2020-09-06T19:52:03.121Z</time>
      </trkpt>
      <trkpt lat="48.63485" lon="-3.36342">
        <ele>106.69309</ele>
        <time>2020-09-06T19:52:32.147Z</time>
      </trkpt>
      <trkpt lat="48.63519" lon="-3.36405">
        <ele>106.897795</ele>
        <time>2020-09-06T19:52:43.592Z</time>
      </trkpt>
      <trkpt lat="48.63609" lon="-3.36525">
        <ele>107.399233</ele>
        <time>2020-09-06T19:53:07.346Z</time>
      </trkpt>
      <trkpt lat="48.6367" lon="-3.36599">
        <ele>107.973507</ele>
        <time>2020-09-06T19:53:25.489Z</time>
      </trkpt>
      <trkpt lat="48.63767" lon="-3.36752">
        <ele>109.075839</ele>
        <time>2020-09-06T19:53:58.678Z</time>
      </trkpt>
      <trkpt lat="48.63795" lon="-3.36798">
        <ele>109.439959</ele>
        <time>2020-09-06T19:54:08.354Z</time>
      </trkpt>
      <trkpt lat="48.63842" lon="-3.36878">
        <ele>110.060687</ele>
        <time>2020-09-06T19:54:24.721Z</time>
      </trkpt>
      <trkpt lat="48.63856" lon="-3.36898">
        <ele>110.255715</ele>
        <time>2020-09-06T19:54:29.268Z</time>
      </trkpt>
      <trkpt lat="48.63859" lon="-3.36901">
        <ele>110.302888</ele>
        <time>2020-09-06T19:54:30.055Z</time>
      </trkpt>
      <trkpt lat="48.6391" lon="-3.3697">
        <ele>111.281629</ele>
        <time>2020-09-06T19:54:46.817Z</time>
      </trkpt>
      <trkpt lat="48.63935" lon="-3.37003">
        <ele>111.77187</ele>
        <time>2020-09-06T19:54:55.930Z</time>
      </trkpt>
      <trkpt lat="48.63956" lon="-3.3703">
        <ele>112.16916</ele>
        <time>2020-09-06T19:55:03.627Z</time>
      </trkpt>
      <trkpt lat="48.63976" lon="-3.37056">
        <ele>112.53936</ele>
        <time>2020-09-06T19:55:11.040Z</time>
      </trkpt>
      <trkpt lat="48.64016" lon="-3.37116">
        <ele>113.159775</ele>
        <time>2020-09-06T19:55:27.709Z</time>
      </trkpt>
      <trkpt lat="48.64032" lon="-3.37135">
        <ele>113.350179</ele>
        <time>2020-09-06T19:55:33.543Z</time>
      </trkpt>
      <trkpt lat="48.64073" lon="-3.37177">
        <ele>113.812116</ele>
        <time>2020-09-06T19:55:46.091Z</time>
      </trkpt>
      <trkpt lat="48.6408" lon="-3.37184">
        <ele>113.894797</ele>
        <time>2020-09-06T19:55:48.110Z</time>
      </trkpt>
      <trkpt lat="48.64106" lon="-3.37216">
        <ele>114.211176</ele>
        <time>2020-09-06T19:55:55.339Z</time>
      </trkpt>
      <trkpt lat="48.64108" lon="-3.37213">
        <ele>114.238807</ele>
        <time>2020-09-06T19:55:55.882Z</time>
      </trkpt>
      <trkpt lat="48.64112" lon="-3.37207">
        <ele>114.292526</ele>
        <time>2020-09-06T19:55:57.040Z</time>
      </trkpt>
      <trkpt lat="48.64116" lon="-3.37202">
        <ele>114.343012</ele>
        <time>2020-09-06T19:55:58.247Z</time>
      </trkpt>
      <trkpt lat="48.64129" lon="-3.37185">
        <ele>114.43122</ele>
        <time>2020-09-06T19:56:00.998Z</time>
      </trkpt>
      <trkpt lat="48.64141" lon="-3.37173">
        <ele>114.072978</ele>
        <time>2020-09-06T19:56:03.674Z</time>
      </trkpt>
      <trkpt lat="48.64182" lon="-3.37128">
        <ele>112.803756</ele>
        <time>2020-09-06T19:56:12.257Z</time>
      </trkpt>
      <trkpt lat="48.64188" lon="-3.37121">
        <ele>112.6304</ele>
        <time>2020-09-06T19:56:13.264Z</time>
      </trkpt>
      <trkpt lat="48.64188" lon="-3.37121">
        <ele>112.6304</ele>
        <time>2020-09-06T19:56:13.270Z</time>
      </trkpt>
      <trkpt lat="48.64188" lon="-3.37121">
        <ele>112.6304</ele>
        <time>2020-09-06T19:56:13.341Z</time>
      </trkpt>
      <trkpt lat="48.64199" lon="-3.37124">
        <ele>112.335582</ele>
        <time>2020-09-06T19:56:15.083Z</time>
      </trkpt>
      <trkpt lat="48.64227" lon="-3.37126">
        <ele>111.63962</ele>
        <time>2020-09-06T19:56:19.204Z</time>
      </trkpt>
      <trkpt lat="48.64233" lon="-3.37123">
        <ele>111.502178</ele>
        <time>2020-09-06T19:56:19.948Z</time>
      </trkpt>
      <trkpt lat="48.64243" lon="-3.37109">
        <ele>111.144255</ele>
        <time>2020-09-06T19:56:21.990Z</time>
      </trkpt>
      <trkpt lat="48.64245" lon="-3.37105">
        <ele>111.068921</ele>
        <time>2020-09-06T19:56:22.426Z</time>
      </trkpt>
      <trkpt lat="48.6425" lon="-3.37097">
        <ele>110.887529</ele>
        <time>2020-09-06T19:56:23.415Z</time>
      </trkpt>
      <trkpt lat="48.64275" lon="-3.37081">
        <ele>110.214446</ele>
        <time>2020-09-06T19:56:27.187Z</time>
      </trkpt>
      <trkpt lat="48.64328" lon="-3.37067">
        <ele>107.907239</ele>
        <time>2020-09-06T19:56:34.600Z</time>
      </trkpt>
      <trkpt lat="48.64331" lon="-3.37068">
        <ele>107.796452</ele>
        <time>2020-09-06T19:56:34.901Z</time>
      </trkpt>
      <trkpt lat="48.6434" lon="-3.37069">
        <ele>107.380998</ele>
        <time>2020-09-06T19:56:36.089Z</time>
      </trkpt>
      <trkpt lat="48.6445" lon="-3.37099">
        <ele>102.258035</ele>
        <time>2020-09-06T19:56:51.154Z</time>
      </trkpt>
      <trkpt lat="48.64518" lon="-3.37097">
        <ele>99.249334</ele>
        <time>2020-09-06T19:57:00.368Z</time>
      </trkpt>
      <trkpt lat="48.64548" lon="-3.37084">
        <ele>97.880512</ele>
        <time>2020-09-06T19:57:04.651Z</time>
      </trkpt>
      <trkpt lat="48.6461" lon="-3.37018">
        <ele>94.602537</ele>
        <time>2020-09-06T19:57:14.980Z</time>
      </trkpt>
      <trkpt lat="48.64649" lon="-3.36988">
        <ele>93.1963</ele>
        <time>2020-09-06T19:57:21.125Z</time>
      </trkpt>
      <trkpt lat="48.64687" lon="-3.36975">
        <ele>92.196942</ele>
        <time>2020-09-06T19:57:26.712Z</time>
      </trkpt>
      <trkpt lat="48.64738" lon="-3.3698">
        <ele>90.893858</ele>
        <time>2020-09-06T19:57:34.279Z</time>
      </trkpt>
      <trkpt lat="48.64808" lon="-3.36998">
        <ele>89.371898</ele>
        <time>2020-09-06T19:57:45.603Z</time>
      </trkpt>
      <trkpt lat="48.64882" lon="-3.37034">
        <ele>89.67807</ele>
        <time>2020-09-06T19:58:00.124Z</time>
      </trkpt>
      <trkpt lat="48.64911" lon="-3.37057">
        <ele>89.804192</ele>
        <time>2020-09-06T19:58:07.356Z</time>
      </trkpt>
      <trkpt lat="48.6496" lon="-3.37128">
        <ele>90.181691</ele>
        <time>2020-09-06T19:58:25.752Z</time>
      </trkpt>
      <trkpt lat="48.64999" lon="-3.37155">
        <ele>90.943317</ele>
        <time>2020-09-06T19:58:38.058Z</time>
      </trkpt>
      <trkpt lat="48.65027" lon="-3.3716">
        <ele>91.442004</ele>
        <time>2020-09-06T19:58:46.252Z</time>
      </trkpt>
      <trkpt lat="48.65055" lon="-3.37158">
        <ele>91.942081</ele>
        <time>2020-09-06T19:58:54.242Z</time>
      </trkpt>
      <trkpt lat="48.65062" lon="-3.37158">
        <ele>92.075448</ele>
        <time>2020-09-06T19:58:56.487Z</time>
      </trkpt>
      <trkpt lat="48.65095" lon="-3.37161">
        <ele>92.659564</ele>
        <time>2020-09-06T19:59:05.676Z</time>
      </trkpt>
      <trkpt lat="48.65138" lon="-3.37165">
        <ele>93.382211</ele>
        <time>2020-09-06T19:59:17.891Z</time>
      </trkpt>
      <trkpt lat="48.65227" lon="-3.37179">
        <ele>94.572985</ele>
        <time>2020-09-06T19:59:41.353Z</time>
      </trkpt>
      <trkpt lat="48.65264" lon="-3.3719">
        <ele>95.08306</ele>
        <time>2020-09-06T19:59:50.951Z</time>
      </trkpt>
      <trkpt lat="48.65263" lon="-3.37217">
        <ele>95.315337</ele>
        <time>2020-09-06T19:59:55.348Z</time>
      </trkpt>
      <trkpt lat="48.65264" lon="-3.37317">
        <ele>96.056059</ele>
        <time>2020-09-06T20:00:12.214Z</time>
      </trkpt>
      <trkpt lat="48.65278" lon="-3.3738">
        <ele>96.491469</ele>
        <time>2020-09-06T20:00:23.408Z</time>
      </trkpt>
      <trkpt lat="48.6528" lon="-3.3739">
        <ele>96.559777</ele>
        <time>2020-09-06T20:00:25.387Z</time>
      </trkpt>
      <trkpt lat="48.65282" lon="-3.37394">
        <ele>96.588452</ele>
        <time>2020-09-06T20:00:26.234Z</time>
      </trkpt>
      <trkpt lat="48.65349" lon="-3.37495">
        <ele>97.490128</ele>
        <time>2020-09-06T20:00:49.442Z</time>
      </trkpt>
      <trkpt lat="48.65377" lon="-3.37562">
        <ele>97.829307</ele>
        <time>2020-09-06T20:01:02.651Z</time>
      </trkpt>
      <trkpt lat="48.65459" lon="-3.37682">
        <ele>98.562365</ele>
        <time>2020-09-06T20:01:28.561Z</time>
      </trkpt>
      <trkpt lat="48.65484" lon="-3.37742">
        <ele>98.622089</ele>
        <time>2020-09-06T20:01:38.910Z</time>
      </trkpt>
      <trkpt lat="48.65504" lon="-3.37778">
        <ele>98.649349</ele>
        <time>2020-09-06T20:01:45.706Z</time>
      </trkpt>
      <trkpt lat="48.65724" lon="-3.38">
        <ele>98.318036</ele>
        <time>2020-09-06T20:02:38.142Z</time>
      </trkpt>
      <trkpt lat="48.65733" lon="-3.38018">
        <ele>98.277737</ele>
        <time>2020-09-06T20:02:41.075Z</time>
      </trkpt>
      <trkpt lat="48.65734" lon="-3.38026">
        <ele>98.263799</ele>
        <time>2020-09-06T20:02:41.956Z</time>
      </trkpt>
      <trkpt lat="48.65732" lon="-3.38033">
        <ele>98.20867</ele>
        <time>2020-09-06T20:02:42.850Z</time>
      </trkpt>
      <trkpt lat="48.65731" lon="-3.3804">
        <ele>98.156908</ele>
        <time>2020-09-06T20:02:43.680Z</time>
      </trkpt>
      <trkpt lat="48.65727" lon="-3.38049">
        <ele>98.073168</ele>
        <time>2020-09-06T20:02:44.967Z</time>
      </trkpt>
      <trkpt lat="48.65727" lon="-3.38069">
        <ele>97.913325</ele>
        <time>2020-09-06T20:02:47.490Z</time>
      </trkpt>
      <trkpt lat="48.65728" lon="-3.38083">
        <ele>97.798837</ele>
        <time>2020-09-06T20:02:49.131Z</time>
      </trkpt>
      <trkpt lat="48.65732" lon="-3.38106">
        <ele>97.610094</ele>
        <time>2020-09-06T20:02:52.009Z</time>
      </trkpt>
      <trkpt lat="48.65739" lon="-3.38126">
        <ele>97.431591</ele>
        <time>2020-09-06T20:02:54.665Z</time>
      </trkpt>
      <trkpt lat="48.65751" lon="-3.38152">
        <ele>97.172365</ele>
        <time>2020-09-06T20:02:58.470Z</time>
      </trkpt>
      <trkpt lat="48.65756" lon="-3.38159">
        <ele>97.100325</ele>
        <time>2020-09-06T20:02:59.553Z</time>
      </trkpt>
      <trkpt lat="48.65776" lon="-3.38179">
        <ele>96.81064</ele>
        <time>2020-09-06T20:03:03.660Z</time>
      </trkpt>
      <trkpt lat="48.65826" lon="-3.38222">
        <ele>96.112661</ele>
        <time>2020-09-06T20:03:13.533Z</time>
      </trkpt>
      <trkpt lat="48.65877" lon="-3.3825">
        <ele>94.992016</ele>
        <time>2020-09-06T20:03:22.563Z</time>
      </trkpt>
      <trkpt lat="48.66073" lon="-3.38309">
        <ele>90.792592</ele>
        <time>2020-09-06T20:03:54.892Z</time>
      </trkpt>
      <trkpt lat="48.66101" lon="-3.38343">
        <ele>90.024578</ele>
        <time>2020-09-06T20:04:00.623Z</time>
      </trkpt>
      <trkpt lat="48.66165" lon="-3.38475">
        <ele>88.356945</ele>
        <time>2020-09-06T20:04:18.438Z</time>
      </trkpt>
      <trkpt lat="48.66174" lon="-3.3849">
        <ele>88.295879</ele>
        <time>2020-09-06T20:04:20.984Z</time>
      </trkpt>
      <trkpt lat="48.66181" lon="-3.385">
        <ele>88.254331</ele>
        <time>2020-09-06T20:04:22.633Z</time>
      </trkpt>
      <trkpt lat="48.6622" lon="-3.38533">
        <ele>88.060006</ele>
        <time>2020-09-06T20:04:31.013Z</time>
      </trkpt>
      <trkpt lat="48.66226" lon="-3.38539">
        <ele>88.027871</ele>
        <time>2020-09-06T20:04:32.281Z</time>
      </trkpt>
      <trkpt lat="48.66228" lon="-3.38541">
        <ele>88.017739</ele>
        <time>2020-09-06T20:04:33.225Z</time>
      </trkpt>
      <trkpt lat="48.66251" lon="-3.38578">
        <ele>87.871874</ele>
        <time>2020-09-06T20:04:39.776Z</time>
      </trkpt>
      <trkpt lat="48.66283" lon="-3.38644">
        <ele>88.089616</ele>
        <time>2020-09-06T20:04:53.366Z</time>
      </trkpt>
      <trkpt lat="48.66314" lon="-3.3872">
        <ele>89.08497</ele>
        <time>2020-09-06T20:05:11.052Z</time>
      </trkpt>
      <trkpt lat="48.66348" lon="-3.38809">
        <ele>90.222911</ele>
        <time>2020-09-06T20:05:31.585Z</time>
      </trkpt>
      <trkpt lat="48.66352" lon="-3.3882">
        <ele>90.359272</ele>
        <time>2020-09-06T20:05:34.415Z</time>
      </trkpt>
      <trkpt lat="48.66354" lon="-3.38887">
        <ele>90.975636</ele>
        <time>2020-09-06T20:05:47.145Z</time>
      </trkpt>
      <trkpt lat="48.66358" lon="-3.38908">
        <ele>91.141665</ele>
        <time>2020-09-06T20:05:51.192Z</time>
      </trkpt>
      <trkpt lat="48.66392" lon="-3.38956">
        <ele>91.657478</ele>
        <time>2020-09-06T20:06:04.347Z</time>
      </trkpt>
      <trkpt lat="48.66406" lon="-3.38962">
        <ele>91.823633</ele>
        <time>2020-09-06T20:06:08.270Z</time>
      </trkpt>
      <trkpt lat="48.66573" lon="-3.38966">
        <ele>93.060242</ele>
        <time>2020-09-06T20:06:46.448Z</time>
      </trkpt>
      <trkpt lat="48.66604" lon="-3.38975">
        <ele>93.17665</ele>
        <time>2020-09-06T20:06:53.142Z</time>
      </trkpt>
      <trkpt lat="48.66643" lon="-3.38988">
        <ele>93.326179</ele>
        <time>2020-09-06T20:07:01.736Z</time>
      </trkpt>
      <trkpt lat="48.66709" lon="-3.39028">
        <ele>93.448766</ele>
        <time>2020-09-06T20:07:16.805Z</time>
      </trkpt>
      <trkpt lat="48.66793" lon="-3.39135">
        <ele>93.522329</ele>
        <time>2020-09-06T20:07:39.228Z</time>
      </trkpt>
      <trkpt lat="48.66866" lon="-3.39201">
        <ele>93.417741</ele>
        <time>2020-09-06T20:07:56.089Z</time>
      </trkpt>
      <trkpt lat="48.66879" lon="-3.39216">
        <ele>93.385937</ele>
        <time>2020-09-06T20:07:59.206Z</time>
      </trkpt>
      <trkpt lat="48.6688" lon="-3.39224">
        <ele>93.375172</ele>
        <time>2020-09-06T20:08:00.341Z</time>
      </trkpt>
      <trkpt lat="48.66912" lon="-3.39302">
        <ele>93.255953</ele>
        <time>2020-09-06T20:08:11.722Z</time>
      </trkpt>
      <trkpt lat="48.66931" lon="-3.39378">
        <ele>93.087059</ele>
        <time>2020-09-06T20:08:21.732Z</time>
      </trkpt>
      <trkpt lat="48.66959" lon="-3.39553">
        <ele>92.438204</ele>
        <time>2020-09-06T20:08:42.945Z</time>
      </trkpt>
      <trkpt lat="48.66962" lon="-3.39577">
        <ele>92.351276</ele>
        <time>2020-09-06T20:08:45.699Z</time>
      </trkpt>
      <trkpt lat="48.6698" lon="-3.39571">
        <ele>92.249346</ele>
        <time>2020-09-06T20:08:48.948Z</time>
      </trkpt>
      <trkpt lat="48.66994" lon="-3.39567">
        <ele>92.145973</ele>
        <time>2020-09-06T20:08:51.401Z</time>
      </trkpt>
      <trkpt lat="48.67004" lon="-3.39568">
        <ele>92.052036</ele>
        <time>2020-09-06T20:08:52.971Z</time>
      </trkpt>
      <trkpt lat="48.67008" lon="-3.39587">
        <ele>91.922069</ele>
        <time>2020-09-06T20:08:55.284Z</time>
      </trkpt>
      <trkpt lat="48.67009" lon="-3.39615">
        <ele>91.731859</ele>
        <time>2020-09-06T20:08:58.543Z</time>
      </trkpt>
      <trkpt lat="48.67018" lon="-3.39618">
        <ele>91.63703</ele>
        <time>2020-09-06T20:09:00.174Z</time>
      </trkpt>
      <trkpt lat="48.67014" lon="-3.39649">
        <ele>91.429435</ele>
        <time>2020-09-06T20:09:03.780Z</time>
      </trkpt>
      <trkpt lat="48.6701" lon="-3.39681">
        <ele>91.214901</ele>
        <time>2020-09-06T20:09:07.471Z</time>
      </trkpt>
      <trkpt lat="48.6701" lon="-3.39681">
        <ele>91.214901</ele>
        <time>2020-09-06T20:09:07.520Z</time>
      </trkpt>
      <trkpt lat="48.6701" lon="-3.39681">
        <ele>91.214901</ele>
        <time>2020-09-06T20:09:07.525Z</time>
      </trkpt>
      <trkpt lat="48.67024" lon="-3.39691">
        <ele>91.065667</ele>
        <time>2020-09-06T20:09:10.066Z</time>
      </trkpt>
      <trkpt lat="48.67088" lon="-3.39731">
        <ele>90.336673</ele>
        <time>2020-09-06T20:09:21.469Z</time>
      </trkpt>
      <trkpt lat="48.67119" lon="-3.39773">
        <ele>89.472991</ele>
        <time>2020-09-06T20:09:28.273Z</time>
      </trkpt>
      <trkpt lat="48.67132" lon="-3.39801">
        <ele>88.995413</ele>
        <time>2020-09-06T20:09:32.024Z</time>
      </trkpt>
      <trkpt lat="48.67138" lon="-3.39818">
        <ele>88.732016</ele>
        <time>2020-09-06T20:09:34.039Z</time>
      </trkpt>
      <trkpt lat="48.67198" lon="-3.39865">
        <ele>87.326395</ele>
        <time>2020-09-06T20:09:44.869Z</time>
      </trkpt>
      <trkpt lat="48.67276" lon="-3.39938">
        <ele>84.940326</ele>
        <time>2020-09-06T20:09:59.195Z</time>
      </trkpt>
      <trkpt lat="48.6728" lon="-3.39938">
        <ele>84.809912</ele>
        <time>2020-09-06T20:09:59.810Z</time>
      </trkpt>
      <trkpt lat="48.67284" lon="-3.39946">
        <ele>84.616536</ele>
        <time>2020-09-06T20:10:01.481Z</time>
      </trkpt>
      <trkpt lat="48.67375" lon="-3.40035">
        <ele>81.475266</ele>
        <time>2020-09-06T20:10:29.851Z</time>
      </trkpt>
      <trkpt lat="48.67381" lon="-3.40055">
        <ele>81.175612</ele>
        <time>2020-09-06T20:10:33.796Z</time>
      </trkpt>
      <trkpt lat="48.6739" lon="-3.40112">
        <ele>80.401153</ele>
        <time>2020-09-06T20:10:43.927Z</time>
      </trkpt>
      <trkpt lat="48.674" lon="-3.40149">
        <ele>79.869373</ele>
        <time>2020-09-06T20:10:51.370Z</time>
      </trkpt>
      <trkpt lat="48.67407" lon="-3.40152">
        <ele>79.727415</ele>
        <time>2020-09-06T20:10:53.176Z</time>
      </trkpt>
      <trkpt lat="48.67409" lon="-3.40159">
        <ele>79.626963</ele>
        <time>2020-09-06T20:10:54.532Z</time>
      </trkpt>
      <trkpt lat="48.67407" lon="-3.40195">
        <ele>79.153904</ele>
        <time>2020-09-06T20:11:01.253Z</time>
      </trkpt>
      <trkpt lat="48.67397" lon="-3.40265">
        <ele>78.195368</ele>
        <time>2020-09-06T20:11:14.475Z</time>
      </trkpt>
      <trkpt lat="48.67387" lon="-3.40392">
        <ele>76.788473</ele>
        <time>2020-09-06T20:11:28.303Z</time>
      </trkpt>
      <trkpt lat="48.67374" lon="-3.40461">
        <ele>76.048645</ele>
        <time>2020-09-06T20:11:35.923Z</time>
      </trkpt>
      <trkpt lat="48.67377" lon="-3.40522">
        <ele>75.41625</ele>
        <time>2020-09-06T20:11:42.386Z</time>
      </trkpt>
      <trkpt lat="48.67381" lon="-3.40541">
        <ele>75.202505</ele>
        <time>2020-09-06T20:11:44.585Z</time>
      </trkpt>
      <trkpt lat="48.67392" lon="-3.40622">
        <ele>74.104857</ele>
        <time>2020-09-06T20:11:53.218Z</time>
      </trkpt>
      <trkpt lat="48.67394" lon="-3.40742">
        <ele>72.420416</ele>
        <time>2020-09-06T20:12:05.467Z</time>
      </trkpt>
      <trkpt lat="48.67383" lon="-3.40827">
        <ele>71.200601</ele>
        <time>2020-09-06T20:12:14.075Z</time>
      </trkpt>
      <trkpt lat="48.67384" lon="-3.40847">
        <ele>70.747585</ele>
        <time>2020-09-06T20:12:15.986Z</time>
      </trkpt>
      <trkpt lat="48.67393" lon="-3.40881">
        <ele>69.899638</ele>
        <time>2020-09-06T20:12:19.640Z</time>
      </trkpt>
      <trkpt lat="48.67414" lon="-3.40912">
        <ele>68.857454</ele>
        <time>2020-09-06T20:12:24.110Z</time>
      </trkpt>
      <trkpt lat="48.67434" lon="-3.40928">
        <ele>68.068532</ele>
        <time>2020-09-06T20:12:27.355Z</time>
      </trkpt>
      <trkpt lat="48.67436" lon="-3.4093">
        <ele>67.99022</ele>
        <time>2020-09-06T20:12:27.676Z</time>
      </trkpt>
      <trkpt lat="48.67477" lon="-3.40976">
        <ele>66.208875</ele>
        <time>2020-09-06T20:12:34.750Z</time>
      </trkpt>
      <trkpt lat="48.67495" lon="-3.40996">
        <ele>65.425713</ele>
        <time>2020-09-06T20:12:37.680Z</time>
      </trkpt>
      <trkpt lat="48.67524" lon="-3.41065">
        <ele>63.999332</ele>
        <time>2020-09-06T20:12:45.000Z</time>
      </trkpt>
      <trkpt lat="48.67536" lon="-3.41083">
        <ele>63.614858</ele>
        <time>2020-09-06T20:12:47.365Z</time>
      </trkpt>
      <trkpt lat="48.67548" lon="-3.41089">
        <ele>63.308154</ele>
        <time>2020-09-06T20:12:49.308Z</time>
      </trkpt>
      <trkpt lat="48.67589" lon="-3.41113">
        <ele>62.315659</ele>
        <time>2020-09-06T20:12:56.146Z</time>
      </trkpt>
      <trkpt lat="48.67592" lon="-3.41119">
        <ele>62.206048</ele>
        <time>2020-09-06T20:12:56.751Z</time>
      </trkpt>
      <trkpt lat="48.67603" lon="-3.41124">
        <ele>61.934427</ele>
        <time>2020-09-06T20:13:01.366Z</time>
      </trkpt>
      <trkpt lat="48.67617" lon="-3.41121">
        <ele>61.609038</ele>
        <time>2020-09-06T20:13:05.258Z</time>
      </trkpt>
      <trkpt lat="48.67631" lon="-3.41122">
        <ele>61.296473</ele>
        <time>2020-09-06T20:13:08.904Z</time>
      </trkpt>
      <trkpt lat="48.67635" lon="-3.41109">
        <ele>61.062151</ele>
        <time>2020-09-06T20:13:13.686Z</time>
      </trkpt>
      <trkpt lat="48.67639" lon="-3.41081">
        <ele>60.827446</ele>
        <time>2020-09-06T20:13:18.774Z</time>
      </trkpt>
      <trkpt lat="48.67641" lon="-3.41055">
        <ele>61.027516</ele>
        <time>2020-09-06T20:13:25.126Z</time>
      </trkpt>
      <trkpt lat="48.67654" lon="-3.41052">
        <ele>61.177826</ele>
        <time>2020-09-06T20:13:28.894Z</time>
      </trkpt>
      <trkpt lat="48.67673" lon="-3.41052">
        <ele>61.395478</ele>
        <time>2020-09-06T20:13:36.209Z</time>
      </trkpt>
      <trkpt lat="48.67692" lon="-3.41047">
        <ele>61.616324</ele>
        <time>2020-09-06T20:13:43.615Z</time>
      </trkpt>
      <trkpt lat="48.67706" lon="-3.41021">
        <ele>61.869176</ele>
        <time>2020-09-06T20:13:52.602Z</time>
      </trkpt>
      <trkpt lat="48.67716" lon="-3.40977">
        <ele>62.222106</ele>
        <time>2020-09-06T20:14:06.428Z</time>
      </trkpt>
      <trkpt lat="48.6772" lon="-3.40932">
        <ele>62.562993</ele>
        <time>2020-09-06T20:14:19.576Z</time>
      </trkpt>
      <trkpt lat="48.67721" lon="-3.40875">
        <ele>62.70287</ele>
        <time>2020-09-06T20:14:34.838Z</time>
      </trkpt>
      <trkpt lat="48.67754" lon="-3.40826">
        <ele>62.363548</ele>
        <time>2020-09-06T20:14:44.750Z</time>
      </trkpt>
      <trkpt lat="48.6778" lon="-3.40799">
        <ele>62.130943</ele>
        <time>2020-09-06T20:14:51.169Z</time>
      </trkpt>
      <trkpt lat="48.67789" lon="-3.40807">
        <ele>62.051887</ele>
        <time>2020-09-06T20:14:54.357Z</time>
      </trkpt>
      <trkpt lat="48.67821" lon="-3.40797">
        <ele>61.813969</ele>
        <time>2020-09-06T20:15:03.459Z</time>
      </trkpt>
      <trkpt lat="48.67835" lon="-3.40807">
        <ele>61.700727</ele>
        <time>2020-09-06T20:15:07.567Z</time>
      </trkpt>
      <trkpt lat="48.67838" lon="-3.40823">
        <ele>61.620152</ele>
        <time>2020-09-06T20:15:10.512Z</time>
      </trkpt>
      <trkpt lat="48.67817" lon="-3.40904">
        <ele>59.974993</ele>
        <time>2020-09-06T20:15:25.320Z</time>
      </trkpt>
      <trkpt lat="48.67821" lon="-3.4092">
        <ele>59.544231</ele>
        <time>2020-09-06T20:15:28.228Z</time>
      </trkpt>
      <trkpt lat="48.67827" lon="-3.40939">
        <ele>59.02777</ele>
        <time>2020-09-06T20:15:31.903Z</time>
      </trkpt>
      <trkpt lat="48.67823" lon="-3.4097">
        <ele>58.250451</ele>
        <time>2020-09-06T20:15:37.073Z</time>
      </trkpt>
      <trkpt lat="48.67819" lon="-3.41043">
        <ele>56.447126</ele>
        <time>2020-09-06T20:15:49.372Z</time>
      </trkpt>
      <trkpt lat="48.67835" lon="-3.41087">
        <ele>55.204046</ele>
        <time>2020-09-06T20:15:57.592Z</time>
      </trkpt>
      <trkpt lat="48.67847" lon="-3.41105">
        <ele>54.564984</ele>
        <time>2020-09-06T20:16:01.743Z</time>
      </trkpt>
      <trkpt lat="48.67877" lon="-3.41131">
        <ele>53.283047</ele>
        <time>2020-09-06T20:16:09.959Z</time>
      </trkpt>
      <trkpt lat="48.67896" lon="-3.41137">
        <ele>52.576963</ele>
        <time>2020-09-06T20:16:14.456Z</time>
      </trkpt>
      <trkpt lat="48.67918" lon="-3.41168">
        <ele>51.432575</ele>
        <time>2020-09-06T20:16:22.087Z</time>
      </trkpt>
      <trkpt lat="48.67956" lon="-3.41182">
        <ele>49.982067</ele>
        <time>2020-09-06T20:16:31.881Z</time>
      </trkpt>
      <trkpt lat="48.67981" lon="-3.41181">
        <ele>49.026082</ele>
        <time>2020-09-06T20:16:38.476Z</time>
      </trkpt>
      <trkpt lat="48.67992" lon="-3.41184">
        <ele>48.603247</ele>
        <time>2020-09-06T20:16:41.411Z</time>
      </trkpt>
      <trkpt lat="48.68009" lon="-3.4119">
        <ele>48.028023</ele>
        <time>2020-09-06T20:16:45.850Z</time>
      </trkpt>
      <trkpt lat="48.68017" lon="-3.41202">
        <ele>47.929377</ele>
        <time>2020-09-06T20:16:48.832Z</time>
      </trkpt>
      <trkpt lat="48.68138" lon="-3.41248">
        <ele>46.811953</ele>
        <time>2020-09-06T20:17:24.593Z</time>
      </trkpt>
      <trkpt lat="48.68149" lon="-3.41265">
        <ele>46.66839</ele>
        <time>2020-09-06T20:17:29.714Z</time>
      </trkpt>
      <trkpt lat="48.68223" lon="-3.41304">
        <ele>47.892112</ele>
        <time>2020-09-06T20:18:00.590Z</time>
      </trkpt>
      <trkpt lat="48.68256" lon="-3.4134">
        <ele>49.036976</ele>
        <time>2020-09-06T20:18:19.089Z</time>
      </trkpt>
      <trkpt lat="48.68284" lon="-3.41353">
        <ele>49.860113</ele>
        <time>2020-09-06T20:18:33.183Z</time>
      </trkpt>
      <trkpt lat="48.68294" lon="-3.4135">
        <ele>50.144783</ele>
        <time>2020-09-06T20:18:38.370Z</time>
      </trkpt>
      <trkpt lat="48.68338" lon="-3.41365">
        <ele>51.398217</ele>
        <time>2020-09-06T20:19:01.518Z</time>
      </trkpt>
      <trkpt lat="48.68363" lon="-3.41391">
        <ele>52.221973</ele>
        <time>2020-09-06T20:19:19.455Z</time>
      </trkpt>
      <trkpt lat="48.68377" lon="-3.41395">
        <ele>52.615864</ele>
        <time>2020-09-06T20:19:26.499Z</time>
      </trkpt>
      <trkpt lat="48.68398" lon="-3.41385">
        <ele>53.206115</ele>
        <time>2020-09-06T20:19:38.694Z</time>
      </trkpt>
      <trkpt lat="48.68458" lon="-3.4139">
        <ele>54.856585</ele>
        <time>2020-09-06T20:20:06.954Z</time>
      </trkpt>
      <trkpt lat="48.68466" lon="-3.41385">
        <ele>55.083904</ele>
        <time>2020-09-06T20:20:11.129Z</time>
      </trkpt>
      <trkpt lat="48.68479" lon="-3.41391">
        <ele>55.444665</ele>
        <time>2020-09-06T20:20:16.220Z</time>
      </trkpt>
      <trkpt lat="48.68504" lon="-3.41383">
        <ele>56.156052</ele>
        <time>2020-09-06T20:20:27.937Z</time>
      </trkpt>
      <trkpt lat="48.68525" lon="-3.41404">
        <ele>55.678353</ele>
        <time>2020-09-06T20:20:34.869Z</time>
      </trkpt>
      <trkpt lat="48.68556" lon="-3.41444">
        <ele>54.04061</ele>
        <time>2020-09-06T20:20:46.503Z</time>
      </trkpt>
      <trkpt lat="48.68585" lon="-3.41447">
        <ele>52.865905</ele>
        <time>2020-09-06T20:20:53.605Z</time>
      </trkpt>
      <trkpt lat="48.68605" lon="-3.41456">
        <ele>52.026809</ele>
        <time>2020-09-06T20:20:58.847Z</time>
      </trkpt>
      <trkpt lat="48.68624" lon="-3.41456">
        <ele>51.256657</ele>
        <time>2020-09-06T20:21:03.182Z</time>
      </trkpt>
      <trkpt lat="48.68629" lon="-3.41443">
        <ele>50.85845</ele>
        <time>2020-09-06T20:21:05.754Z</time>
      </trkpt>
      <trkpt lat="48.68638" lon="-3.41439">
        <ele>50.472507</ele>
        <time>2020-09-06T20:21:07.915Z</time>
      </trkpt>
      <trkpt lat="48.68644" lon="-3.41437">
        <ele>50.233957</ele>
        <time>2020-09-06T20:21:09.086Z</time>
      </trkpt>
      <trkpt lat="48.68658" lon="-3.41444">
        <ele>49.604679</ele>
        <time>2020-09-06T20:21:12.881Z</time>
      </trkpt>
      <trkpt lat="48.68668" lon="-3.41471">
        <ele>48.632146</ele>
        <time>2020-09-06T20:21:17.304Z</time>
      </trkpt>
      <trkpt lat="48.6867" lon="-3.415">
        <ele>47.505648</ele>
        <time>2020-09-06T20:21:22.015Z</time>
      </trkpt>
      <trkpt lat="48.68656" lon="-3.41576">
        <ele>44.482767</ele>
        <time>2020-09-06T20:21:33.656Z</time>
      </trkpt>
      <trkpt lat="48.68679" lon="-3.41589">
        <ele>43.032445</ele>
        <time>2020-09-06T20:21:37.199Z</time>
      </trkpt>
      <trkpt lat="48.68701" lon="-3.41597">
        <ele>41.732316</ele>
        <time>2020-09-06T20:21:40.099Z</time>
      </trkpt>
      <trkpt lat="48.68721" lon="-3.41596">
        <ele>40.521852</ele>
        <time>2020-09-06T20:21:43.081Z</time>
      </trkpt>
      <trkpt lat="48.68727" lon="-3.41608">
        <ele>39.955402</ele>
        <time>2020-09-06T20:21:45.356Z</time>
      </trkpt>
      <trkpt lat="48.68793" lon="-3.41714">
        <ele>36.641512</ele>
        <time>2020-09-06T20:22:10.197Z</time>
      </trkpt>
      <trkpt lat="48.68814" lon="-3.41766">
        <ele>35.562214</ele>
        <time>2020-09-06T20:22:21.434Z</time>
      </trkpt>
      <trkpt lat="48.68875" lon="-3.41826">
        <ele>33.703406</ele>
        <time>2020-09-06T20:22:41.478Z</time>
      </trkpt>
      <trkpt lat="48.68981" lon="-3.41969">
        <ele>31.570289</ele>
        <time>2020-09-06T20:23:20.270Z</time>
      </trkpt>
      <trkpt lat="48.68995" lon="-3.41996">
        <ele>31.236411</ele>
        <time>2020-09-06T20:23:26.624Z</time>
      </trkpt>
      <trkpt lat="48.6902" lon="-3.42044">
        <ele>32.186697</ele>
        <time>2020-09-06T20:23:40.635Z</time>
      </trkpt>
      <trkpt lat="48.69035" lon="-3.42087">
        <ele>33.307502</ele>
        <time>2020-09-06T20:23:53.807Z</time>
      </trkpt>
      <trkpt lat="48.69062" lon="-3.42126">
        <ele>34.597697</ele>
        <time>2020-09-06T20:24:10.399Z</time>
      </trkpt>
      <trkpt lat="48.69068" lon="-3.42129">
        <ele>34.84678</ele>
        <time>2020-09-06T20:24:14.061Z</time>
      </trkpt>
      <trkpt lat="48.69097" lon="-3.42106">
        <ele>35.974053</ele>
        <time>2020-09-06T20:24:32.752Z</time>
      </trkpt>
      <trkpt lat="48.69145" lon="-3.42086">
        <ele>38.231075</ele>
        <time>2020-09-06T20:25:06.063Z</time>
      </trkpt>
      <trkpt lat="48.69145" lon="-3.42086">
        <ele>38.231075</ele>
        <time>2020-09-06T20:25:06.080Z</time>
      </trkpt>
      <trkpt lat="48.69145" lon="-3.42086">
        <ele>38.231075</ele>
        <time>2020-09-06T20:25:06.278Z</time>
      </trkpt>
      <trkpt lat="48.69124" lon="-3.42062">
        <ele>40.578468</ele>
        <time>2020-09-06T20:25:21.346Z</time>
      </trkpt>
      <trkpt lat="48.69097" lon="-3.42024">
        <ele>43.864612</ele>
        <time>2020-09-06T20:25:45.245Z</time>
      </trkpt>
      <trkpt lat="48.69083" lon="-3.41989">
        <ele>46.319001</ele>
        <time>2020-09-06T20:26:05.404Z</time>
      </trkpt>
      <trkpt lat="48.69046" lon="-3.41852">
        <ele>54.890411</ele>
        <time>2020-09-06T20:27:12.033Z</time>
      </trkpt>
      <trkpt lat="48.69044" lon="-3.41804">
        <ele>57.492026</ele>
        <time>2020-09-06T20:27:32.761Z</time>
      </trkpt>
      <trkpt lat="48.69051" lon="-3.41823">
        <ele>58.685358</ele>
        <time>2020-09-06T20:27:42.557Z</time>
      </trkpt>
      <trkpt lat="48.69086" lon="-3.41877">
        <ele>62.818845</ele>
        <time>2020-09-06T20:28:10.929Z</time>
      </trkpt>
      <trkpt lat="48.69117" lon="-3.41891">
        <ele>65.505498</ele>
        <time>2020-09-06T20:28:31.951Z</time>
      </trkpt>
      <trkpt lat="48.6914" lon="-3.41887">
        <ele>67.351216</ele>
        <time>2020-09-06T20:28:46.169Z</time>
      </trkpt>
      <trkpt lat="48.69158" lon="-3.41875">
        <ele>68.776286</ele>
        <time>2020-09-06T20:28:57.456Z</time>
      </trkpt>
      <trkpt lat="48.69189" lon="-3.41818">
        <ele>71.479988</ele>
        <time>2020-09-06T20:29:23.110Z</time>
      </trkpt>
      <trkpt lat="48.69195" lon="-3.41816">
        <ele>71.826187</ele>
        <time>2020-09-06T20:29:26.043Z</time>
      </trkpt>
      <trkpt lat="48.6921" lon="-3.41827">
        <ele>72.730351</ele>
        <time>2020-09-06T20:29:32.875Z</time>
      </trkpt>
      <trkpt lat="48.69222" lon="-3.41839">
        <ele>73.510837</ele>
        <time>2020-09-06T20:29:40.464Z</time>
      </trkpt>
      <trkpt lat="48.69232" lon="-3.41829">
        <ele>74.167812</ele>
        <time>2020-09-06T20:29:47.186Z</time>
      </trkpt>
      <trkpt lat="48.6925" lon="-3.418">
        <ele>75.637277</ele>
        <time>2020-09-06T20:30:02.348Z</time>
      </trkpt>
      <trkpt lat="48.69269" lon="-3.41755">
        <ele>77.574148</ele>
        <time>2020-09-06T20:30:21.432Z</time>
      </trkpt>
      <trkpt lat="48.69282" lon="-3.41647">
        <ele>79.236458</ele>
        <time>2020-09-06T20:30:58.135Z</time>
      </trkpt>
      <trkpt lat="48.69292" lon="-3.41609">
        <ele>79.680902</ele>
        <time>2020-09-06T20:31:09.137Z</time>
      </trkpt>
      <trkpt lat="48.69508" lon="-3.41684">
        <ele>80.185459</ele>
        <time>2020-09-06T20:32:19.593Z</time>
      </trkpt>
      <trkpt lat="48.69517" lon="-3.41678">
        <ele>80.108791</ele>
        <time>2020-09-06T20:32:22.274Z</time>
      </trkpt>
      <trkpt lat="48.69545" lon="-3.41632">
        <ele>79.782827</ele>
        <time>2020-09-06T20:32:33.021Z</time>
      </trkpt>
      <trkpt lat="48.69558" lon="-3.41592">
        <ele>79.100478</ele>
        <time>2020-09-06T20:32:41.296Z</time>
      </trkpt>
      <trkpt lat="48.69561" lon="-3.41597">
        <ele>78.995659</ele>
        <time>2020-09-06T20:32:41.904Z</time>
      </trkpt>
      <trkpt lat="48.69586" lon="-3.41626">
        <ele>78.271256</ele>
        <time>2020-09-06T20:32:47.133Z</time>
      </trkpt>
      <trkpt lat="48.69591" lon="-3.41628">
        <ele>78.165968</ele>
        <time>2020-09-06T20:32:47.752Z</time>
      </trkpt>
      <trkpt lat="48.69593" lon="-3.4163">
        <ele>78.096652</ele>
        <time>2020-09-06T20:32:48.203Z</time>
      </trkpt>
      <trkpt lat="48.69601" lon="-3.4163">
        <ele>77.933894</ele>
        <time>2020-09-06T20:32:49.445Z</time>
      </trkpt>
      <trkpt lat="48.69606" lon="-3.41628">
        <ele>77.817354</ele>
        <time>2020-09-06T20:32:50.246Z</time>
      </trkpt>
      <trkpt lat="48.69612" lon="-3.41627">
        <ele>77.657588</ele>
        <time>2020-09-06T20:32:51.393Z</time>
      </trkpt>
      <trkpt lat="48.69623" lon="-3.41624">
        <ele>77.415489</ele>
        <time>2020-09-06T20:32:53.083Z</time>
      </trkpt>
      <trkpt lat="48.69641" lon="-3.41609">
        <ele>76.944643</ele>
        <time>2020-09-06T20:32:56.263Z</time>
      </trkpt>
      <trkpt lat="48.69655" lon="-3.41592">
        <ele>76.527007</ele>
        <time>2020-09-06T20:32:59.088Z</time>
      </trkpt>
      <trkpt lat="48.69697" lon="-3.41466">
        <ele>75.759527</ele>
        <time>2020-09-06T20:33:14.791Z</time>
      </trkpt>
      <trkpt lat="48.69717" lon="-3.41421">
        <ele>75.820882</ele>
        <time>2020-09-06T20:33:22.625Z</time>
      </trkpt>
      <trkpt lat="48.69788" lon="-3.41398">
        <ele>75.94479</ele>
        <time>2020-09-06T20:33:41.830Z</time>
      </trkpt>
      <trkpt lat="48.698" lon="-3.41384">
        <ele>75.971141</ele>
        <time>2020-09-06T20:33:45.856Z</time>
      </trkpt>
      <trkpt lat="48.69803" lon="-3.41374">
        <ele>76.062421</ele>
        <time>2020-09-06T20:33:47.917Z</time>
      </trkpt>
      <trkpt lat="48.69808" lon="-3.41361">
        <ele>76.202333</ele>
        <time>2020-09-06T20:33:51.458Z</time>
      </trkpt>
      <trkpt lat="48.69838" lon="-3.41216">
        <ele>77.612484</ele>
        <time>2020-09-06T20:34:20.702Z</time>
      </trkpt>
      <trkpt lat="48.6984" lon="-3.412">
        <ele>77.761614</ele>
        <time>2020-09-06T20:34:24.179Z</time>
      </trkpt>
      <trkpt lat="48.69849" lon="-3.41182">
        <ele>77.979208</ele>
        <time>2020-09-06T20:34:28.031Z</time>
      </trkpt>
      <trkpt lat="48.69855" lon="-3.41166">
        <ele>78.146833</ele>
        <time>2020-09-06T20:34:31.167Z</time>
      </trkpt>
      <trkpt lat="48.6986" lon="-3.41138">
        <ele>78.41483</ele>
        <time>2020-09-06T20:34:36.374Z</time>
      </trkpt>
      <trkpt lat="48.69896" lon="-3.41113">
        <ele>78.163831</ele>
        <time>2020-09-06T20:34:44.656Z</time>
      </trkpt>
      <trkpt lat="48.69986" lon="-3.4107">
        <ele>77.175796</ele>
        <time>2020-09-06T20:35:01.983Z</time>
      </trkpt>
      <trkpt lat="48.70043" lon="-3.41023">
        <ele>76.318021</ele>
        <time>2020-09-06T20:35:12.182Z</time>
      </trkpt>
      <trkpt lat="48.70089" lon="-3.41016">
        <ele>75.150108</ele>
        <time>2020-09-06T20:35:19.369Z</time>
      </trkpt>
      <trkpt lat="48.70155" lon="-3.40995">
        <ele>73.442445</ele>
        <time>2020-09-06T20:35:30.066Z</time>
      </trkpt>
      <trkpt lat="48.70173" lon="-3.40993">
        <ele>72.991598</ele>
        <time>2020-09-06T20:35:32.853Z</time>
      </trkpt>
      <trkpt lat="48.70178" lon="-3.40992">
        <ele>72.882729</ele>
        <time>2020-09-06T20:35:33.543Z</time>
      </trkpt>
      <trkpt lat="48.70199" lon="-3.40992">
        <ele>72.330572</ele>
        <time>2020-09-06T20:35:37.149Z</time>
      </trkpt>
      <trkpt lat="48.70231" lon="-3.40991">
        <ele>71.657642</ele>
        <time>2020-09-06T20:35:42.268Z</time>
      </trkpt>
      <trkpt lat="48.70248" lon="-3.40991">
        <ele>71.316237</ele>
        <time>2020-09-06T20:35:46.841Z</time>
      </trkpt>
      <trkpt lat="48.70273" lon="-3.40986">
        <ele>70.800968</ele>
        <time>2020-09-06T20:35:53.836Z</time>
      </trkpt>
      <trkpt lat="48.70353" lon="-3.40992">
        <ele>69.194648</ele>
        <time>2020-09-06T20:36:15.832Z</time>
      </trkpt>
      <trkpt lat="48.70391" lon="-3.40988">
        <ele>68.412232</ele>
        <time>2020-09-06T20:36:26.628Z</time>
      </trkpt>
      <trkpt lat="48.70427" lon="-3.40988">
        <ele>67.607236</ele>
        <time>2020-09-06T20:36:51.229Z</time>
      </trkpt>
      <trkpt lat="48.70441" lon="-3.40988">
        <ele>67.284272</ele>
        <time>2020-09-06T20:37:01.088Z</time>
      </trkpt>
      <trkpt lat="48.70482" lon="-3.40989">
        <ele>66.351759</ele>
        <time>2020-09-06T20:37:29.563Z</time>
      </trkpt>
      <trkpt lat="48.70554" lon="-3.4101">
        <ele>64.680804</ele>
        <time>2020-09-06T20:38:20.671Z</time>
      </trkpt>
      <trkpt lat="48.70662" lon="-3.41017">
        <ele>61.241421</ele>
        <time>2020-09-06T20:39:35.562Z</time>
      </trkpt>
      <trkpt lat="48.70694" lon="-3.41013">
        <ele>60.157781</ele>
        <time>2020-09-06T20:39:58.300Z</time>
      </trkpt>
      <trkpt lat="48.70703" lon="-3.41019">
        <ele>59.853883</ele>
        <time>2020-09-06T20:40:00.620Z</time>
      </trkpt>
      <trkpt lat="48.70753" lon="-3.41028">
        <ele>58.115583</ele>
        <time>2020-09-06T20:40:13.116Z</time>
      </trkpt>
      <trkpt lat="48.70787" lon="-3.41053">
        <ele>56.550472</ele>
        <time>2020-09-06T20:40:22.363Z</time>
      </trkpt>
      <trkpt lat="48.7079" lon="-3.41061">
        <ele>56.305624</ele>
        <time>2020-09-06T20:40:23.665Z</time>
      </trkpt>
      <trkpt lat="48.70794" lon="-3.41058">
        <ele>56.089612</ele>
        <time>2020-09-06T20:40:24.899Z</time>
      </trkpt>
      <trkpt lat="48.70817" lon="-3.41048">
        <ele>55.115891</ele>
        <time>2020-09-06T20:40:30.913Z</time>
      </trkpt>
      <trkpt lat="48.70834" lon="-3.41023">
        <ele>54.140894</ele>
        <time>2020-09-06T20:40:36.584Z</time>
      </trkpt>
      <trkpt lat="48.7084" lon="-3.41026">
        <ele>53.903028</ele>
        <time>2020-09-06T20:40:40.607Z</time>
      </trkpt>
      <trkpt lat="48.70856" lon="-3.41036">
        <ele>53.182664</ele>
        <time>2020-09-06T20:40:44.652Z</time>
      </trkpt>
      <trkpt lat="48.70895" lon="-3.41039">
        <ele>51.549123</ele>
        <time>2020-09-06T20:40:54.848Z</time>
      </trkpt>
      <trkpt lat="48.70936" lon="-3.41083">
        <ele>51.156324</ele>
        <time>2020-09-06T20:41:08.145Z</time>
      </trkpt>
      <trkpt lat="48.70981" lon="-3.41066">
        <ele>51.306548</ele>
        <time>2020-09-06T20:41:22.121Z</time>
      </trkpt>
      <trkpt lat="48.70993" lon="-3.4108">
        <ele>51.355178</ele>
        <time>2020-09-06T20:41:27.391Z</time>
      </trkpt>
      <trkpt lat="48.70999" lon="-3.41104">
        <ele>51.410732</ele>
        <time>2020-09-06T20:41:34.598Z</time>
      </trkpt>
      <trkpt lat="48.70994" lon="-3.41116">
        <ele>51.439409</ele>
        <time>2020-09-06T20:41:37.439Z</time>
      </trkpt>
      <trkpt lat="48.70991" lon="-3.41192">
        <ele>51.601687</ele>
        <time>2020-09-06T20:41:54.525Z</time>
      </trkpt>
      <trkpt lat="48.70982" lon="-3.4122">
        <ele>52.025901</ele>
        <time>2020-09-06T20:42:01.671Z</time>
      </trkpt>
      <trkpt lat="48.70977" lon="-3.41227">
        <ele>52.189156</ele>
        <time>2020-09-06T20:42:04.245Z</time>
      </trkpt>
      <trkpt lat="48.70985" lon="-3.41253">
        <ele>52.652339</ele>
        <time>2020-09-06T20:42:11.311Z</time>
      </trkpt>
      <trkpt lat="48.71049" lon="-3.41414">
        <ele>55.712755</ele>
        <time>2020-09-06T20:42:54.411Z</time>
      </trkpt>
      <trkpt lat="48.71089" lon="-3.41494">
        <ele>55.420064</ele>
        <time>2020-09-06T20:43:08.871Z</time>
      </trkpt>
      <trkpt lat="48.71116" lon="-3.41527">
        <ele>55.00366</ele>
        <time>2020-09-06T20:43:14.863Z</time>
      </trkpt>
      <trkpt lat="48.7118" lon="-3.41547">
        <ele>54.218667</ele>
        <time>2020-09-06T20:43:25.474Z</time>
      </trkpt>
      <trkpt lat="48.71239" lon="-3.41639">
        <ele>52.036535</ele>
        <time>2020-09-06T20:43:38.611Z</time>
      </trkpt>
      <trkpt lat="48.71328" lon="-3.41714">
        <ele>48.777263</ele>
        <time>2020-09-06T20:43:53.937Z</time>
      </trkpt>
      <trkpt lat="48.71344" lon="-3.41721">
        <ele>48.241552</ele>
        <time>2020-09-06T20:43:56.520Z</time>
      </trkpt>
      <trkpt lat="48.7135" lon="-3.41735">
        <ele>47.937642</ele>
        <time>2020-09-06T20:43:58.143Z</time>
      </trkpt>
      <trkpt lat="48.71382" lon="-3.41792">
        <ele>46.705642</ele>
        <time>2020-09-06T20:44:05.847Z</time>
      </trkpt>
      <trkpt lat="48.71392" lon="-3.41883">
        <ele>45.199205</ele>
        <time>2020-09-06T20:44:15.452Z</time>
      </trkpt>
      <trkpt lat="48.71398" lon="-3.41896">
        <ele>44.940952</ele>
        <time>2020-09-06T20:44:17.013Z</time>
      </trkpt>
      <trkpt lat="48.71418" lon="-3.41915">
        <ele>44.351874</ele>
        <time>2020-09-06T20:44:20.691Z</time>
      </trkpt>
      <trkpt lat="48.71492" lon="-3.41957">
        <ele>43.689972</ele>
        <time>2020-09-06T20:44:33.722Z</time>
      </trkpt>
      <trkpt lat="48.71531" lon="-3.41989">
        <ele>43.744809</ele>
        <time>2020-09-06T20:44:41.671Z</time>
      </trkpt>
      <trkpt lat="48.71546" lon="-3.41963">
        <ele>43.772219</ele>
        <time>2020-09-06T20:44:47.218Z</time>
      </trkpt>
      <trkpt lat="48.71577" lon="-3.41923">
        <ele>43.82161</ele>
        <time>2020-09-06T20:44:57.496Z</time>
      </trkpt>
      <trkpt lat="48.71602" lon="-3.41915">
        <ele>43.937882</ele>
        <time>2020-09-06T20:45:04.554Z</time>
      </trkpt>
      <trkpt lat="48.71637" lon="-3.4192">
        <ele>45.128561</ele>
        <time>2020-09-06T20:45:15.638Z</time>
      </trkpt>
      <trkpt lat="48.71668" lon="-3.41909">
        <ele>46.163988</ele>
        <time>2020-09-06T20:45:26.508Z</time>
      </trkpt>
      <trkpt lat="48.71696" lon="-3.41886">
        <ele>47.22592</ele>
        <time>2020-09-06T20:45:38.847Z</time>
      </trkpt>
      <trkpt lat="48.71706" lon="-3.41867">
        <ele>47.75413</ele>
        <time>2020-09-06T20:45:45.094Z</time>
      </trkpt>
      <trkpt lat="48.7172" lon="-3.41795">
        <ele>49.400174</ele>
        <time>2020-09-06T20:46:05.547Z</time>
      </trkpt>
      <trkpt lat="48.71734" lon="-3.4172">
        <ele>51.561914</ele>
        <time>2020-09-06T20:46:27.680Z</time>
      </trkpt>
      <trkpt lat="48.71743" lon="-3.41697">
        <ele>52.344673</ele>
        <time>2020-09-06T20:46:35.286Z</time>
      </trkpt>
      <trkpt lat="48.71783" lon="-3.41644">
        <ele>54.697797</ele>
        <time>2020-09-06T20:46:58.573Z</time>
      </trkpt>
      <trkpt lat="48.71795" lon="-3.41613">
        <ele>55.759755</ele>
        <time>2020-09-06T20:47:08.891Z</time>
      </trkpt>
      <trkpt lat="48.71796" lon="-3.41583">
        <ele>56.633937</ele>
        <time>2020-09-06T20:47:18.164Z</time>
      </trkpt>
      <trkpt lat="48.71774" lon="-3.41447">
        <ele>59.999861</ele>
        <time>2020-09-06T20:47:54.099Z</time>
      </trkpt>
      <trkpt lat="48.71771" lon="-3.41432">
        <ele>60.334241</ele>
        <time>2020-09-06T20:47:58.342Z</time>
      </trkpt>
      <trkpt lat="48.71764" lon="-3.41396">
        <ele>61.158763</ele>
        <time>2020-09-06T20:48:06.045Z</time>
      </trkpt>
      <trkpt lat="48.71763" lon="-3.41384">
        <ele>61.425001</ele>
        <time>2020-09-06T20:48:09.025Z</time>
      </trkpt>
      <trkpt lat="48.71763" lon="-3.41375">
        <ele>61.628071</ele>
        <time>2020-09-06T20:48:11.391Z</time>
      </trkpt>
      <trkpt lat="48.71763" lon="-3.41365">
        <ele>61.83769</ele>
        <time>2020-09-06T20:48:13.239Z</time>
      </trkpt>
      <trkpt lat="48.71764" lon="-3.41351">
        <ele>62.142316</ele>
        <time>2020-09-06T20:48:15.826Z</time>
      </trkpt>
      <trkpt lat="48.71764" lon="-3.41347">
        <ele>62.237643</ele>
        <time>2020-09-06T20:48:16.710Z</time>
      </trkpt>
      <trkpt lat="48.71763" lon="-3.41342">
        <ele>62.361093</ele>
        <time>2020-09-06T20:48:17.893Z</time>
      </trkpt>
      <trkpt lat="48.71763" lon="-3.41336">
        <ele>62.485715</ele>
        <time>2020-09-06T20:48:19.425Z</time>
      </trkpt>
      <trkpt lat="48.71764" lon="-3.41331">
        <ele>62.595921</ele>
        <time>2020-09-06T20:48:20.718Z</time>
      </trkpt>
      <trkpt lat="48.71771" lon="-3.41321">
        <ele>62.918139</ele>
        <time>2020-09-06T20:48:24.084Z</time>
      </trkpt>
      <trkpt lat="48.71774" lon="-3.4132">
        <ele>63.029501</ele>
        <time>2020-09-06T20:48:24.985Z</time>
      </trkpt>
      <trkpt lat="48.71778" lon="-3.4132">
        <ele>63.155928</ele>
        <time>2020-09-06T20:48:25.975Z</time>
      </trkpt>
      <trkpt lat="48.71781" lon="-3.41323">
        <ele>63.280041</ele>
        <time>2020-09-06T20:48:27.135Z</time>
      </trkpt>
      <trkpt lat="48.71784" lon="-3.41327">
        <ele>63.407366</ele>
        <time>2020-09-06T20:48:28.261Z</time>
      </trkpt>
      <trkpt lat="48.71788" lon="-3.41331">
        <ele>63.56839</ele>
        <time>2020-09-06T20:48:29.935Z</time>
      </trkpt>
      <trkpt lat="48.71793" lon="-3.41336">
        <ele>63.773347</ele>
        <time>2020-09-06T20:48:32.734Z</time>
      </trkpt>
      <trkpt lat="48.718" lon="-3.41341">
        <ele>64.066104</ele>
        <time>2020-09-06T20:48:35.965Z</time>
      </trkpt>
      <trkpt lat="48.71815" lon="-3.41342">
        <ele>64.617839</ele>
        <time>2020-09-06T20:48:40.655Z</time>
      </trkpt>
      <trkpt lat="48.71823" lon="-3.4134">
        <ele>64.924604</ele>
        <time>2020-09-06T20:48:43.622Z</time>
      </trkpt>
      <trkpt lat="48.71827" lon="-3.41339">
        <ele>65.097137</ele>
        <time>2020-09-06T20:48:45.845Z</time>
      </trkpt>
      <trkpt lat="48.71857" lon="-3.41322">
        <ele>66.298575</ele>
        <time>2020-09-06T20:48:58.072Z</time>
      </trkpt>
      <trkpt lat="48.7186" lon="-3.41317">
        <ele>66.466894</ele>
        <time>2020-09-06T20:48:59.961Z</time>
      </trkpt>
      <trkpt lat="48.71867" lon="-3.41309">
        <ele>66.816803</ele>
        <time>2020-09-06T20:49:03.843Z</time>
      </trkpt>
      <trkpt lat="48.71873" lon="-3.41298">
        <ele>67.175825</ele>
        <time>2020-09-06T20:49:07.226Z</time>
      </trkpt>
      <trkpt lat="48.71874" lon="-3.41292">
        <ele>67.330493</ele>
        <time>2020-09-06T20:49:08.800Z</time>
      </trkpt>
      <trkpt lat="48.71876" lon="-3.41287">
        <ele>67.48397</ele>
        <time>2020-09-06T20:49:10.355Z</time>
      </trkpt>
      <trkpt lat="48.71879" lon="-3.41283">
        <ele>67.62574</ele>
        <time>2020-09-06T20:49:11.886Z</time>
      </trkpt>
      <trkpt lat="48.71882" lon="-3.4128">
        <ele>67.770736</ele>
        <time>2020-09-06T20:49:13.667Z</time>
      </trkpt>
      <trkpt lat="48.71885" lon="-3.41279">
        <ele>67.902886</ele>
        <time>2020-09-06T20:49:15.183Z</time>
      </trkpt>
      <trkpt lat="48.71889" lon="-3.41279">
        <ele>68.036138</ele>
        <time>2020-09-06T20:49:16.488Z</time>
      </trkpt>
      <trkpt lat="48.71892" lon="-3.41281">
        <ele>68.169451</ele>
        <time>2020-09-06T20:49:17.890Z</time>
      </trkpt>
      <trkpt lat="48.71896" lon="-3.41285">
        <ele>68.334573</ele>
        <time>2020-09-06T20:49:19.480Z</time>
      </trkpt>
      <trkpt lat="48.71912" lon="-3.4129">
        <ele>68.965615</ele>
        <time>2020-09-06T20:49:25.951Z</time>
      </trkpt>
      <trkpt lat="48.71937" lon="-3.41279">
        <ele>69.955059</ele>
        <time>2020-09-06T20:49:36.611Z</time>
      </trkpt>
      <trkpt lat="48.71968" lon="-3.41262">
        <ele>71.09403</ele>
        <time>2020-09-06T20:49:50.686Z</time>
      </trkpt>
      <trkpt lat="48.71988" lon="-3.41242">
        <ele>71.798861</ele>
        <time>2020-09-06T20:50:01.194Z</time>
      </trkpt>
      <trkpt lat="48.72015" lon="-3.41209">
        <ele>72.809056</ele>
        <time>2020-09-06T20:50:15.316Z</time>
      </trkpt>
      <trkpt lat="48.72035" lon="-3.41186">
        <ele>73.546482</ele>
        <time>2020-09-06T20:50:24.570Z</time>
      </trkpt>
      <trkpt lat="48.72083" lon="-3.41147">
        <ele>75.140937</ele>
        <time>2020-09-06T20:50:42.179Z</time>
      </trkpt>
      <trkpt lat="48.72105" lon="-3.41151">
        <ele>75.787397</ele>
        <time>2020-09-06T20:50:47.773Z</time>
      </trkpt>
      <trkpt lat="48.72114" lon="-3.41159">
        <ele>75.921598</ele>
        <time>2020-09-06T20:50:50.435Z</time>
      </trkpt>
      <trkpt lat="48.72161" lon="-3.41209">
        <ele>76.104851</ele>
        <time>2020-09-06T20:51:02.607Z</time>
      </trkpt>
      <trkpt lat="48.72177" lon="-3.41248">
        <ele>76.199806</ele>
        <time>2020-09-06T20:51:08.572Z</time>
      </trkpt>
      <trkpt lat="48.72186" lon="-3.41257">
        <ele>76.234901</ele>
        <time>2020-09-06T20:51:10.589Z</time>
      </trkpt>
      <trkpt lat="48.72189" lon="-3.41261">
        <ele>76.248209</ele>
        <time>2020-09-06T20:51:11.392Z</time>
      </trkpt>
      <trkpt lat="48.72235" lon="-3.41269">
        <ele>76.393099</ele>
        <time>2020-09-06T20:51:20.797Z</time>
      </trkpt>
      <trkpt lat="48.72298" lon="-3.41306">
        <ele>76.981876</ele>
        <time>2020-09-06T20:51:35.442Z</time>
      </trkpt>
      <trkpt lat="48.72359" lon="-3.41332">
        <ele>77.729553</ele>
        <time>2020-09-06T20:51:52.259Z</time>
      </trkpt>
      <trkpt lat="48.72407" lon="-3.41345">
        <ele>78.307283</ele>
        <time>2020-09-06T20:52:06.483Z</time>
      </trkpt>
      <trkpt lat="48.72502" lon="-3.41355">
        <ele>79.826148</ele>
        <time>2020-09-06T20:52:34.584Z</time>
      </trkpt>
      <trkpt lat="48.72614" lon="-3.414">
        <ele>81.770493</ele>
        <time>2020-09-06T20:53:08.478Z</time>
      </trkpt>
      <trkpt lat="48.72688" lon="-3.41439">
        <ele>82.254815</ele>
        <time>2020-09-06T20:53:28.459Z</time>
      </trkpt>
      <trkpt lat="48.72694" lon="-3.41361">
        <ele>82.573802</ele>
        <time>2020-09-06T20:53:40.052Z</time>
      </trkpt>
      <trkpt lat="48.72702" lon="-3.41356">
        <ele>82.626604</ele>
        <time>2020-09-06T20:53:41.681Z</time>
      </trkpt>
      <trkpt lat="48.7278" lon="-3.41352">
        <ele>82.31028</ele>
        <time>2020-09-06T20:53:55.880Z</time>
      </trkpt>
      <trkpt lat="48.72834" lon="-3.41377">
        <ele>81.603872</ele>
        <time>2020-09-06T20:54:05.203Z</time>
      </trkpt>
      <trkpt lat="48.72891" lon="-3.41414">
        <ele>80.82399</ele>
        <time>2020-09-06T20:54:15.015Z</time>
      </trkpt>
      <trkpt lat="48.7296" lon="-3.41418">
        <ele>79.528143</ele>
        <time>2020-09-06T20:54:25.673Z</time>
      </trkpt>
      <trkpt lat="48.72997" lon="-3.41411">
        <ele>78.732337</ele>
        <time>2020-09-06T20:54:31.490Z</time>
      </trkpt>
      <trkpt lat="48.73062" lon="-3.41378">
        <ele>77.285304</ele>
        <time>2020-09-06T20:54:42.031Z</time>
      </trkpt>
      <trkpt lat="48.73122" lon="-3.41364">
        <ele>75.833143</ele>
        <time>2020-09-06T20:54:51.168Z</time>
      </trkpt>
      <trkpt lat="48.73178" lon="-3.41325">
        <ele>74.249175</ele>
        <time>2020-09-06T20:55:00.429Z</time>
      </trkpt>
      <trkpt lat="48.73215" lon="-3.41318">
        <ele>73.292078</ele>
        <time>2020-09-06T20:55:05.999Z</time>
      </trkpt>
      <trkpt lat="48.73239" lon="-3.4131">
        <ele>72.663741</ele>
        <time>2020-09-06T20:55:09.580Z</time>
      </trkpt>
      <trkpt lat="48.73288" lon="-3.41304">
        <ele>71.16652</ele>
        <time>2020-09-06T20:55:16.823Z</time>
      </trkpt>
      <trkpt lat="48.73371" lon="-3.41314">
        <ele>68.395502</ele>
        <time>2020-09-06T20:55:28.714Z</time>
      </trkpt>
      <trkpt lat="48.73401" lon="-3.41303">
        <ele>67.370871</ele>
        <time>2020-09-06T20:55:33.106Z</time>
      </trkpt>
      <trkpt lat="48.73466" lon="-3.41259">
        <ele>64.97364</ele>
        <time>2020-09-06T20:55:43.168Z</time>
      </trkpt>
      <trkpt lat="48.73516" lon="-3.41263">
        <ele>63.269277</ele>
        <time>2020-09-06T20:55:50.169Z</time>
      </trkpt>
      <trkpt lat="48.73611" lon="-3.41247">
        <ele>59.967732</ele>
        <time>2020-09-06T20:56:03.894Z</time>
      </trkpt>
      <trkpt lat="48.73697" lon="-3.41258">
        <ele>57.369957</ele>
        <time>2020-09-06T20:56:16.222Z</time>
      </trkpt>
      <trkpt lat="48.73758" lon="-3.41239">
        <ele>55.486454</ele>
        <time>2020-09-06T20:56:25.286Z</time>
      </trkpt>
      <trkpt lat="48.73786" lon="-3.41225">
        <ele>54.587081</ele>
        <time>2020-09-06T20:56:29.663Z</time>
      </trkpt>
      <trkpt lat="48.73853" lon="-3.41184">
        <ele>53.068927</ele>
        <time>2020-09-06T20:56:40.446Z</time>
      </trkpt>
      <trkpt lat="48.7397" lon="-3.41074">
        <ele>50.644542</ele>
        <time>2020-09-06T20:57:02.088Z</time>
      </trkpt>
      <trkpt lat="48.73977" lon="-3.41048">
        <ele>50.553709</ele>
        <time>2020-09-06T20:57:05.200Z</time>
      </trkpt>
      <trkpt lat="48.7397" lon="-3.41002">
        <ele>50.395631</ele>
        <time>2020-09-06T20:57:10.836Z</time>
      </trkpt>
      <trkpt lat="48.7397" lon="-3.4098">
        <ele>50.323954</ele>
        <time>2020-09-06T20:57:13.426Z</time>
      </trkpt>
      <trkpt lat="48.7398" lon="-3.40958">
        <ele>50.237504</ele>
        <time>2020-09-06T20:57:16.696Z</time>
      </trkpt>
      <trkpt lat="48.74002" lon="-3.40932">
        <ele>50.096417</ele>
        <time>2020-09-06T20:57:22.046Z</time>
      </trkpt>
      <trkpt lat="48.74008" lon="-3.40914">
        <ele>50.031078</ele>
        <time>2020-09-06T20:57:24.634Z</time>
      </trkpt>
      <trkpt lat="48.74009" lon="-3.40904">
        <ele>49.998009</ele>
        <time>2020-09-06T20:57:25.889Z</time>
      </trkpt>
      <trkpt lat="48.74011" lon="-3.40867">
        <ele>49.926216</ele>
        <time>2020-09-06T20:57:31.215Z</time>
      </trkpt>
      <trkpt lat="48.74024" lon="-3.40818">
        <ele>50.177484</ele>
        <time>2020-09-06T20:57:38.978Z</time>
      </trkpt>
      <trkpt lat="48.74072" lon="-3.4075">
        <ele>50.647903</ele>
        <time>2020-09-06T20:57:54.333Z</time>
      </trkpt>
      <trkpt lat="48.74088" lon="-3.40713">
        <ele>50.857854</ele>
        <time>2020-09-06T20:58:01.316Z</time>
      </trkpt>
      <trkpt lat="48.7411" lon="-3.40584">
        <ele>51.439122</ele>
        <time>2020-09-06T20:58:21.331Z</time>
      </trkpt>
      <trkpt lat="48.74184" lon="-3.40305">
        <ele>52.715234</ele>
        <time>2020-09-06T20:59:04.985Z</time>
      </trkpt>
      <trkpt lat="48.74188" lon="-3.40294">
        <ele>52.778613</ele>
        <time>2020-09-06T20:59:06.819Z</time>
      </trkpt>
      <trkpt lat="48.74217" lon="-3.40312">
        <ele>53.00965</ele>
        <time>2020-09-06T20:59:14.405Z</time>
      </trkpt>
      <trkpt lat="48.74302" lon="-3.40364">
        <ele>53.706935</ele>
        <time>2020-09-06T20:59:37.358Z</time>
      </trkpt>
      <trkpt lat="48.74315" lon="-3.40368">
        <ele>53.807476</ele>
        <time>2020-09-06T20:59:40.392Z</time>
      </trkpt>
      <trkpt lat="48.74323" lon="-3.40364">
        <ele>53.873735</ele>
        <time>2020-09-06T20:59:42.335Z</time>
      </trkpt>
      <trkpt lat="48.74329" lon="-3.40339">
        <ele>54.013301</ele>
        <time>2020-09-06T20:59:46.720Z</time>
      </trkpt>
      <trkpt lat="48.74341" lon="-3.40186">
        <ele>54.820663</ele>
        <time>2020-09-06T21:00:11.222Z</time>
      </trkpt>
      <trkpt lat="48.74341" lon="-3.40178">
        <ele>54.866527</ele>
        <time>2020-09-06T21:00:12.590Z</time>
      </trkpt>
      <trkpt lat="48.7434" lon="-3.40173">
        <ele>54.890271</ele>
        <time>2020-09-06T21:00:13.219Z</time>
      </trkpt>
      <trkpt lat="48.7434" lon="-3.40158">
        <ele>54.972013</ele>
        <time>2020-09-06T21:00:15.527Z</time>
      </trkpt>
      <trkpt lat="48.74332" lon="-3.40104">
        <ele>55.322642</ele>
        <time>2020-09-06T21:00:24.174Z</time>
      </trkpt>
      <trkpt lat="48.74339" lon="-3.40102">
        <ele>55.397632</ele>
        <time>2020-09-06T21:00:26.053Z</time>
      </trkpt>
      <trkpt lat="48.74354" lon="-3.40099">
        <ele>55.556334</ele>
        <time>2020-09-06T21:00:29.536Z</time>
      </trkpt>
      <trkpt lat="48.7436" lon="-3.401">
        <ele>55.609482</ele>
        <time>2020-09-06T21:00:30.728Z</time>
      </trkpt>
      <trkpt lat="48.7436" lon="-3.40091">
        <ele>55.670865</ele>
        <time>2020-09-06T21:00:31.953Z</time>
      </trkpt>
      <trkpt lat="48.74381" lon="-3.40102">
        <ele>55.88944</ele>
        <time>2020-09-06T21:00:37.258Z</time>
      </trkpt>
      <trkpt lat="48.74385" lon="-3.40102">
        <ele>55.931017</ele>
        <time>2020-09-06T21:00:38.196Z</time>
      </trkpt>
      <trkpt lat="48.74378" lon="-3.40158">
        <ele>56.315777</ele>
        <time>2020-09-06T21:00:47.445Z</time>
      </trkpt>
      <trkpt lat="48.74352" lon="-3.40331">
        <ele>58.218409</ele>
        <time>2020-09-06T21:01:20.203Z</time>
      </trkpt>
      <trkpt lat="48.74352" lon="-3.40359">
        <ele>58.623269</ele>
        <time>2020-09-06T21:01:25.831Z</time>
      </trkpt>
      <trkpt lat="48.74367" lon="-3.40366">
        <ele>58.945475</ele>
        <time>2020-09-06T21:01:30.412Z</time>
      </trkpt>
      <trkpt lat="48.74452" lon="-3.40358">
        <ele>60.815729</ele>
        <time>2020-09-06T21:01:59.076Z</time>
      </trkpt>
      <trkpt lat="48.74472" lon="-3.40363">
        <ele>61.396708</ele>
        <time>2020-09-06T21:02:06.275Z</time>
      </trkpt>
      <trkpt lat="48.7452" lon="-3.404">
        <ele>62.921578</ele>
        <time>2020-09-06T21:02:25.504Z</time>
      </trkpt>
      <trkpt lat="48.74596" lon="-3.40478">
        <ele>65.547605</ele>
        <time>2020-09-06T21:02:57.564Z</time>
      </trkpt>
      <trkpt lat="48.74621" lon="-3.40497">
        <ele>66.240213</ele>
        <time>2020-09-06T21:03:06.817Z</time>
      </trkpt>
      <trkpt lat="48.74737" lon="-3.40552">
        <ele>68.978677</ele>
        <time>2020-09-06T21:03:44.876Z</time>
      </trkpt>
      <trkpt lat="48.74811" lon="-3.40576">
        <ele>70.675304</ele>
        <time>2020-09-06T21:04:07.661Z</time>
      </trkpt>
      <trkpt lat="48.74842" lon="-3.40598">
        <ele>71.426194</ele>
        <time>2020-09-06T21:04:18.030Z</time>
      </trkpt>
      <trkpt lat="48.74893" lon="-3.40661">
        <ele>72.879459</ele>
        <time>2020-09-06T21:04:38.355Z</time>
      </trkpt>
      <trkpt lat="48.74912" lon="-3.40698">
        <ele>73.558194</ele>
        <time>2020-09-06T21:04:48.126Z</time>
      </trkpt>
      <trkpt lat="48.74918" lon="-3.40721">
        <ele>73.934708</ele>
        <time>2020-09-06T21:04:53.822Z</time>
      </trkpt>
      <trkpt lat="48.74925" lon="-3.40811">
        <ele>75.466527</ele>
        <time>2020-09-06T21:05:13.745Z</time>
      </trkpt>
      <trkpt lat="48.74922" lon="-3.40831">
        <ele>75.811605</ele>
        <time>2020-09-06T21:05:18.302Z</time>
      </trkpt>
      <trkpt lat="48.74907" lon="-3.40873">
        <ele>76.624618</ele>
        <time>2020-09-06T21:05:28.699Z</time>
      </trkpt>
      <trkpt lat="48.74895" lon="-3.40906">
        <ele>77.271801</ele>
        <time>2020-09-06T21:05:36.926Z</time>
      </trkpt>
      <trkpt lat="48.74914" lon="-3.40918">
        <ele>77.818458</ele>
        <time>2020-09-06T21:05:43.969Z</time>
      </trkpt>
      <trkpt lat="48.75033" lon="-3.40997">
        <ele>80.958804</ele>
        <time>2020-09-06T21:06:27.233Z</time>
      </trkpt>
      <trkpt lat="48.75074" lon="-3.41012">
        <ele>81.96285</ele>
        <time>2020-09-06T21:06:40.314Z</time>
      </trkpt>
      <trkpt lat="48.7508" lon="-3.41012">
        <ele>82.10667</ele>
        <time>2020-09-06T21:06:42.635Z</time>
      </trkpt>
      <trkpt lat="48.75096" lon="-3.41015">
        <ele>82.506252</ele>
        <time>2020-09-06T21:06:47.611Z</time>
      </trkpt>
      <trkpt lat="48.75166" lon="-3.41017">
        <ele>83.334034</ele>
        <time>2020-09-06T21:07:08.330Z</time>
      </trkpt>
      <trkpt lat="48.75244" lon="-3.41033">
        <ele>84.033184</ele>
        <time>2020-09-06T21:07:27.327Z</time>
      </trkpt>
      <trkpt lat="48.75288" lon="-3.41044">
        <ele>84.430867</ele>
        <time>2020-09-06T21:07:36.104Z</time>
      </trkpt>
      <trkpt lat="48.75282" lon="-3.41098">
        <ele>84.495302</ele>
        <time>2020-09-06T21:07:42.660Z</time>
      </trkpt>
      <trkpt lat="48.75264" lon="-3.41148">
        <ele>84.559357</ele>
        <time>2020-09-06T21:07:49.821Z</time>
      </trkpt>
      <trkpt lat="48.75218" lon="-3.41237">
        <ele>84.683601</ele>
        <time>2020-09-06T21:08:04.323Z</time>
      </trkpt>
      <trkpt lat="48.75217" lon="-3.41239">
        <ele>84.687116</ele>
        <time>2020-09-06T21:08:04.614Z</time>
      </trkpt>
      <trkpt lat="48.75212" lon="-3.41252">
        <ele>84.702802</ele>
        <time>2020-09-06T21:08:06.181Z</time>
      </trkpt>
      <trkpt lat="48.75206" lon="-3.4127">
        <ele>84.724971</ele>
        <time>2020-09-06T21:08:09.773Z</time>
      </trkpt>
      <trkpt lat="48.75171" lon="-3.41482">
        <ele>86.37858</ele>
        <time>2020-09-06T21:08:47.695Z</time>
      </trkpt>
      <trkpt lat="48.75142" lon="-3.41735">
        <ele>88.27922</ele>
        <time>2020-09-06T21:09:30.129Z</time>
      </trkpt>
      <trkpt lat="48.75128" lon="-3.41784">
        <ele>88.667178</ele>
        <time>2020-09-06T21:09:38.257Z</time>
      </trkpt>
      <trkpt lat="48.751" lon="-3.41848">
        <ele>89.294933</ele>
        <time>2020-09-06T21:09:50.388Z</time>
      </trkpt>
      <trkpt lat="48.75094" lon="-3.41867">
        <ele>89.480648</ele>
        <time>2020-09-06T21:09:53.230Z</time>
      </trkpt>
      <trkpt lat="48.75102" lon="-3.41875">
        <ele>89.608166</ele>
        <time>2020-09-06T21:09:55.960Z</time>
      </trkpt>
      <trkpt lat="48.75123" lon="-3.41895">
        <ele>89.937315</ele>
        <time>2020-09-06T21:10:01.678Z</time>
      </trkpt>
      <trkpt lat="48.75135" lon="-3.41917">
        <ele>90.1903</ele>
        <time>2020-09-06T21:10:06.785Z</time>
      </trkpt>
      <trkpt lat="48.7514" lon="-3.41938">
        <ele>90.384174</ele>
        <time>2020-09-06T21:10:10.195Z</time>
      </trkpt>
      <trkpt lat="48.75146" lon="-3.42131">
        <ele>92.623535</ele>
        <time>2020-09-06T21:10:46.855Z</time>
      </trkpt>
      <trkpt lat="48.75195" lon="-3.42471">
        <ele>97.599091</ele>
        <time>2020-09-06T21:11:58.319Z</time>
      </trkpt>
      <trkpt lat="48.75201" lon="-3.42491">
        <ele>97.915155</ele>
        <time>2020-09-06T21:12:02.392Z</time>
      </trkpt>
      <trkpt lat="48.75204" lon="-3.42496">
        <ele>98.004047</ele>
        <time>2020-09-06T21:12:03.640Z</time>
      </trkpt>
      <trkpt lat="48.75214" lon="-3.42493">
        <ele>98.212954</ele>
        <time>2020-09-06T21:12:06.981Z</time>
      </trkpt>
      <trkpt lat="48.75252" lon="-3.42487">
        <ele>99.030357</ele>
        <time>2020-09-06T21:12:18.102Z</time>
      </trkpt>
      <trkpt lat="48.7547" lon="-3.4249">
        <ele>101.579188</ele>
        <time>2020-09-06T21:13:13.226Z</time>
      </trkpt>
      <trkpt lat="48.75553" lon="-3.42488">
        <ele>102.044547</ele>
        <time>2020-09-06T21:13:30.931Z</time>
      </trkpt>
      <trkpt lat="48.75583" lon="-3.42486">
        <ele>102.209746</ele>
        <time>2020-09-06T21:13:36.975Z</time>
      </trkpt>
      <trkpt lat="48.75692" lon="-3.42479">
        <ele>102.779884</ele>
        <time>2020-09-06T21:13:59.373Z</time>
      </trkpt>
      <trkpt lat="48.75726" lon="-3.42476">
        <ele>102.956061</ele>
        <time>2020-09-06T21:14:06.954Z</time>
      </trkpt>
      <trkpt lat="48.75781" lon="-3.4247">
        <ele>103.235034</ele>
        <time>2020-09-06T21:14:19.420Z</time>
      </trkpt>
      <trkpt lat="48.75812" lon="-3.42466">
        <ele>103.401137</ele>
        <time>2020-09-06T21:14:26.612Z</time>
      </trkpt>
      <trkpt lat="48.75835" lon="-3.42457">
        <ele>103.529403</ele>
        <time>2020-09-06T21:14:32.021Z</time>
      </trkpt>
      <trkpt lat="48.75864" lon="-3.42442">
        <ele>103.701292</ele>
        <time>2020-09-06T21:14:39.303Z</time>
      </trkpt>
      <trkpt lat="48.75894" lon="-3.42422">
        <ele>103.87679</ele>
        <time>2020-09-06T21:14:46.578Z</time>
      </trkpt>
      <trkpt lat="48.75962" lon="-3.42373">
        <ele>104.262318</ele>
        <time>2020-09-06T21:15:03.054Z</time>
      </trkpt>
      <trkpt lat="48.75969" lon="-3.42369">
        <ele>104.218558</ele>
        <time>2020-09-06T21:15:04.428Z</time>
      </trkpt>
      <trkpt lat="48.76103" lon="-3.42275">
        <ele>103.312684</ele>
        <time>2020-09-06T21:15:30.779Z</time>
      </trkpt>
      <trkpt lat="48.76118" lon="-3.42265">
        <ele>103.213837</ele>
        <time>2020-09-06T21:15:33.394Z</time>
      </trkpt>
      <trkpt lat="48.76208" lon="-3.42206">
        <ele>101.709744</ele>
        <time>2020-09-06T21:15:48.910Z</time>
      </trkpt>
      <trkpt lat="48.76219" lon="-3.422">
        <ele>101.511966</ele>
        <time>2020-09-06T21:15:50.847Z</time>
      </trkpt>
      <trkpt lat="48.76254" lon="-3.42193">
        <ele>100.957868</ele>
        <time>2020-09-06T21:15:56.286Z</time>
      </trkpt>
      <trkpt lat="48.76261" lon="-3.42192">
        <ele>100.834429</ele>
        <time>2020-09-06T21:15:57.496Z</time>
      </trkpt>
      <trkpt lat="48.76268" lon="-3.42192">
        <ele>100.730026</ele>
        <time>2020-09-06T21:15:58.472Z</time>
      </trkpt>
      <trkpt lat="48.76329" lon="-3.42208">
        <ele>99.716892</ele>
        <time>2020-09-06T21:16:08.455Z</time>
      </trkpt>
      <trkpt lat="48.76438" lon="-3.4229">
        <ele>97.695778</ele>
        <time>2020-09-06T21:16:27.966Z</time>
      </trkpt>
      <trkpt lat="48.76457" lon="-3.42306">
        <ele>97.338198</ele>
        <time>2020-09-06T21:16:31.419Z</time>
      </trkpt>
      <trkpt lat="48.76572" lon="-3.42393">
        <ele>94.69556</ele>
        <time>2020-09-06T21:16:51.263Z</time>
      </trkpt>
      <trkpt lat="48.76705" lon="-3.42494">
        <ele>91.414399</ele>
        <time>2020-09-06T21:17:13.720Z</time>
      </trkpt>
      <trkpt lat="48.76735" lon="-3.42514">
        <ele>90.676376</ele>
        <time>2020-09-06T21:17:18.687Z</time>
      </trkpt>
      <trkpt lat="48.76767" lon="-3.42525">
        <ele>89.926622</ele>
        <time>2020-09-06T21:17:23.748Z</time>
      </trkpt>
      <trkpt lat="48.76795" lon="-3.42534">
        <ele>89.280699</ele>
        <time>2020-09-06T21:17:28.206Z</time>
      </trkpt>
      <trkpt lat="48.768" lon="-3.42536">
        <ele>89.165173</ele>
        <time>2020-09-06T21:17:29.052Z</time>
      </trkpt>
      <trkpt lat="48.76815" lon="-3.42546">
        <ele>88.827809</ele>
        <time>2020-09-06T21:17:31.506Z</time>
      </trkpt>
      <trkpt lat="48.76851" lon="-3.42592">
        <ele>87.840376</ele>
        <time>2020-09-06T21:17:38.679Z</time>
      </trkpt>
      <trkpt lat="48.76866" lon="-3.42622">
        <ele>87.328449</ele>
        <time>2020-09-06T21:17:42.403Z</time>
      </trkpt>
      <trkpt lat="48.76892" lon="-3.42659">
        <ele>86.574965</ele>
        <time>2020-09-06T21:17:47.927Z</time>
      </trkpt>
      <trkpt lat="48.76905" lon="-3.42692">
        <ele>86.033729</ele>
        <time>2020-09-06T21:17:51.885Z</time>
      </trkpt>
      <trkpt lat="48.76919" lon="-3.42718">
        <ele>85.5847</ele>
        <time>2020-09-06T21:17:55.513Z</time>
      </trkpt>
      <trkpt lat="48.76934" lon="-3.42712">
        <ele>85.265153</ele>
        <time>2020-09-06T21:17:58.032Z</time>
      </trkpt>
      <trkpt lat="48.76957" lon="-3.42702">
        <ele>84.759588</ele>
        <time>2020-09-06T21:18:02.112Z</time>
      </trkpt>
      <trkpt lat="48.77078" lon="-3.42757">
        <ele>82.162725</ele>
        <time>2020-09-06T21:18:22.599Z</time>
      </trkpt>
      <trkpt lat="48.77153" lon="-3.42761">
        <ele>80.427378</ele>
        <time>2020-09-06T21:18:35.204Z</time>
      </trkpt>
      <trkpt lat="48.772" lon="-3.42803">
        <ele>79.174225</ele>
        <time>2020-09-06T21:18:43.766Z</time>
      </trkpt>
      <trkpt lat="48.77287" lon="-3.42842">
        <ele>76.958516</ele>
        <time>2020-09-06T21:18:58.290Z</time>
      </trkpt>
      <trkpt lat="48.77293" lon="-3.42848">
        <ele>76.774517</ele>
        <time>2020-09-06T21:18:59.340Z</time>
      </trkpt>
      <trkpt lat="48.77307" lon="-3.42867">
        <ele>76.281364</ele>
        <time>2020-09-06T21:19:02.474Z</time>
      </trkpt>
      <trkpt lat="48.77325" lon="-3.4289">
        <ele>75.663262</ele>
        <time>2020-09-06T21:19:06.174Z</time>
      </trkpt>
      <trkpt lat="48.77332" lon="-3.42901">
        <ele>75.400724</ele>
        <time>2020-09-06T21:19:07.719Z</time>
      </trkpt>
      <trkpt lat="48.77355" lon="-3.42935">
        <ele>74.564545</ele>
        <time>2020-09-06T21:19:12.769Z</time>
      </trkpt>
      <trkpt lat="48.77361" lon="-3.42944">
        <ele>74.342525</ele>
        <time>2020-09-06T21:19:14.107Z</time>
      </trkpt>
      <trkpt lat="48.77366" lon="-3.4295">
        <ele>74.180459</ele>
        <time>2020-09-06T21:19:15.089Z</time>
      </trkpt>
      <trkpt lat="48.77405" lon="-3.42977">
        <ele>73.02829</ele>
        <time>2020-09-06T21:19:21.963Z</time>
      </trkpt>
      <trkpt lat="48.77445" lon="-3.4298">
        <ele>71.81436</ele>
        <time>2020-09-06T21:19:28.063Z</time>
      </trkpt>
      <trkpt lat="48.77452" lon="-3.42982">
        <ele>71.590515</ele>
        <time>2020-09-06T21:19:29.250Z</time>
      </trkpt>
      <trkpt lat="48.77457" lon="-3.42988">
        <ele>71.390711</ele>
        <time>2020-09-06T21:19:30.257Z</time>
      </trkpt>
      <trkpt lat="48.77468" lon="-3.4302">
        <ele>70.64652</ele>
        <time>2020-09-06T21:19:34.014Z</time>
      </trkpt>
      <trkpt lat="48.77462" lon="-3.43135">
        <ele>68.302476</ele>
        <time>2020-09-06T21:19:45.561Z</time>
      </trkpt>
      <trkpt lat="48.77467" lon="-3.43167">
        <ele>67.64087</ele>
        <time>2020-09-06T21:19:48.956Z</time>
      </trkpt>
      <trkpt lat="48.77469" lon="-3.43169">
        <ele>67.570816</ele>
        <time>2020-09-06T21:19:49.259Z</time>
      </trkpt>
      <trkpt lat="48.77474" lon="-3.43172">
        <ele>67.417482</ele>
        <time>2020-09-06T21:19:50.084Z</time>
      </trkpt>
      <trkpt lat="48.77504" lon="-3.43182">
        <ele>66.607584</ele>
        <time>2020-09-06T21:19:54.745Z</time>
      </trkpt>
      <trkpt lat="48.77522" lon="-3.43205">
        <ele>65.970366</ele>
        <time>2020-09-06T21:19:58.626Z</time>
      </trkpt>
      <trkpt lat="48.77527" lon="-3.43217">
        <ele>65.740784</ele>
        <time>2020-09-06T21:19:59.938Z</time>
      </trkpt>
      <trkpt lat="48.77531" lon="-3.43232">
        <ele>65.438468</ele>
        <time>2020-09-06T21:20:01.603Z</time>
      </trkpt>
      <trkpt lat="48.77545" lon="-3.43277">
        <ele>64.583855</ele>
        <time>2020-09-06T21:20:06.634Z</time>
      </trkpt>
      <trkpt lat="48.77537" lon="-3.43284">
        <ele>64.344948</ele>
        <time>2020-09-06T21:20:08.144Z</time>
      </trkpt>
      <trkpt lat="48.77521" lon="-3.43291">
        <ele>63.908781</ele>
        <time>2020-09-06T21:20:10.840Z</time>
      </trkpt>
      <trkpt lat="48.77509" lon="-3.43286">
        <ele>63.573164</ele>
        <time>2020-09-06T21:20:12.697Z</time>
      </trkpt>
      <trkpt lat="48.77498" lon="-3.43281">
        <ele>63.276835</ele>
        <time>2020-09-06T21:20:15.822Z</time>
      </trkpt>
      <trkpt lat="48.77481" lon="-3.4329">
        <ele>62.801923</ele>
        <time>2020-09-06T21:20:20.817Z</time>
      </trkpt>
      <trkpt lat="48.77461" lon="-3.43325">
        <ele>62.653103</ele>
        <time>2020-09-06T21:20:29.432Z</time>
      </trkpt>
      <trkpt lat="48.77451" lon="-3.43346">
        <ele>62.569519</ele>
        <time>2020-09-06T21:20:34.416Z</time>
      </trkpt>
      <trkpt lat="48.77419" lon="-3.43459">
        <ele>62.171111</ele>
        <time>2020-09-06T21:20:59.547Z</time>
      </trkpt>
      <trkpt lat="48.77394" lon="-3.43499">
        <ele>61.993954</ele>
        <time>2020-09-06T21:21:11.486Z</time>
      </trkpt>
      <trkpt lat="48.77362" lon="-3.43574">
        <ele>62.17594</ele>
        <time>2020-09-06T21:21:31.628Z</time>
      </trkpt>
      <trkpt lat="48.77328" lon="-3.43609">
        <ele>62.420638</ele>
        <time>2020-09-06T21:21:46.505Z</time>
      </trkpt>
      <trkpt lat="48.77308" lon="-3.43639">
        <ele>62.582519</ele>
        <time>2020-09-06T21:21:56.389Z</time>
      </trkpt>
      <trkpt lat="48.77293" lon="-3.43666">
        <ele>62.719354</ele>
        <time>2020-09-06T21:22:04.492Z</time>
      </trkpt>
      <trkpt lat="48.77262" lon="-3.4375">
        <ele>63.042193</ele>
        <time>2020-09-06T21:22:26.561Z</time>
      </trkpt>
      <trkpt lat="48.77252" lon="-3.43777">
        <ele>63.114672</ele>
        <time>2020-09-06T21:22:34.006Z</time>
      </trkpt>
      <trkpt lat="48.77215" lon="-3.43845">
        <ele>63.313412</ele>
        <time>2020-09-06T21:22:53.246Z</time>
      </trkpt>
      <trkpt lat="48.77176" lon="-3.43927">
        <ele>63.541654</ele>
        <time>2020-09-06T21:23:14.855Z</time>
      </trkpt>
      <trkpt lat="48.77166" lon="-3.43977">
        <ele>63.788053</ele>
        <time>2020-09-06T21:23:26.266Z</time>
      </trkpt>
      <trkpt lat="48.77172" lon="-3.44099">
        <ele>64.584377</ele>
        <time>2020-09-06T21:23:53.690Z</time>
      </trkpt>
      <trkpt lat="48.7716" lon="-3.44153">
        <ele>64.956956</ele>
        <time>2020-09-06T21:24:07.439Z</time>
      </trkpt>
      <trkpt lat="48.77159" lon="-3.44178">
        <ele>65.121659</ele>
        <time>2020-09-06T21:24:14.040Z</time>
      </trkpt>
      <trkpt lat="48.77192" lon="-3.443">
        <ele>67.05587</ele>
        <time>2020-09-06T21:24:52.399Z</time>
      </trkpt>
      <trkpt lat="48.77166" lon="-3.4434">
        <ele>68.072305</ele>
        <time>2020-09-06T21:25:10.156Z</time>
      </trkpt>
      <trkpt lat="48.77132" lon="-3.44361">
        <ele>69.065663</ele>
        <time>2020-09-06T21:25:27.805Z</time>
      </trkpt>
      <trkpt lat="48.77117" lon="-3.44368">
        <ele>69.50786</ele>
        <time>2020-09-06T21:25:36.027Z</time>
      </trkpt>
      <trkpt lat="48.77105" lon="-3.44374">
        <ele>69.857834</ele>
        <time>2020-09-06T21:25:41.908Z</time>
      </trkpt>
      <trkpt lat="48.77078" lon="-3.44384">
        <ele>70.391348</ele>
        <time>2020-09-06T21:25:54.437Z</time>
      </trkpt>
      <trkpt lat="48.7707" lon="-3.44388">
        <ele>70.442499</ele>
        <time>2020-09-06T21:25:58.198Z</time>
      </trkpt>
      <trkpt lat="48.77006" lon="-3.44457">
        <ele>70.923301</ele>
        <time>2020-09-06T21:26:28.479Z</time>
      </trkpt>
      <trkpt lat="48.77004" lon="-3.4446">
        <ele>70.945646</ele>
        <time>2020-09-06T21:26:30.470Z</time>
      </trkpt>
      <trkpt lat="48.76996" lon="-3.44487">
        <ele>71.062762</ele>
        <time>2020-09-06T21:26:36.627Z</time>
      </trkpt>
      <trkpt lat="48.76992" lon="-3.4451">
        <ele>71.158455</ele>
        <time>2020-09-06T21:26:42.024Z</time>
      </trkpt>
      <trkpt lat="48.76989" lon="-3.44546">
        <ele>71.307507</ele>
        <time>2020-09-06T21:26:49.039Z</time>
      </trkpt>
      <trkpt lat="48.76988" lon="-3.44562">
        <ele>71.372363</ele>
        <time>2020-09-06T21:26:52.295Z</time>
      </trkpt>
      <trkpt lat="48.76988" lon="-3.44596">
        <ele>70.999575</ele>
        <time>2020-09-06T21:26:58.157Z</time>
      </trkpt>
      <trkpt lat="48.76994" lon="-3.4462">
        <ele>70.408434</ele>
        <time>2020-09-06T21:27:03.027Z</time>
      </trkpt>
      <trkpt lat="48.76997" lon="-3.4463">
        <ele>70.169987</ele>
        <time>2020-09-06T21:27:04.721Z</time>
      </trkpt>
      <trkpt lat="48.77001" lon="-3.44646">
        <ele>69.771604</ele>
        <time>2020-09-06T21:27:07.681Z</time>
      </trkpt>
      <trkpt lat="48.77003" lon="-3.44653">
        <ele>69.604107</ele>
        <time>2020-09-06T21:27:08.937Z</time>
      </trkpt>
      <trkpt lat="48.76981" lon="-3.44666">
        <ele>68.793956</ele>
        <time>2020-09-06T21:27:12.281Z</time>
      </trkpt>
      <trkpt lat="48.76957" lon="-3.4468">
        <ele>67.906926</ele>
        <time>2020-09-06T21:27:15.910Z</time>
      </trkpt>
      <trkpt lat="48.7696" lon="-3.44692">
        <ele>67.613438</ele>
        <time>2020-09-06T21:27:17.927Z</time>
      </trkpt>
      <trkpt lat="48.76968" lon="-3.44721">
        <ele>66.910639</ele>
        <time>2020-09-06T21:27:23.115Z</time>
      </trkpt>
      <trkpt lat="48.76973" lon="-3.44758">
        <ele>66.047068</ele>
        <time>2020-09-06T21:27:29.296Z</time>
      </trkpt>
      <trkpt lat="48.76975" lon="-3.44829">
        <ele>64.360462</ele>
        <time>2020-09-06T21:27:36.271Z</time>
      </trkpt>
      <trkpt lat="48.76983" lon="-3.4487">
        <ele>63.30203</ele>
        <time>2020-09-06T21:27:40.407Z</time>
      </trkpt>
      <trkpt lat="48.77018" lon="-3.44973">
        <ele>60.400264</ele>
        <time>2020-09-06T21:27:51.778Z</time>
      </trkpt>
      <trkpt lat="48.77043" lon="-3.44962">
        <ele>59.442966</ele>
        <time>2020-09-06T21:27:55.530Z</time>
      </trkpt>
      <trkpt lat="48.77146" lon="-3.44926">
        <ele>55.875977</ele>
        <time>2020-09-06T21:28:11.964Z</time>
      </trkpt>
      <trkpt lat="48.77146" lon="-3.44926">
        <ele>55.875977</ele>
        <time>2020-09-06T21:28:11.977Z</time>
      </trkpt>
      <trkpt lat="48.77197" lon="-3.44909">
        <ele>54.219858</ele>
        <time>2020-09-06T21:28:20.018Z</time>
      </trkpt>
      <trkpt lat="48.77262" lon="-3.44875">
        <ele>52.053496</ele>
        <time>2020-09-06T21:28:30.455Z</time>
      </trkpt>
      <trkpt lat="48.77316" lon="-3.44871">
        <ele>50.448289</ele>
        <time>2020-09-06T21:28:38.617Z</time>
      </trkpt>
      <trkpt lat="48.77371" lon="-3.44846">
        <ele>48.703648</ele>
        <time>2020-09-06T21:28:47.619Z</time>
      </trkpt>
      <trkpt lat="48.77379" lon="-3.44869">
        <ele>48.190463</ele>
        <time>2020-09-06T21:28:50.242Z</time>
      </trkpt>
      <trkpt lat="48.774" lon="-3.44894">
        <ele>47.382567</ele>
        <time>2020-09-06T21:28:54.596Z</time>
      </trkpt>
      <trkpt lat="48.77454" lon="-3.44884">
        <ele>46.824439</ele>
        <time>2020-09-06T21:29:03.515Z</time>
      </trkpt>
      <trkpt lat="48.77482" lon="-3.44889">
        <ele>46.56128</ele>
        <time>2020-09-06T21:29:08.182Z</time>
      </trkpt>
      <trkpt lat="48.77504" lon="-3.44877">
        <ele>46.337964</ele>
        <time>2020-09-06T21:29:12.463Z</time>
      </trkpt>
      <trkpt lat="48.77517" lon="-3.44872">
        <ele>46.20645</ele>
        <time>2020-09-06T21:29:15.095Z</time>
      </trkpt>
      <trkpt lat="48.77532" lon="-3.44869">
        <ele>46.069919</ele>
        <time>2020-09-06T21:29:17.861Z</time>
      </trkpt>
      <trkpt lat="48.77537" lon="-3.44893">
        <ele>45.915269</ele>
        <time>2020-09-06T21:29:21.546Z</time>
      </trkpt>
      <trkpt lat="48.77557" lon="-3.45023">
        <ele>46.271337</ele>
        <time>2020-09-06T21:29:41.724Z</time>
      </trkpt>
      <trkpt lat="48.77559" lon="-3.45046">
        <ele>46.452459</ele>
        <time>2020-09-06T21:29:46.005Z</time>
      </trkpt>
      <trkpt lat="48.7756" lon="-3.45059">
        <ele>46.554513</ele>
        <time>2020-09-06T21:29:48.572Z</time>
      </trkpt>
      <trkpt lat="48.77558" lon="-3.45096">
        <ele>46.840148</ele>
        <time>2020-09-06T21:29:55.127Z</time>
      </trkpt>
      <trkpt lat="48.77551" lon="-3.45122">
        <ele>47.053362</ele>
        <time>2020-09-06T21:30:00.322Z</time>
      </trkpt>
      <trkpt lat="48.77471" lon="-3.45207">
        <ele>48.531972</ele>
        <time>2020-09-06T21:30:27.602Z</time>
      </trkpt>
      <trkpt lat="48.77452" lon="-3.45244">
        <ele>49.167287</ele>
        <time>2020-09-06T21:30:37.246Z</time>
      </trkpt>
      <trkpt lat="48.77451" lon="-3.4526">
        <ele>49.369516</ele>
        <time>2020-09-06T21:30:40.110Z</time>
      </trkpt>
      <trkpt lat="48.77458" lon="-3.45279">
        <ele>49.663858</ele>
        <time>2020-09-06T21:30:44.289Z</time>
      </trkpt>
      <trkpt lat="48.775" lon="-3.45342">
        <ele>50.850623</ele>
        <time>2020-09-06T21:31:03.094Z</time>
      </trkpt>
      <trkpt lat="48.77501" lon="-3.45371">
        <ele>51.233083</ele>
        <time>2020-09-06T21:31:09.376Z</time>
      </trkpt>
      <trkpt lat="48.77491" lon="-3.45416">
        <ele>51.874442</ele>
        <time>2020-09-06T21:31:18.818Z</time>
      </trkpt>
      <trkpt lat="48.7749" lon="-3.45423">
        <ele>51.981084</ele>
        <time>2020-09-06T21:31:21.133Z</time>
      </trkpt>
      <trkpt lat="48.77665" lon="-3.45356">
        <ele>55.422955</ele>
        <time>2020-09-06T21:32:15.709Z</time>
      </trkpt>
      <trkpt lat="48.77686" lon="-3.45346">
        <ele>55.697071</ele>
        <time>2020-09-06T21:32:21.342Z</time>
      </trkpt>
      <trkpt lat="48.77709" lon="-3.45325">
        <ele>56.026622</ele>
        <time>2020-09-06T21:32:27.833Z</time>
      </trkpt>
      <trkpt lat="48.77759" lon="-3.45239">
        <ele>56.95494</ele>
        <time>2020-09-06T21:32:47.497Z</time>
      </trkpt>
      <trkpt lat="48.77798" lon="-3.45158">
        <ele>57.659271</ele>
        <time>2020-09-06T21:33:03.725Z</time>
      </trkpt>
      <trkpt lat="48.77822" lon="-3.45182">
        <ele>57.940283</ele>
        <time>2020-09-06T21:33:11.014Z</time>
      </trkpt>
      <trkpt lat="48.77945" lon="-3.45247">
        <ele>59.261839</ele>
        <time>2020-09-06T21:33:43.709Z</time>
      </trkpt>
      <trkpt lat="48.77965" lon="-3.45252">
        <ele>59.505139</ele>
        <time>2020-09-06T21:33:49.592Z</time>
      </trkpt>
      <trkpt lat="48.77984" lon="-3.4525">
        <ele>59.731583</ele>
        <time>2020-09-06T21:33:53.970Z</time>
      </trkpt>
      <trkpt lat="48.78009" lon="-3.45237">
        <ele>60.042732</ele>
        <time>2020-09-06T21:34:01.014Z</time>
      </trkpt>
      <trkpt lat="48.78041" lon="-3.45204">
        <ele>60.491386</ele>
        <time>2020-09-06T21:34:11.429Z</time>
      </trkpt>
      <trkpt lat="48.78047" lon="-3.45191">
        <ele>60.61721</ele>
        <time>2020-09-06T21:34:13.532Z</time>
      </trkpt>
      <trkpt lat="48.78058" lon="-3.45201">
        <ele>60.772811</ele>
        <time>2020-09-06T21:34:18.268Z</time>
      </trkpt>
      <trkpt lat="48.78084" lon="-3.45297">
        <ele>61.437682</ele>
        <time>2020-09-06T21:34:35.296Z</time>
      </trkpt>
      <trkpt lat="48.78103" lon="-3.45338">
        <ele>61.708219</ele>
        <time>2020-09-06T21:34:43.010Z</time>
      </trkpt>
      <trkpt lat="48.78108" lon="-3.45342">
        <ele>61.752806</ele>
        <time>2020-09-06T21:34:45.389Z</time>
      </trkpt>
      <trkpt lat="48.78115" lon="-3.45344">
        <ele>61.807234</ele>
        <time>2020-09-06T21:34:46.879Z</time>
      </trkpt>
      <trkpt lat="48.78172" lon="-3.45338">
        <ele>62.279235</ele>
        <time>2020-09-06T21:35:00.489Z</time>
      </trkpt>
      <trkpt lat="48.78229" lon="-3.45355">
        <ele>62.571023</ele>
        <time>2020-09-06T21:35:14.068Z</time>
      </trkpt>
      <trkpt lat="48.78276" lon="-3.45359">
        <ele>62.511254</ele>
        <time>2020-09-06T21:35:24.138Z</time>
      </trkpt>
      <trkpt lat="48.7834" lon="-3.45408">
        <ele>62.421591</ele>
        <time>2020-09-06T21:35:38.217Z</time>
      </trkpt>
      <trkpt lat="48.7843" lon="-3.45448">
        <ele>61.46417</ele>
        <time>2020-09-06T21:35:55.336Z</time>
      </trkpt>
      <trkpt lat="48.78436" lon="-3.45454">
        <ele>61.347004</ele>
        <time>2020-09-06T21:35:56.523Z</time>
      </trkpt>
      <trkpt lat="48.7844" lon="-3.45453">
        <ele>61.274551</ele>
        <time>2020-09-06T21:35:57.197Z</time>
      </trkpt>
      <trkpt lat="48.78475" lon="-3.45459">
        <ele>60.665523</ele>
        <time>2020-09-06T21:36:03.229Z</time>
      </trkpt>
      <trkpt lat="48.78491" lon="-3.45445">
        <ele>60.337974</ele>
        <time>2020-09-06T21:36:06.492Z</time>
      </trkpt>
      <trkpt lat="48.78494" lon="-3.45439">
        <ele>60.257076</ele>
        <time>2020-09-06T21:36:07.240Z</time>
      </trkpt>
      <trkpt lat="48.78503" lon="-3.45445">
        <ele>60.089728</ele>
        <time>2020-09-06T21:36:08.714Z</time>
      </trkpt>
      <trkpt lat="48.78597" lon="-3.45499">
        <ele>57.191175</ele>
        <time>2020-09-06T21:36:23.521Z</time>
      </trkpt>
      <trkpt lat="48.78634" lon="-3.4553">
        <ele>55.503038</ele>
        <time>2020-09-06T21:36:29.369Z</time>
      </trkpt>
      <trkpt lat="48.78674" lon="-3.45585">
        <ele>53.348078</ele>
        <time>2020-09-06T21:36:36.823Z</time>
      </trkpt>
      <trkpt lat="48.78682" lon="-3.45614">
        <ele>52.534285</ele>
        <time>2020-09-06T21:36:39.736Z</time>
      </trkpt>
      <trkpt lat="48.78683" lon="-3.45621">
        <ele>52.361409</ele>
        <time>2020-09-06T21:36:40.260Z</time>
      </trkpt>
      <trkpt lat="48.78689" lon="-3.4567">
        <ele>50.883951</ele>
        <time>2020-09-06T21:36:44.755Z</time>
      </trkpt>
      <trkpt lat="48.78698" lon="-3.45694">
        <ele>50.05891</ele>
        <time>2020-09-06T21:36:48.993Z</time>
      </trkpt>
      <trkpt lat="48.7871" lon="-3.45746">
        <ele>48.397174</ele>
        <time>2020-09-06T21:36:57.652Z</time>
      </trkpt>
      <trkpt lat="48.78739" lon="-3.45778">
        <ele>46.773911</ele>
        <time>2020-09-06T21:37:06.199Z</time>
      </trkpt>
      <trkpt lat="48.78756" lon="-3.45793">
        <ele>45.875944</ele>
        <time>2020-09-06T21:37:10.922Z</time>
      </trkpt>
      <trkpt lat="48.78781" lon="-3.45797">
        <ele>44.708842</ele>
        <time>2020-09-06T21:37:17.345Z</time>
      </trkpt>
      <trkpt lat="48.78797" lon="-3.45821">
        <ele>43.889711</ele>
        <time>2020-09-06T21:37:23.163Z</time>
      </trkpt>
      <trkpt lat="48.78805" lon="-3.45847">
        <ele>43.726368</ele>
        <time>2020-09-06T21:37:28.060Z</time>
      </trkpt>
      <trkpt lat="48.78813" lon="-3.4586">
        <ele>43.624027</ele>
        <time>2020-09-06T21:37:31.311Z</time>
      </trkpt>
      <trkpt lat="48.78831" lon="-3.45898">
        <ele>43.358872</ele>
        <time>2020-09-06T21:37:39.884Z</time>
      </trkpt>
      <trkpt lat="48.78855" lon="-3.45924">
        <ele>43.105005</ele>
        <time>2020-09-06T21:37:48.184Z</time>
      </trkpt>
      <trkpt lat="48.78879" lon="-3.45931">
        <ele>42.89058</ele>
        <time>2020-09-06T21:37:55.512Z</time>
      </trkpt>
      <trkpt lat="48.7893" lon="-3.45933">
        <ele>42.447733</ele>
        <time>2020-09-06T21:38:13.294Z</time>
      </trkpt>
      <trkpt lat="48.78955" lon="-3.45946">
        <ele>43.014426</ele>
        <time>2020-09-06T21:38:23.687Z</time>
      </trkpt>
      <trkpt lat="48.78959" lon="-3.45949">
        <ele>43.201733</ele>
        <time>2020-09-06T21:38:26.928Z</time>
      </trkpt>
      <trkpt lat="48.78966" lon="-3.45932">
        <ele>43.675769</ele>
        <time>2020-09-06T21:38:30.887Z</time>
      </trkpt>
      <trkpt lat="48.78976" lon="-3.45908">
        <ele>44.343401</ele>
        <time>2020-09-06T21:38:37.872Z</time>
      </trkpt>
      <trkpt lat="48.78984" lon="-3.45884">
        <ele>44.953313</ele>
        <time>2020-09-06T21:38:44.049Z</time>
      </trkpt>
      <trkpt lat="48.78992" lon="-3.4589">
        <ele>45.270156</ele>
        <time>2020-09-06T21:38:47.597Z</time>
      </trkpt>
      <trkpt lat="48.79062" lon="-3.4595">
        <ele>48.104138</ele>
        <time>2020-09-06T21:39:20.904Z</time>
      </trkpt>
      <trkpt lat="48.79077" lon="-3.45968">
        <ele>48.803835</ele>
        <time>2020-09-06T21:39:29.886Z</time>
      </trkpt>
      <trkpt lat="48.79096" lon="-3.45996">
        <ele>50.231488</ele>
        <time>2020-09-06T21:39:42.229Z</time>
      </trkpt>
      <trkpt lat="48.791" lon="-3.46015">
        <ele>50.922885</ele>
        <time>2020-09-06T21:39:47.387Z</time>
      </trkpt>
      <trkpt lat="48.79087" lon="-3.46066">
        <ele>52.85217</ele>
        <time>2020-09-06T21:40:03.994Z</time>
      </trkpt>
      <trkpt lat="48.79087" lon="-3.46084">
        <ele>53.510694</ele>
        <time>2020-09-06T21:40:09.476Z</time>
      </trkpt>
      <trkpt lat="48.79087" lon="-3.46091">
        <ele>53.731587</ele>
        <time>2020-09-06T21:40:12.572Z</time>
      </trkpt>
      <trkpt lat="48.79096" lon="-3.46162">
        <ele>56.307968</ele>
        <time>2020-09-06T21:40:34.582Z</time>
      </trkpt>
      <trkpt lat="48.79096" lon="-3.46166">
        <ele>56.476607</ele>
        <time>2020-09-06T21:40:36.237Z</time>
      </trkpt>
      <trkpt lat="48.79091" lon="-3.46221">
        <ele>58.455821</ele>
        <time>2020-09-06T21:40:54.389Z</time>
      </trkpt>
      <trkpt lat="48.79081" lon="-3.46258">
        <ele>59.712481</ele>
        <time>2020-09-06T21:41:08.255Z</time>
      </trkpt>
      <trkpt lat="48.79044" lon="-3.46318">
        <ele>62.347339</ele>
        <time>2020-09-06T21:41:34.294Z</time>
      </trkpt>
      <trkpt lat="48.7904" lon="-3.46336">
        <ele>62.937195</ele>
        <time>2020-09-06T21:41:39.881Z</time>
      </trkpt>
      <trkpt lat="48.79045" lon="-3.46356">
        <ele>63.633234</ele>
        <time>2020-09-06T21:41:45.808Z</time>
      </trkpt>
      <trkpt lat="48.7907" lon="-3.46418">
        <ele>65.950289</ele>
        <time>2020-09-06T21:42:05.429Z</time>
      </trkpt>
      <trkpt lat="48.79081" lon="-3.46418">
        <ele>66.503883</ele>
        <time>2020-09-06T21:42:10.565Z</time>
      </trkpt>
      <trkpt lat="48.79136" lon="-3.46418">
        <ele>68.024109</ele>
        <time>2020-09-06T21:42:31.320Z</time>
      </trkpt>
      <trkpt lat="48.79192" lon="-3.4643">
        <ele>69.172799</ele>
        <time>2020-09-06T21:42:51.127Z</time>
      </trkpt>
      <trkpt lat="48.79292" lon="-3.46428">
        <ele>70.593671</ele>
        <time>2020-09-06T21:43:14.588Z</time>
      </trkpt>
      <trkpt lat="48.79325" lon="-3.46428">
        <ele>70.110089</ele>
        <time>2020-09-06T21:43:21.194Z</time>
      </trkpt>
      <trkpt lat="48.79334" lon="-3.46353">
        <ele>69.382986</ele>
        <time>2020-09-06T21:43:35.612Z</time>
      </trkpt>
      <trkpt lat="48.79336" lon="-3.46281">
        <ele>68.690985</ele>
        <time>2020-09-06T21:43:48.421Z</time>
      </trkpt>
      <trkpt lat="48.79333" lon="-3.46267">
        <ele>68.549636</ele>
        <time>2020-09-06T21:43:51.161Z</time>
      </trkpt>
      <trkpt lat="48.7932" lon="-3.46212">
        <ele>67.673856</ele>
        <time>2020-09-06T21:44:01.213Z</time>
      </trkpt>
      <trkpt lat="48.79313" lon="-3.46202">
        <ele>67.342813</ele>
        <time>2020-09-06T21:44:03.798Z</time>
      </trkpt>
      <trkpt lat="48.7931" lon="-3.46197">
        <ele>67.189312</ele>
        <time>2020-09-06T21:44:04.947Z</time>
      </trkpt>
      <trkpt lat="48.7931" lon="-3.46189">
        <ele>66.99947</ele>
        <time>2020-09-06T21:44:06.217Z</time>
      </trkpt>
      <trkpt lat="48.79354" lon="-3.4611">
        <ele>64.710594</ele>
        <time>2020-09-06T21:44:23.454Z</time>
      </trkpt>
      <trkpt lat="48.79328" lon="-3.46065">
        <ele>63.368581</ele>
        <time>2020-09-06T21:44:33.477Z</time>
      </trkpt>
      <trkpt lat="48.79304" lon="-3.46006">
        <ele>62.020064</ele>
        <time>2020-09-06T21:44:45.148Z</time>
      </trkpt>
      <trkpt lat="48.79315" lon="-3.45995">
        <ele>61.826718</ele>
        <time>2020-09-06T21:44:48.529Z</time>
      </trkpt>
      <trkpt lat="48.79332" lon="-3.4595">
        <ele>61.307559</ele>
        <time>2020-09-06T21:44:57.804Z</time>
      </trkpt>
      <trkpt lat="48.7937" lon="-3.45912">
        <ele>60.610567</ele>
        <time>2020-09-06T21:45:10.626Z</time>
      </trkpt>
      <trkpt lat="48.79392" lon="-3.45907">
        <ele>60.275168</ele>
        <time>2020-09-06T21:45:16.895Z</time>
      </trkpt>
      <trkpt lat="48.79473" lon="-3.45921">
        <ele>59.460017</ele>
        <time>2020-09-06T21:45:42.575Z</time>
      </trkpt>
      <trkpt lat="48.79515" lon="-3.45834">
        <ele>59.524471</ele>
        <time>2020-09-06T21:46:06.798Z</time>
      </trkpt>
      <trkpt lat="48.79539" lon="-3.45767">
        <ele>59.569862</ele>
        <time>2020-09-06T21:46:23.376Z</time>
      </trkpt>
      <trkpt lat="48.7955" lon="-3.45748">
        <ele>59.584947</ele>
        <time>2020-09-06T21:46:28.980Z</time>
      </trkpt>
      <trkpt lat="48.79565" lon="-3.45744">
        <ele>59.5982</ele>
        <time>2020-09-06T21:46:33.718Z</time>
      </trkpt>
      <trkpt lat="48.79576" lon="-3.45746">
        <ele>59.55892</ele>
        <time>2020-09-06T21:46:36.771Z</time>
      </trkpt>
      <trkpt lat="48.79588" lon="-3.45745">
        <ele>59.514274</ele>
        <time>2020-09-06T21:46:41.541Z</time>
      </trkpt>
      <trkpt lat="48.79653" lon="-3.4574">
        <ele>59.277221</ele>
        <time>2020-09-06T21:47:00.566Z</time>
      </trkpt>
      <trkpt lat="48.79662" lon="-3.45743">
        <ele>59.246272</ele>
        <time>2020-09-06T21:47:03.793Z</time>
      </trkpt>
      <trkpt lat="48.79669" lon="-3.45735">
        <ele>59.21361</ele>
        <time>2020-09-06T21:47:05.384Z</time>
      </trkpt>
      <trkpt lat="48.79679" lon="-3.45728">
        <ele>59.173601</ele>
        <time>2020-09-06T21:47:07.092Z</time>
      </trkpt>
      <trkpt lat="48.79745" lon="-3.45702">
        <ele>59.00087</ele>
        <time>2020-09-06T21:47:19.964Z</time>
      </trkpt>
      <trkpt lat="48.79762" lon="-3.45694">
        <ele>59.192198</ele>
        <time>2020-09-06T21:47:23.371Z</time>
      </trkpt>
      <trkpt lat="48.79771" lon="-3.45688">
        <ele>59.29414</ele>
        <time>2020-09-06T21:47:25.528Z</time>
      </trkpt>
      <trkpt lat="48.79779" lon="-3.45681">
        <ele>59.400864</ele>
        <time>2020-09-06T21:47:27.410Z</time>
      </trkpt>
      <trkpt lat="48.79787" lon="-3.45672">
        <ele>59.499741</ele>
        <time>2020-09-06T21:47:29.061Z</time>
      </trkpt>
      <trkpt lat="48.79792" lon="-3.45707">
        <ele>59.746188</ele>
        <time>2020-09-06T21:47:34.956Z</time>
      </trkpt>
      <trkpt lat="48.79806" lon="-3.45756">
        <ele>60.124154</ele>
        <time>2020-09-06T21:47:43.840Z</time>
      </trkpt>
      <trkpt lat="48.79846" lon="-3.45828">
        <ele>60.778136</ele>
        <time>2020-09-06T21:48:01.031Z</time>
      </trkpt>
      <trkpt lat="48.79914" lon="-3.45923">
        <ele>63.363902</ele>
        <time>2020-09-06T21:48:33.962Z</time>
      </trkpt>
      <trkpt lat="48.79921" lon="-3.46007">
        <ele>65.01146</ele>
        <time>2020-09-06T21:48:54.198Z</time>
      </trkpt>
      <trkpt lat="48.79921" lon="-3.46007">
        <ele>65.015348</ele>
        <time>2020-09-06T21:48:54.376Z</time>
      </trkpt>
      <trkpt lat="48.79896" lon="-3.46106">
        <ele>66.860102</ele>
        <time>2020-09-06T21:49:18.803Z</time>
      </trkpt>
      <trkpt lat="48.7989" lon="-3.46137">
        <ele>67.351138</ele>
        <time>2020-09-06T21:49:26.334Z</time>
      </trkpt>
      <trkpt lat="48.7993" lon="-3.46146">
        <ele>68.288844</ele>
        <time>2020-09-06T21:49:38.964Z</time>
      </trkpt>
      <trkpt lat="48.79953" lon="-3.46148">
        <ele>68.805782</ele>
        <time>2020-09-06T21:49:46.226Z</time>
      </trkpt>
      <trkpt lat="48.79958" lon="-3.46191">
        <ele>69.460685</ele>
        <time>2020-09-06T21:49:54.349Z</time>
      </trkpt>
      <trkpt lat="48.79972" lon="-3.46297">
        <ele>70.585536</ele>
        <time>2020-09-06T21:50:22.565Z</time>
      </trkpt>
      <trkpt lat="48.79981" lon="-3.4632">
        <ele>70.739111</ele>
        <time>2020-09-06T21:50:29.135Z</time>
      </trkpt>
      <trkpt lat="48.80024" lon="-3.46326">
        <ele>71.119354</ele>
        <time>2020-09-06T21:50:44.810Z</time>
      </trkpt>
      <trkpt lat="48.80041" lon="-3.46406">
        <ele>71.603233</ele>
        <time>2020-09-06T21:51:03.709Z</time>
      </trkpt>
      <trkpt lat="48.80055" lon="-3.46446">
        <ele>71.859219</ele>
        <time>2020-09-06T21:51:13.868Z</time>
      </trkpt>
      <trkpt lat="48.80081" lon="-3.46487">
        <ele>72.118001</ele>
        <time>2020-09-06T21:51:26.525Z</time>
      </trkpt>
      <trkpt lat="48.8012" lon="-3.46586">
        <ele>72.65299</ele>
        <time>2020-09-06T21:51:53.332Z</time>
      </trkpt>
      <trkpt lat="48.80143" lon="-3.46633">
        <ele>72.924788</ele>
        <time>2020-09-06T21:52:07.173Z</time>
      </trkpt>
      <trkpt lat="48.80159" lon="-3.46699">
        <ele>73.393953</ele>
        <time>2020-09-06T21:52:24.078Z</time>
      </trkpt>
      <trkpt lat="48.80165" lon="-3.46753">
        <ele>73.892586</ele>
        <time>2020-09-06T21:52:32.694Z</time>
      </trkpt>
      <trkpt lat="48.80169" lon="-3.46804">
        <ele>74.35833</ele>
        <time>2020-09-06T21:52:40.883Z</time>
      </trkpt>
      <trkpt lat="48.80199" lon="-3.46898">
        <ele>75.313325</ele>
        <time>2020-09-06T21:53:00.569Z</time>
      </trkpt>
      <trkpt lat="48.80205" lon="-3.46912">
        <ele>75.466924</ele>
        <time>2020-09-06T21:53:03.661Z</time>
      </trkpt>
      <trkpt lat="48.80225" lon="-3.46931">
        <ele>75.865615</ele>
        <time>2020-09-06T21:53:10.404Z</time>
      </trkpt>
      <trkpt lat="48.80248" lon="-3.46992">
        <ele>76.717673</ele>
        <time>2020-09-06T21:53:23.411Z</time>
      </trkpt>
      <trkpt lat="48.8025" lon="-3.46997">
        <ele>76.785773</ele>
        <time>2020-09-06T21:53:25.053Z</time>
      </trkpt>
      <trkpt lat="48.80242" lon="-3.47019">
        <ele>77.093499</ele>
        <time>2020-09-06T21:53:29.437Z</time>
      </trkpt>
      <trkpt lat="48.80245" lon="-3.47021">
        <ele>77.160576</ele>
        <time>2020-09-06T21:53:30.893Z</time>
      </trkpt>
      <trkpt lat="48.80255" lon="-3.47033">
        <ele>77.388089</ele>
        <time>2020-09-06T21:53:34.179Z</time>
      </trkpt>
      <trkpt lat="48.80269" lon="-3.471">
        <ele>78.240397</ele>
        <time>2020-09-06T21:53:47.886Z</time>
      </trkpt>
      <trkpt lat="48.80292" lon="-3.47135">
        <ele>78.840244</ele>
        <time>2020-09-06T21:53:57.102Z</time>
      </trkpt>
      <trkpt lat="48.80323" lon="-3.47161">
        <ele>79.124607</ele>
        <time>2020-09-06T21:54:06.767Z</time>
      </trkpt>
      <trkpt lat="48.80375" lon="-3.47207">
        <ele>79.530049</ele>
        <time>2020-09-06T21:54:20.730Z</time>
      </trkpt>
      <trkpt lat="48.80395" lon="-3.47229">
        <ele>79.695741</ele>
        <time>2020-09-06T21:54:25.799Z</time>
      </trkpt>
      <trkpt lat="48.80407" lon="-3.47247">
        <ele>79.804504</ele>
        <time>2020-09-06T21:54:29.220Z</time>
      </trkpt>
      <trkpt lat="48.80417" lon="-3.47268">
        <ele>79.922601</ele>
        <time>2020-09-06T21:54:32.700Z</time>
      </trkpt>
      <trkpt lat="48.80433" lon="-3.47292">
        <ele>80.074711</ele>
        <time>2020-09-06T21:54:37.134Z</time>
      </trkpt>
      <trkpt lat="48.80453" lon="-3.47314">
        <ele>80.09294</ele>
        <time>2020-09-06T21:54:41.799Z</time>
      </trkpt>
      <trkpt lat="48.80465" lon="-3.47325">
        <ele>80.074749</ele>
        <time>2020-09-06T21:54:44.238Z</time>
      </trkpt>
      <trkpt lat="48.80556" lon="-3.47377">
        <ele>79.94527</ele>
        <time>2020-09-06T21:55:02.377Z</time>
      </trkpt>
      <trkpt lat="48.80557" lon="-3.47379">
        <ele>79.943527</ele>
        <time>2020-09-06T21:55:02.586Z</time>
      </trkpt>
      <trkpt lat="48.8057" lon="-3.47392">
        <ele>79.923021</ele>
        <time>2020-09-06T21:55:05.444Z</time>
      </trkpt>
      <trkpt lat="48.80577" lon="-3.47402">
        <ele>79.910715</ele>
        <time>2020-09-06T21:55:07.327Z</time>
      </trkpt>
      <trkpt lat="48.80594" lon="-3.47425">
        <ele>79.880269</ele>
        <time>2020-09-06T21:55:11.641Z</time>
      </trkpt>
      <trkpt lat="48.80635" lon="-3.47446">
        <ele>79.904225</ele>
        <time>2020-09-06T21:55:20.235Z</time>
      </trkpt>
      <trkpt lat="48.80642" lon="-3.47454">
        <ele>79.909434</ele>
        <time>2020-09-06T21:55:22.033Z</time>
      </trkpt>
      <trkpt lat="48.80643" lon="-3.47442">
        <ele>79.914027</ele>
        <time>2020-09-06T21:55:23.644Z</time>
      </trkpt>
      <trkpt lat="48.80671" lon="-3.47252">
        <ele>79.92422</ele>
        <time>2020-09-06T21:55:50.733Z</time>
      </trkpt>
      <trkpt lat="48.80701" lon="-3.4724">
        <ele>79.660084</ele>
        <time>2020-09-06T21:55:56.725Z</time>
      </trkpt>
      <trkpt lat="48.80709" lon="-3.47235">
        <ele>79.582903</ele>
        <time>2020-09-06T21:55:58.439Z</time>
      </trkpt>
      <trkpt lat="48.8072" lon="-3.47218">
        <ele>79.453104</ele>
        <time>2020-09-06T21:56:01.299Z</time>
      </trkpt>
      <trkpt lat="48.80757" lon="-3.47198">
        <ele>79.119315</ele>
        <time>2020-09-06T21:56:08.586Z</time>
      </trkpt>
      <trkpt lat="48.80758" lon="-3.47198">
        <ele>79.109109</ele>
        <time>2020-09-06T21:56:08.759Z</time>
      </trkpt>
      <trkpt lat="48.80764" lon="-3.47174">
        <ele>78.962071</ele>
        <time>2020-09-06T21:56:13.747Z</time>
      </trkpt>
      <trkpt lat="48.80772" lon="-3.47145">
        <ele>78.785963</ele>
        <time>2020-09-06T21:56:19.760Z</time>
      </trkpt>
      <trkpt lat="48.80777" lon="-3.47134">
        <ele>78.712054</ele>
        <time>2020-09-06T21:56:22.221Z</time>
      </trkpt>
      <trkpt lat="48.8079" lon="-3.47132">
        <ele>78.607229</ele>
        <time>2020-09-06T21:56:25.595Z</time>
      </trkpt>
      <trkpt lat="48.80856" lon="-3.47149">
        <ele>77.644314</ele>
        <time>2020-09-06T21:56:44.534Z</time>
      </trkpt>
      <trkpt lat="48.80867" lon="-3.47146">
        <ele>77.454857</ele>
        <time>2020-09-06T21:56:47.900Z</time>
      </trkpt>
      <trkpt lat="48.80877" lon="-3.47133">
        <ele>77.240094</ele>
        <time>2020-09-06T21:56:51.509Z</time>
      </trkpt>
      <trkpt lat="48.80878" lon="-3.47117">
        <ele>77.061246</ele>
        <time>2020-09-06T21:56:54.493Z</time>
      </trkpt>
      <trkpt lat="48.80879" lon="-3.47085">
        <ele>76.7156</ele>
        <time>2020-09-06T21:57:00.529Z</time>
      </trkpt>
      <trkpt lat="48.80881" lon="-3.47074">
        <ele>76.593645</ele>
        <time>2020-09-06T21:57:02.589Z</time>
      </trkpt>
      <trkpt lat="48.80891" lon="-3.4707">
        <ele>76.428645</ele>
        <time>2020-09-06T21:57:05.278Z</time>
      </trkpt>
      <trkpt lat="48.80959" lon="-3.47095">
        <ele>75.312651</ele>
        <time>2020-09-06T21:57:24.901Z</time>
      </trkpt>
      <trkpt lat="48.8102" lon="-3.47094">
        <ele>74.460282</ele>
        <time>2020-09-06T21:57:42.194Z</time>
      </trkpt>
      <trkpt lat="48.81034" lon="-3.47088">
        <ele>74.252785</ele>
        <time>2020-09-06T21:57:46.267Z</time>
      </trkpt>
      <trkpt lat="48.81046" lon="-3.47056">
        <ele>73.911218</ele>
        <time>2020-09-06T21:57:53.446Z</time>
      </trkpt>
      <trkpt lat="48.81055" lon="-3.47047">
        <ele>73.763837</ele>
        <time>2020-09-06T21:57:56.405Z</time>
      </trkpt>
      <trkpt lat="48.81075" lon="-3.47036">
        <ele>73.457002</ele>
        <time>2020-09-06T21:58:02.860Z</time>
      </trkpt>
      <trkpt lat="48.81081" lon="-3.47037">
        <ele>73.382802</ele>
        <time>2020-09-06T21:58:04.313Z</time>
      </trkpt>
      <trkpt lat="48.81085" lon="-3.47038">
        <ele>73.32029</ele>
        <time>2020-09-06T21:58:05.042Z</time>
      </trkpt>
      <trkpt lat="48.81106" lon="-3.4705">
        <ele>73.005926</ele>
        <time>2020-09-06T21:58:09.084Z</time>
      </trkpt>
      <trkpt lat="48.81127" lon="-3.47017">
        <ele>72.388095</ele>
        <time>2020-09-06T21:58:14.170Z</time>
      </trkpt>
      <trkpt lat="48.81155" lon="-3.46991">
        <ele>71.681037</ele>
        <time>2020-09-06T21:58:19.799Z</time>
      </trkpt>
      <trkpt lat="48.81199" lon="-3.47031">
        <ele>70.598873</ele>
        <time>2020-09-06T21:58:28.214Z</time>
      </trkpt>
      <trkpt lat="48.81211" lon="-3.47032">
        <ele>70.340029</ele>
        <time>2020-09-06T21:58:30.117Z</time>
      </trkpt>
      <trkpt lat="48.81233" lon="-3.47016">
        <ele>69.839067</ele>
        <time>2020-09-06T21:58:33.971Z</time>
      </trkpt>
      <trkpt lat="48.81263" lon="-3.46982">
        <ele>68.955449</ele>
        <time>2020-09-06T21:58:39.958Z</time>
      </trkpt>
      <trkpt lat="48.813" lon="-3.46935">
        <ele>67.378261</ele>
        <time>2020-09-06T21:58:47.275Z</time>
      </trkpt>
      <trkpt lat="48.8135" lon="-3.46872">
        <ele>65.286404</ele>
        <time>2020-09-06T21:58:56.896Z</time>
      </trkpt>
      <trkpt lat="48.81361" lon="-3.46874">
        <ele>64.919877</ele>
        <time>2020-09-06T21:58:58.564Z</time>
      </trkpt>
      <trkpt lat="48.8141" lon="-3.4687">
        <ele>63.325815</ele>
        <time>2020-09-06T21:59:06.064Z</time>
      </trkpt>
      <trkpt lat="48.81413" lon="-3.4687">
        <ele>63.258889</ele>
        <time>2020-09-06T21:59:06.486Z</time>
      </trkpt>
      <trkpt lat="48.81417" lon="-3.4685">
        <ele>62.982763</ele>
        <time>2020-09-06T21:59:08.688Z</time>
      </trkpt>
      <trkpt lat="48.81434" lon="-3.46782">
        <ele>62.035232</ele>
        <time>2020-09-06T21:59:16.346Z</time>
      </trkpt>
      <trkpt lat="48.81437" lon="-3.46777">
        <ele>61.943246</ele>
        <time>2020-09-06T21:59:17.022Z</time>
      </trkpt>
      <trkpt lat="48.81448" lon="-3.468">
        <ele>61.571006</ele>
        <time>2020-09-06T21:59:19.907Z</time>
      </trkpt>
      <trkpt lat="48.81461" lon="-3.46821">
        <ele>61.202335</ele>
        <time>2020-09-06T21:59:22.856Z</time>
      </trkpt>
      <trkpt lat="48.81486" lon="-3.4685">
        <ele>60.564302</ele>
        <time>2020-09-06T21:59:28.227Z</time>
      </trkpt>
      <trkpt lat="48.81488" lon="-3.46844">
        <ele>60.481182</ele>
        <time>2020-09-06T21:59:28.866Z</time>
      </trkpt>
      <trkpt lat="48.81508" lon="-3.46761">
        <ele>59.409849</ele>
        <time>2020-09-06T21:59:38.751Z</time>
      </trkpt>
      <trkpt lat="48.81535" lon="-3.46772">
        <ele>58.970678</ele>
        <time>2020-09-06T21:59:43.794Z</time>
      </trkpt>
      <trkpt lat="48.8157" lon="-3.46778">
        <ele>58.438892</ele>
        <time>2020-09-06T21:59:49.946Z</time>
      </trkpt>
      <trkpt lat="48.81611" lon="-3.46773">
        <ele>57.805684</ele>
        <time>2020-09-06T21:59:56.737Z</time>
      </trkpt>
      <trkpt lat="48.81619" lon="-3.46762">
        <ele>57.627716</ele>
        <time>2020-09-06T21:59:58.663Z</time>
      </trkpt>
      <trkpt lat="48.81648" lon="-3.46752">
        <ele>57.174486</ele>
        <time>2020-09-06T22:00:03.440Z</time>
      </trkpt>
      <trkpt lat="48.81706" lon="-3.46741">
        <ele>56.29953</ele>
        <time>2020-09-06T22:00:13.260Z</time>
      </trkpt>
      <trkpt lat="48.81744" lon="-3.46732">
        <ele>55.74518</ele>
        <time>2020-09-06T22:00:19.487Z</time>
      </trkpt>
      <trkpt lat="48.81769" lon="-3.46725">
        <ele>55.362084</ele>
        <time>2020-09-06T22:00:23.925Z</time>
      </trkpt>
      <trkpt lat="48.81802" lon="-3.46729">
        <ele>54.881734</ele>
        <time>2020-09-06T22:00:29.519Z</time>
      </trkpt>
      <trkpt lat="48.81817" lon="-3.4672">
        <ele>54.641456</ele>
        <time>2020-09-06T22:00:32.501Z</time>
      </trkpt>
      <trkpt lat="48.81839" lon="-3.46711">
        <ele>54.317109</ele>
        <time>2020-09-06T22:00:36.706Z</time>
      </trkpt>
      <trkpt lat="48.81877" lon="-3.46679">
        <ele>54.040072</ele>
        <time>2020-09-06T22:00:44.911Z</time>
      </trkpt>
      <trkpt lat="48.81881" lon="-3.46675">
        <ele>54.014105</ele>
        <time>2020-09-06T22:00:45.723Z</time>
      </trkpt>
      <trkpt lat="48.81895" lon="-3.46708">
        <ele>53.849105</ele>
        <time>2020-09-06T22:00:50.713Z</time>
      </trkpt>
      <trkpt lat="48.81955" lon="-3.46679">
        <ele>53.455786</ele>
        <time>2020-09-06T22:01:02.805Z</time>
      </trkpt>
      <trkpt lat="48.81968" lon="-3.46655">
        <ele>53.326955</ele>
        <time>2020-09-06T22:01:06.604Z</time>
      </trkpt>
      <trkpt lat="48.81974" lon="-3.46638">
        <ele>53.247333</ele>
        <time>2020-09-06T22:01:08.943Z</time>
      </trkpt>
      <trkpt lat="48.81974" lon="-3.46638">
        <ele>53.247333</ele>
        <time>2020-09-06T22:01:08.947Z</time>
      </trkpt>
      <trkpt lat="48.81976" lon="-3.46639">
        <ele>53.233934</ele>
        <time>2020-09-06T22:01:10.361Z</time>
      </trkpt>
      <trkpt lat="48.82039" lon="-3.46654">
        <ele>51.543116</ele>
        <time>2020-09-06T22:01:54.791Z</time>
      </trkpt>
      <trkpt lat="48.82127" lon="-3.46713">
        <ele>48.76306</ele>
        <time>2020-09-06T22:03:01.472Z</time>
      </trkpt>
      <trkpt lat="48.82135" lon="-3.46727">
        <ele>48.410926</ele>
        <time>2020-09-06T22:03:09.912Z</time>
      </trkpt>
      <trkpt lat="48.82136" lon="-3.46752">
        <ele>47.9427</ele>
        <time>2020-09-06T22:03:21.521Z</time>
      </trkpt>
      <trkpt lat="48.82144" lon="-3.46777">
        <ele>47.599336</ele>
        <time>2020-09-06T22:03:34.024Z</time>
      </trkpt>
      <trkpt lat="48.82162" lon="-3.4682">
        <ele>46.949838</ele>
        <time>2020-09-06T22:03:57.609Z</time>
      </trkpt>
      <trkpt lat="48.82168" lon="-3.46828">
        <ele>46.794238</ele>
        <time>2020-09-06T22:04:03.275Z</time>
      </trkpt>
      <trkpt lat="48.82182" lon="-3.46842">
        <ele>46.481815</ele>
        <time>2020-09-06T22:04:14.654Z</time>
      </trkpt>
      <trkpt lat="48.82182" lon="-3.46842">
        <ele>46.481815</ele>
        <time>2020-09-06T22:04:14.808Z</time>
      </trkpt>
      <trkpt lat="48.82182" lon="-3.46842">
        <ele>46.481815</ele>
        <time>2020-09-06T22:04:14.967Z</time>
      </trkpt>
      <trkpt lat="48.82199" lon="-3.46833">
        <ele>46.12695</ele>
        <time>2020-09-06T22:04:27.781Z</time>
      </trkpt>
      <trkpt lat="48.82212" lon="-3.46824">
        <ele>45.850763</ele>
        <time>2020-09-06T22:04:37.825Z</time>
      </trkpt>
      <trkpt lat="48.82217" lon="-3.4682">
        <ele>45.757334</ele>
        <time>2020-09-06T22:04:41.197Z</time>
      </trkpt>
      <trkpt lat="48.82243" lon="-3.4686">
        <ele>45.041433</ele>
        <time>2020-09-06T22:04:47.813Z</time>
      </trkpt>
      <trkpt lat="48.82298" lon="-3.46973">
        <ele>46.155009</ele>
        <time>2020-09-06T22:05:09.506Z</time>
      </trkpt>
      <trkpt lat="48.82301" lon="-3.46979">
        <ele>46.275491</ele>
        <time>2020-09-06T22:05:12.767Z</time>
      </trkpt>
      <trkpt lat="48.82309" lon="-3.46995">
        <ele>46.608155</ele>
        <time>2020-09-06T22:05:16.568Z</time>
      </trkpt>
      <trkpt lat="48.82315" lon="-3.47015">
        <ele>46.957207</ele>
        <time>2020-09-06T22:05:21.435Z</time>
      </trkpt>
      <trkpt lat="48.8233" lon="-3.47064">
        <ele>47.838452</ele>
        <time>2020-09-06T22:05:35.753Z</time>
      </trkpt>
      <trkpt lat="48.8233" lon="-3.47088">
        <ele>48.238251</ele>
        <time>2020-09-06T22:05:42.498Z</time>
      </trkpt>
      <trkpt lat="48.82321" lon="-3.47144">
        <ele>48.997206</ele>
        <time>2020-09-06T22:05:56.145Z</time>
      </trkpt>
      <trkpt lat="48.8232" lon="-3.47148">
        <ele>48.996491</ele>
        <time>2020-09-06T22:05:57.840Z</time>
      </trkpt>
      <trkpt lat="48.82375" lon="-3.47165">
        <ele>48.983039</ele>
        <time>2020-09-06T22:06:15.353Z</time>
      </trkpt>
      <trkpt lat="48.82375" lon="-3.4717">
        <ele>48.98225</ele>
        <time>2020-09-06T22:06:16.279Z</time>
      </trkpt>
      <trkpt lat="48.82394" lon="-3.47254">
        <ele>48.96821</ele>
        <time>2020-09-06T22:06:27.170Z</time>
      </trkpt>
      <trkpt lat="48.82399" lon="-3.47266">
        <ele>48.966072</ele>
        <time>2020-09-06T22:06:28.598Z</time>
      </trkpt>
      <trkpt lat="48.82396" lon="-3.47284">
        <ele>48.963249</ele>
        <time>2020-09-06T22:06:36.809Z</time>
      </trkpt>
      <trkpt lat="48.82397" lon="-3.47308">
        <ele>48.959486</ele>
        <time>2020-09-06T22:06:47.717Z</time>
      </trkpt>
      <trkpt lat="48.8239" lon="-3.47336">
        <ele>48.709316</ele>
        <time>2020-09-06T22:07:01.797Z</time>
      </trkpt>
      <trkpt lat="48.82365" lon="-3.47355">
        <ele>47.283726</ele>
        <time>2020-09-06T22:07:21.742Z</time>
      </trkpt>
      <trkpt lat="48.82346" lon="-3.47355">
        <ele>46.358016</ele>
        <time>2020-09-06T22:07:34.648Z</time>
      </trkpt>
      <trkpt lat="48.82343" lon="-3.47385">
        <ele>45.384634</ele>
        <time>2020-09-06T22:07:48.290Z</time>
      </trkpt>
      <trkpt lat="48.82332" lon="-3.47494">
        <ele>41.756049</ele>
        <time>2020-09-06T22:08:39.180Z</time>
      </trkpt>
      <trkpt lat="48.8233" lon="-3.47508">
        <ele>41.298322</ele>
        <time>2020-09-06T22:08:45.585Z</time>
      </trkpt>
      <trkpt lat="48.82327" lon="-3.47526">
        <ele>40.681555</ele>
        <time>2020-09-06T22:08:54.218Z</time>
      </trkpt>
      <trkpt lat="48.82323" lon="-3.47564">
        <ele>39.464871</ele>
        <time>2020-09-06T22:08:57.713Z</time>
      </trkpt>
      <trkpt lat="48.82315" lon="-3.47633">
        <ele>37.309897</ele>
        <time>2020-09-06T22:09:04.108Z</time>
      </trkpt>
      <trkpt lat="48.82315" lon="-3.4766">
        <ele>36.471421</ele>
        <time>2020-09-06T22:09:06.782Z</time>
      </trkpt>
      <trkpt lat="48.8232" lon="-3.47671">
        <ele>36.076207</ele>
        <time>2020-09-06T22:09:07.916Z</time>
      </trkpt>
      <trkpt lat="48.82334" lon="-3.47669">
        <ele>35.415456</ele>
        <time>2020-09-06T22:09:09.999Z</time>
      </trkpt>
      <trkpt lat="48.82368" lon="-3.47664">
        <ele>33.82264</ele>
        <time>2020-09-06T22:09:14.847Z</time>
      </trkpt>
      <trkpt lat="48.82408" lon="-3.47664">
        <ele>31.961779</ele>
        <time>2020-09-06T22:09:20.944Z</time>
      </trkpt>
      <trkpt lat="48.8242" lon="-3.47663">
        <ele>31.468943</ele>
        <time>2020-09-06T22:09:22.945Z</time>
      </trkpt>
      <trkpt lat="48.82427" lon="-3.47662">
        <ele>31.264634</ele>
        <time>2020-09-06T22:09:23.973Z</time>
      </trkpt>
      <trkpt lat="48.82469" lon="-3.47646">
        <ele>30.026315</ele>
        <time>2020-09-06T22:09:30.745Z</time>
      </trkpt>
      <trkpt lat="48.82472" lon="-3.47649">
        <ele>29.917935</ele>
        <time>2020-09-06T22:09:31.320Z</time>
      </trkpt>
      <trkpt lat="48.82482" lon="-3.47634">
        <ele>29.506801</ele>
        <time>2020-09-06T22:09:33.591Z</time>
      </trkpt>
      <trkpt lat="48.82486" lon="-3.47637">
        <ele>29.391876</ele>
        <time>2020-09-06T22:09:34.421Z</time>
      </trkpt>
      <trkpt lat="48.82488" lon="-3.47638">
        <ele>29.32427</ele>
        <time>2020-09-06T22:09:34.909Z</time>
      </trkpt>
      <trkpt lat="48.82499" lon="-3.47642">
        <ele>29.008411</ele>
        <time>2020-09-06T22:09:37.163Z</time>
      </trkpt>
      <trkpt lat="48.82613" lon="-3.47672">
        <ele>25.662031</ele>
        <time>2020-09-06T22:10:00.438Z</time>
      </trkpt>
      <trkpt lat="48.82642" lon="-3.47693">
        <ele>24.74329</ele>
        <time>2020-09-06T22:10:06.994Z</time>
      </trkpt>
      <trkpt lat="48.82645" lon="-3.47693">
        <ele>24.653239</ele>
        <time>2020-09-06T22:10:07.560Z</time>
      </trkpt>
      <trkpt lat="48.82648" lon="-3.47728">
        <ele>23.9904</ele>
        <time>2020-09-06T22:10:13.516Z</time>
      </trkpt>
      <trkpt lat="48.82659" lon="-3.47816">
        <ele>22.290883</ele>
        <time>2020-09-06T22:10:28.806Z</time>
      </trkpt>
      <trkpt lat="48.82697" lon="-3.47873">
        <ele>20.978021</ele>
        <time>2020-09-06T22:10:43.274Z</time>
      </trkpt>
      <trkpt lat="48.82704" lon="-3.47884">
        <ele>20.813009</ele>
        <time>2020-09-06T22:10:45.919Z</time>
      </trkpt>
      <trkpt lat="48.82708" lon="-3.47897">
        <ele>20.660879</ele>
        <time>2020-09-06T22:10:48.238Z</time>
      </trkpt>
      <trkpt lat="48.82709" lon="-3.47901">
        <ele>20.611834</ele>
        <time>2020-09-06T22:10:48.745Z</time>
      </trkpt>
      <trkpt lat="48.82728" lon="-3.47932">
        <ele>20.151537</ele>
        <time>2020-09-06T22:10:53.529Z</time>
      </trkpt>
      <trkpt lat="48.82762" lon="-3.47974">
        <ele>19.433119</ele>
        <time>2020-09-06T22:11:01.071Z</time>
      </trkpt>
      <trkpt lat="48.82731" lon="-3.48038">
        <ele>18.572023</ele>
        <time>2020-09-06T22:11:10.397Z</time>
      </trkpt>
      <trkpt lat="48.82705" lon="-3.4809">
        <ele>17.985969</ele>
        <time>2020-09-06T22:11:17.906Z</time>
      </trkpt>
      <trkpt lat="48.8265" lon="-3.48198">
        <ele>16.910803</ele>
        <time>2020-09-06T22:11:34.426Z</time>
      </trkpt>
      <trkpt lat="48.82646" lon="-3.48206">
        <ele>16.831402</ele>
        <time>2020-09-06T22:11:35.491Z</time>
      </trkpt>
      <trkpt lat="48.82652" lon="-3.48213">
        <ele>16.740371</ele>
        <time>2020-09-06T22:11:36.761Z</time>
      </trkpt>
      <trkpt lat="48.82672" lon="-3.48231">
        <ele>16.464803</ele>
        <time>2020-09-06T22:11:40.512Z</time>
      </trkpt>
      <trkpt lat="48.82699" lon="-3.48255">
        <ele>16.016591</ele>
        <time>2020-09-06T22:11:45.580Z</time>
      </trkpt>
      <trkpt lat="48.82694" lon="-3.48279">
        <ele>15.609732</ele>
        <time>2020-09-06T22:11:48.429Z</time>
      </trkpt>
      <trkpt lat="48.82688" lon="-3.48321">
        <ele>14.941184</ele>
        <time>2020-09-06T22:11:53.130Z</time>
      </trkpt>
      <trkpt lat="48.82674" lon="-3.48343">
        <ele>14.468444</ele>
        <time>2020-09-06T22:11:56.310Z</time>
      </trkpt>
      <trkpt lat="48.82653" lon="-3.48359">
        <ele>13.905681</ele>
        <time>2020-09-06T22:12:00.003Z</time>
      </trkpt>
      <trkpt lat="48.82651" lon="-3.48367">
        <ele>13.772086</ele>
        <time>2020-09-06T22:12:00.877Z</time>
      </trkpt>
      <trkpt lat="48.82689" lon="-3.48461">
        <ele>12.041843</ele>
        <time>2020-09-06T22:12:12.368Z</time>
      </trkpt>
      <trkpt lat="48.82688" lon="-3.48489">
        <ele>11.644048</ele>
        <time>2020-09-06T22:12:15.380Z</time>
      </trkpt>
      <trkpt lat="48.82706" lon="-3.48505">
        <ele>11.219599</ele>
        <time>2020-09-06T22:12:18.655Z</time>
      </trkpt>
      <trkpt lat="48.82729" lon="-3.48535">
        <ele>10.601908</ele>
        <time>2020-09-06T22:12:40.091Z</time>
      </trkpt>
      <trkpt lat="48.82741" lon="-3.48551">
        <ele>10.286883</ele>
        <time>2020-09-06T22:12:42.597Z</time>
      </trkpt>
      <trkpt lat="48.82732" lon="-3.48556">
        <ele>10.090072</ele>
        <time>2020-09-06T22:12:44.149Z</time>
      </trkpt>
      <trkpt lat="48.82668" lon="-3.48546">
        <ele>8.792444</ele>
        <time>2020-09-06T22:12:54.227Z</time>
      </trkpt>
      <trkpt lat="48.82655" lon="-3.48538">
        <ele>8.522221</ele>
        <time>2020-09-06T22:12:56.412Z</time>
      </trkpt>
      <trkpt lat="48.82645" lon="-3.48547">
        <ele>8.283427</ele>
        <time>2020-09-06T22:12:58.515Z</time>
      </trkpt>
      <trkpt lat="48.82639" lon="-3.48557">
        <ele>8.218549</ele>
        <time>2020-09-06T22:12:59.870Z</time>
      </trkpt>
      <trkpt lat="48.826" lon="-3.48623">
        <ele>7.837769</ele>
        <time>2020-09-06T22:13:10.994Z</time>
      </trkpt>
      <trkpt lat="48.82574" lon="-3.48656">
        <ele>7.615242</ele>
        <time>2020-09-06T22:13:17.418Z</time>
      </trkpt>
      <trkpt lat="48.82572" lon="-3.48661">
        <ele>7.586749</ele>
        <time>2020-09-06T22:13:18.974Z</time>
      </trkpt>
      <trkpt lat="48.82569" lon="-3.48672">
        <ele>7.540363</ele>
        <time>2020-09-06T22:13:23.941Z</time>
      </trkpt>
      <trkpt lat="48.82595" lon="-3.48799">
        <ele>6.859252</ele>
        <time>2020-09-06T22:14:25.094Z</time>
      </trkpt>
      <trkpt lat="48.82594" lon="-3.48873">
        <ele>6.278419</ele>
        <time>2020-09-06T22:14:59.014Z</time>
      </trkpt>
      <trkpt lat="48.82593" lon="-3.48875">
        <ele>6.252027</ele>
        <time>2020-09-06T22:15:00.562Z</time>
      </trkpt>
      <trkpt lat="48.82584" lon="-3.48891">
        <ele>6.093954</ele>
        <time>2020-09-06T22:15:09.781Z</time>
      </trkpt>
      <trkpt lat="48.82551" lon="-3.48913">
        <ele>5.66051</ele>
        <time>2020-09-06T22:15:35.079Z</time>
      </trkpt>
      <trkpt lat="48.82531" lon="-3.48927">
        <ele>5.400072</ele>
        <time>2020-09-06T22:15:50.264Z</time>
      </trkpt>
      <trkpt lat="48.82548" lon="-3.48995">
        <ele>4.843525</ele>
        <time>2020-09-06T22:15:57.828Z</time>
      </trkpt>
      <trkpt lat="48.82558" lon="-3.49037">
        <ele>4.534434</ele>
        <time>2020-09-06T22:16:02.721Z</time>
      </trkpt>
      <trkpt lat="48.82561" lon="-3.4906">
        <ele>4.375111</ele>
        <time>2020-09-06T22:16:05.052Z</time>
      </trkpt>
      <trkpt lat="48.82563" lon="-3.49077">
        <ele>4.254234</ele>
        <time>2020-09-06T22:16:07.112Z</time>
      </trkpt>
      <trkpt lat="48.82564" lon="-3.49096">
        <ele>4.123662</ele>
        <time>2020-09-06T22:16:09.197Z</time>
      </trkpt>
      <trkpt lat="48.82564" lon="-3.49124">
        <ele>3.92544</ele>
        <time>2020-09-06T22:16:12.338Z</time>
      </trkpt>
      <trkpt lat="48.82568" lon="-3.49125">
        <ele>3.882517</ele>
        <time>2020-09-06T22:16:13.317Z</time>
      </trkpt>
      <trkpt lat="48.8258" lon="-3.49128">
        <ele>3.752823</ele>
        <time>2020-09-06T22:16:16.168Z</time>
      </trkpt>
      <trkpt lat="48.8259" lon="-3.49129">
        <ele>3.651294</ele>
        <time>2020-09-06T22:16:18.230Z</time>
      </trkpt>
      <trkpt lat="48.82605" lon="-3.49133">
        <ele>3.488083</ele>
        <time>2020-09-06T22:16:21.005Z</time>
      </trkpt>
      <trkpt lat="48.82643" lon="-3.49159">
        <ele>3.059071</ele>
        <time>2020-09-06T22:16:28.566Z</time>
      </trkpt>
      <trkpt lat="48.82666" lon="-3.49186">
        <ele>3.178859</ele>
        <time>2020-09-06T22:16:34.100Z</time>
      </trkpt>
      <trkpt lat="48.82683" lon="-3.49208">
        <ele>3.270696</ele>
        <time>2020-09-06T22:16:39.277Z</time>
      </trkpt>
      <trkpt lat="48.82686" lon="-3.49211">
        <ele>3.283373</ele>
        <time>2020-09-06T22:16:39.930Z</time>
      </trkpt>
      <trkpt lat="48.8273" lon="-3.4926">
        <ele>3.508798</ele>
        <time>2020-09-06T22:16:53.272Z</time>
      </trkpt>
      <trkpt lat="48.82732" lon="-3.49265">
        <ele>3.523014</ele>
        <time>2020-09-06T22:16:54.278Z</time>
      </trkpt>
      <trkpt lat="48.82729" lon="-3.49275">
        <ele>3.553013</ele>
        <time>2020-09-06T22:16:56.047Z</time>
      </trkpt>
      <trkpt lat="48.82721" lon="-3.493">
        <ele>3.628356</ele>
        <time>2020-09-06T22:17:00.340Z</time>
      </trkpt>
      <trkpt lat="48.82712" lon="-3.49328">
        <ele>3.711652</ele>
        <time>2020-09-06T22:17:05.615Z</time>
      </trkpt>
      <trkpt lat="48.82688" lon="-3.49388">
        <ele>3.873305</ele>
        <time>2020-09-06T22:17:16.376Z</time>
      </trkpt>
      <trkpt lat="48.82688" lon="-3.49467">
        <ele>4.036097</ele>
        <time>2020-09-06T22:17:28.605Z</time>
      </trkpt>
      <trkpt lat="48.82739" lon="-3.49444">
        <ele>4.201984</ele>
        <time>2020-09-06T22:17:46.222Z</time>
      </trkpt>
      <trkpt lat="48.82758" lon="-3.49435">
        <ele>4.26192</ele>
        <time>2020-09-06T22:17:52.639Z</time>
      </trkpt>
      <trkpt lat="48.82808" lon="-3.49427">
        <ele>4.341377</ele>
        <time>2020-09-06T22:18:08.215Z</time>
      </trkpt>
      <trkpt lat="48.82817" lon="-3.4942">
        <ele>4.337394</ele>
        <time>2020-09-06T22:18:11.558Z</time>
      </trkpt>
      <trkpt lat="48.8282" lon="-3.49456">
        <ele>4.328411</ele>
        <time>2020-09-06T22:18:16.277Z</time>
      </trkpt>
      <trkpt lat="48.82826" lon="-3.49502">
        <ele>4.316806</ele>
        <time>2020-09-06T22:18:22.797Z</time>
      </trkpt>
      <trkpt lat="48.82827" lon="-3.49531">
        <ele>4.309824</ele>
        <time>2020-09-06T22:18:26.727Z</time>
      </trkpt>
      <trkpt lat="48.82843" lon="-3.49571">
        <ele>4.298261</ele>
        <time>2020-09-06T22:18:32.923Z</time>
      </trkpt>
      <trkpt lat="48.82863" lon="-3.49622">
        <ele>4.283446</ele>
        <time>2020-09-06T22:18:46.150Z</time>
      </trkpt>
      <trkpt lat="48.82883" lon="-3.49647">
        <ele>4.381136</ele>
        <time>2020-09-06T22:18:54.715Z</time>
      </trkpt>
      <trkpt lat="48.82889" lon="-3.49654">
        <ele>4.417573</ele>
        <time>2020-09-06T22:18:57.210Z</time>
      </trkpt>
      <trkpt lat="48.82897" lon="-3.49658">
        <ele>4.454911</ele>
        <time>2020-09-06T22:19:00.899Z</time>
      </trkpt>
      <trkpt lat="48.82935" lon="-3.49671">
        <ele>4.627843</ele>
        <time>2020-09-06T22:19:13.819Z</time>
      </trkpt>
      <trkpt lat="48.82936" lon="-3.49684">
        <ele>4.666087</ele>
        <time>2020-09-06T22:19:16.396Z</time>
      </trkpt>
      <trkpt lat="48.82922" lon="-3.49752">
        <ele>4.876189</ele>
        <time>2020-09-06T22:19:32.169Z</time>
      </trkpt>
      <trkpt lat="48.82923" lon="-3.49771">
        <ele>4.930991</ele>
        <time>2020-09-06T22:19:36.907Z</time>
      </trkpt>
      <trkpt lat="48.82924" lon="-3.49773">
        <ele>4.938852</ele>
        <time>2020-09-06T22:19:38.346Z</time>
      </trkpt>
      <trkpt lat="48.82929" lon="-3.49783">
        <ele>4.974865</ele>
        <time>2020-09-06T22:19:40.817Z</time>
      </trkpt>
      <trkpt lat="48.82937" lon="-3.49839">
        <ele>5.038064</ele>
        <time>2020-09-06T22:19:54.542Z</time>
      </trkpt>
      <trkpt lat="48.82936" lon="-3.49873">
        <ele>4.961615</ele>
        <time>2020-09-06T22:20:02.227Z</time>
      </trkpt>
      <trkpt lat="48.82879" lon="-3.49867">
        <ele>4.768904</ele>
        <time>2020-09-06T22:20:20.153Z</time>
      </trkpt>
      <trkpt lat="48.82865" lon="-3.49865">
        <ele>4.720718</ele>
        <time>2020-09-06T22:20:24.571Z</time>
      </trkpt>
      <trkpt lat="48.82798" lon="-3.499">
        <ele>4.481984</ele>
        <time>2020-09-06T22:20:44.946Z</time>
      </trkpt>
      <trkpt lat="48.82786" lon="-3.4991">
        <ele>4.339649</ele>
        <time>2020-09-06T22:20:49.056Z</time>
      </trkpt>
      <trkpt lat="48.82787" lon="-3.49925">
        <ele>4.220077</ele>
        <time>2020-09-06T22:20:51.955Z</time>
      </trkpt>
      <trkpt lat="48.82779" lon="-3.50001">
        <ele>3.646542</ele>
        <time>2020-09-06T22:21:07.127Z</time>
      </trkpt>
      <trkpt lat="48.82773" lon="-3.50014">
        <ele>3.532567</ele>
        <time>2020-09-06T22:21:09.875Z</time>
      </trkpt>
      <trkpt lat="48.82771" lon="-3.50014">
        <ele>3.502937</ele>
        <time>2020-09-06T22:21:10.573Z</time>
      </trkpt>
      <trkpt lat="48.82752" lon="-3.50005">
        <ele>3.27642</ele>
        <time>2020-09-06T22:21:16.353Z</time>
      </trkpt>
      <trkpt lat="48.82707" lon="-3.50003">
        <ele>2.77074</ele>
        <time>2020-09-06T22:21:28.917Z</time>
      </trkpt>
      <trkpt lat="48.82664" lon="-3.50021">
        <ele>2.451949</ele>
        <time>2020-09-06T22:21:41.613Z</time>
      </trkpt>
      <trkpt lat="48.82657" lon="-3.50141">
        <ele>2.586957</ele>
        <time>2020-09-06T22:22:07.151Z</time>
      </trkpt>
      <trkpt lat="48.82646" lon="-3.50127">
        <ele>2.610165</ele>
        <time>2020-09-06T22:22:11.786Z</time>
      </trkpt>
      <trkpt lat="48.82623" lon="-3.50087">
        <ele>2.67004</ele>
        <time>2020-09-06T22:22:24.413Z</time>
      </trkpt>
      <trkpt lat="48.82595" lon="-3.50055">
        <ele>2.72969</ele>
        <time>2020-09-06T22:22:37.140Z</time>
      </trkpt>
      <trkpt lat="48.82578" lon="-3.50036">
        <ele>2.980723</ele>
        <time>2020-09-06T22:22:45.579Z</time>
      </trkpt>
      <trkpt lat="48.82566" lon="-3.50032">
        <ele>3.130743</ele>
        <time>2020-09-06T22:22:49.920Z</time>
      </trkpt>
      <trkpt lat="48.82557" lon="-3.50027">
        <ele>3.250982</ele>
        <time>2020-09-06T22:22:53.586Z</time>
      </trkpt>
      <trkpt lat="48.82544" lon="-3.50027">
        <ele>3.405686</ele>
        <time>2020-09-06T22:22:58.729Z</time>
      </trkpt>
      <trkpt lat="48.8248" lon="-3.50042">
        <ele>4.197098</ele>
        <time>2020-09-06T22:23:23.449Z</time>
      </trkpt>
      <trkpt lat="48.82455" lon="-3.50069">
        <ele>4.579588</ele>
        <time>2020-09-06T22:23:35.283Z</time>
      </trkpt>
      <trkpt lat="48.82454" lon="-3.50076">
        <ele>4.638912</ele>
        <time>2020-09-06T22:23:37.401Z</time>
      </trkpt>
      <trkpt lat="48.82446" lon="-3.50066">
        <ele>4.766115</ele>
        <time>2020-09-06T22:23:41.430Z</time>
      </trkpt>
      <trkpt lat="48.82414" lon="-3.50057">
        <ele>5.147069</ele>
        <time>2020-09-06T22:23:53.781Z</time>
      </trkpt>
      <trkpt lat="48.82411" lon="-3.50031">
        <ele>5.338685</ele>
        <time>2020-09-06T22:23:58.606Z</time>
      </trkpt>
      <trkpt lat="48.82408" lon="-3.50026">
        <ele>5.38718</ele>
        <time>2020-09-06T22:23:59.780Z</time>
      </trkpt>
      <trkpt lat="48.82368" lon="-3.50024">
        <ele>5.833728</ele>
        <time>2020-09-06T22:24:11.429Z</time>
      </trkpt>
      <trkpt lat="48.82362" lon="-3.50024">
        <ele>5.907441</ele>
        <time>2020-09-06T22:24:13.527Z</time>
      </trkpt>
      <trkpt lat="48.82359" lon="-3.50036">
        <ele>6.004799</ele>
        <time>2020-09-06T22:24:15.579Z</time>
      </trkpt>
      <trkpt lat="48.82356" lon="-3.50035">
        <ele>6.035837</ele>
        <time>2020-09-06T22:24:16.255Z</time>
      </trkpt>
      <trkpt lat="48.82263" lon="-3.50071">
        <ele>7.349359</ele>
        <time>2020-09-06T22:24:40.384Z</time>
      </trkpt>
      <trkpt lat="48.82208" lon="-3.50093">
        <ele>8.96249</ele>
        <time>2020-09-06T22:24:56.482Z</time>
      </trkpt>
      <trkpt lat="48.82198" lon="-3.50096">
        <ele>9.243213</ele>
        <time>2020-09-06T22:25:00.264Z</time>
      </trkpt>
      <trkpt lat="48.82175" lon="-3.50104">
        <ele>9.914544</ele>
        <time>2020-09-06T22:25:08.420Z</time>
      </trkpt>
      <trkpt lat="48.82155" lon="-3.5011">
        <ele>10.486853</ele>
        <time>2020-09-06T22:25:16.415Z</time>
      </trkpt>
      <trkpt lat="48.82145" lon="-3.5011">
        <ele>10.759221</ele>
        <time>2020-09-06T22:25:19.606Z</time>
      </trkpt>
      <trkpt lat="48.82134" lon="-3.50111">
        <ele>11.065372</ele>
        <time>2020-09-06T22:25:23.032Z</time>
      </trkpt>
      <trkpt lat="48.82122" lon="-3.50109">
        <ele>11.411453</ele>
        <time>2020-09-06T22:25:28.429Z</time>
      </trkpt>
      <trkpt lat="48.82082" lon="-3.50104">
        <ele>12.708839</ele>
        <time>2020-09-06T22:25:44.437Z</time>
      </trkpt>
      <trkpt lat="48.82057" lon="-3.50097">
        <ele>13.635653</ele>
        <time>2020-09-06T22:25:54.040Z</time>
      </trkpt>
      <trkpt lat="48.82045" lon="-3.50094">
        <ele>14.078579</ele>
        <time>2020-09-06T22:26:00.216Z</time>
      </trkpt>
      <trkpt lat="48.8195" lon="-3.50057">
        <ele>17.651158</ele>
        <time>2020-09-06T22:26:37.227Z</time>
      </trkpt>
      <trkpt lat="48.81937" lon="-3.50051">
        <ele>18.180779</ele>
        <time>2020-09-06T22:26:43.383Z</time>
      </trkpt>
      <trkpt lat="48.81923" lon="-3.50054">
        <ele>18.6011</ele>
        <time>2020-09-06T22:26:47.559Z</time>
      </trkpt>
      <trkpt lat="48.81894" lon="-3.50073">
        <ele>18.758025</ele>
        <time>2020-09-06T22:26:57.627Z</time>
      </trkpt>
      <trkpt lat="48.8188" lon="-3.50111">
        <ele>18.900485</ele>
        <time>2020-09-06T22:27:04.932Z</time>
      </trkpt>
      <trkpt lat="48.81879" lon="-3.5013">
        <ele>18.961901</ele>
        <time>2020-09-06T22:27:07.720Z</time>
      </trkpt>
      <trkpt lat="48.81879" lon="-3.50144">
        <ele>19.007273</ele>
        <time>2020-09-06T22:27:09.682Z</time>
      </trkpt>
      <trkpt lat="48.81879" lon="-3.50165">
        <ele>19.07497</ele>
        <time>2020-09-06T22:27:13.022Z</time>
      </trkpt>
      <trkpt lat="48.81876" lon="-3.50174">
        <ele>19.107249</ele>
        <time>2020-09-06T22:27:14.320Z</time>
      </trkpt>
      <trkpt lat="48.81873" lon="-3.50177">
        <ele>19.12158</ele>
        <time>2020-09-06T22:27:14.901Z</time>
      </trkpt>
      <trkpt lat="48.81869" lon="-3.50182">
        <ele>19.14865</ele>
        <time>2020-09-06T22:27:15.949Z</time>
      </trkpt>
      <trkpt lat="48.81851" lon="-3.5021">
        <ele>19.278517</ele>
        <time>2020-09-06T22:27:21.388Z</time>
      </trkpt>
      <trkpt lat="48.81848" lon="-3.50214">
        <ele>19.295341</ele>
        <time>2020-09-06T22:27:22.022Z</time>
      </trkpt>
      <trkpt lat="48.81841" lon="-3.5023">
        <ele>19.357034</ele>
        <time>2020-09-06T22:27:24.278Z</time>
      </trkpt>
      <trkpt lat="48.81838" lon="-3.50237">
        <ele>19.385984</ele>
        <time>2020-09-06T22:27:25.216Z</time>
      </trkpt>
      <trkpt lat="48.8183" lon="-3.50249">
        <ele>19.442227</ele>
        <time>2020-09-06T22:27:27.266Z</time>
      </trkpt>
      <trkpt lat="48.81788" lon="-3.50279">
        <ele>18.713191</ele>
        <time>2020-09-06T22:27:34.902Z</time>
      </trkpt>
      <trkpt lat="48.81772" lon="-3.50313">
        <ele>18.185942</ele>
        <time>2020-09-06T22:27:39.440Z</time>
      </trkpt>
      <trkpt lat="48.81771" lon="-3.50331">
        <ele>17.961389</ele>
        <time>2020-09-06T22:27:41.243Z</time>
      </trkpt>
      <trkpt lat="48.81767" lon="-3.50377">
        <ele>17.374957</ele>
        <time>2020-09-06T22:27:46.235Z</time>
      </trkpt>
      <trkpt lat="48.81778" lon="-3.50483">
        <ele>16.01649</ele>
        <time>2020-09-06T22:27:57.917Z</time>
      </trkpt>
      <trkpt lat="48.81778" lon="-3.50488">
        <ele>15.990112</ele>
        <time>2020-09-06T22:27:58.323Z</time>
      </trkpt>
      <trkpt lat="48.81794" lon="-3.50499">
        <ele>15.839707</ele>
        <time>2020-09-06T22:28:01.339Z</time>
      </trkpt>
      <trkpt lat="48.81812" lon="-3.50523">
        <ele>15.633007</ele>
        <time>2020-09-06T22:28:05.382Z</time>
      </trkpt>
      <trkpt lat="48.8182" lon="-3.50538">
        <ele>15.518714</ele>
        <time>2020-09-06T22:28:07.718Z</time>
      </trkpt>
      <trkpt lat="48.81832" lon="-3.5056">
        <ele>15.35818</ele>
        <time>2020-09-06T22:28:10.946Z</time>
      </trkpt>
      <trkpt lat="48.81832" lon="-3.50563">
        <ele>15.335784</ele>
        <time>2020-09-06T22:28:11.428Z</time>
      </trkpt>
      <trkpt lat="48.81823" lon="-3.50637">
        <ele>14.909784</ele>
        <time>2020-09-06T22:28:20.095Z</time>
      </trkpt>
      <trkpt lat="48.81821" lon="-3.50656">
        <ele>14.796961</ele>
        <time>2020-09-06T22:28:22.799Z</time>
      </trkpt>
      <trkpt lat="48.81819" lon="-3.5067">
        <ele>14.713971</ele>
        <time>2020-09-06T22:28:24.349Z</time>
      </trkpt>
      <trkpt lat="48.81819" lon="-3.50677">
        <ele>14.676464</ele>
        <time>2020-09-06T22:28:25.179Z</time>
      </trkpt>
      <trkpt lat="48.81813" lon="-3.50728">
        <ele>14.433786</ele>
        <time>2020-09-06T22:28:31.830Z</time>
      </trkpt>
      <trkpt lat="48.81813" lon="-3.50732">
        <ele>14.425678</ele>
        <time>2020-09-06T22:28:32.439Z</time>
      </trkpt>
      <trkpt lat="48.81813" lon="-3.50736">
        <ele>14.420564</ele>
        <time>2020-09-06T22:28:32.818Z</time>
      </trkpt>
      <trkpt lat="48.81815" lon="-3.50737">
        <ele>14.415598</ele>
        <time>2020-09-06T22:28:33.192Z</time>
      </trkpt>
      <trkpt lat="48.81816" lon="-3.5074">
        <ele>14.410518</ele>
        <time>2020-09-06T22:28:33.568Z</time>
      </trkpt>
      <trkpt lat="48.81817" lon="-3.50743">
        <ele>14.40537</ele>
        <time>2020-09-06T22:28:33.947Z</time>
      </trkpt>
      <trkpt lat="48.81816" lon="-3.50746">
        <ele>14.400419</ele>
        <time>2020-09-06T22:28:34.339Z</time>
      </trkpt>
      <trkpt lat="48.81816" lon="-3.50749">
        <ele>14.395654</ele>
        <time>2020-09-06T22:28:34.729Z</time>
      </trkpt>
      <trkpt lat="48.81815" lon="-3.50751">
        <ele>14.390963</ele>
        <time>2020-09-06T22:28:35.117Z</time>
      </trkpt>
      <trkpt lat="48.81813" lon="-3.50752">
        <ele>14.38606</ele>
        <time>2020-09-06T22:28:35.507Z</time>
      </trkpt>
      <trkpt lat="48.81811" lon="-3.50756">
        <ele>14.378622</ele>
        <time>2020-09-06T22:28:36.125Z</time>
      </trkpt>
      <trkpt lat="48.8181" lon="-3.5076">
        <ele>14.372024</ele>
        <time>2020-09-06T22:28:36.674Z</time>
      </trkpt>
      <trkpt lat="48.81799" lon="-3.5088">
        <ele>14.173475</ele>
        <time>2020-09-06T22:28:51.963Z</time>
      </trkpt>
      <trkpt lat="48.81793" lon="-3.50944">
        <ele>14.065756</ele>
        <time>2020-09-06T22:28:59.758Z</time>
      </trkpt>
      <trkpt lat="48.8178" lon="-3.51046">
        <ele>13.644311</ele>
        <time>2020-09-06T22:29:11.877Z</time>
      </trkpt>
      <trkpt lat="48.81775" lon="-3.51066">
        <ele>13.531727</ele>
        <time>2020-09-06T22:29:14.123Z</time>
      </trkpt>
      <trkpt lat="48.8177" lon="-3.51077">
        <ele>13.459316</ele>
        <time>2020-09-06T22:29:15.691Z</time>
      </trkpt>
      <trkpt lat="48.81765" lon="-3.51089">
        <ele>13.386016</ele>
        <time>2020-09-06T22:29:17.317Z</time>
      </trkpt>
      <trkpt lat="48.81754" lon="-3.51111">
        <ele>13.237203</ele>
        <time>2020-09-06T22:29:20.277Z</time>
      </trkpt>
      <trkpt lat="48.81751" lon="-3.5112">
        <ele>13.181139</ele>
        <time>2020-09-06T22:29:21.469Z</time>
      </trkpt>
      <trkpt lat="48.81746" lon="-3.51137">
        <ele>13.080801</ele>
        <time>2020-09-06T22:29:23.606Z</time>
      </trkpt>
      <trkpt lat="48.81743" lon="-3.51182">
        <ele>12.839564</ele>
        <time>2020-09-06T22:29:28.655Z</time>
      </trkpt>
      <trkpt lat="48.81748" lon="-3.51288">
        <ele>12.488728</ele>
        <time>2020-09-06T22:29:40.711Z</time>
      </trkpt>
      <trkpt lat="48.81741" lon="-3.51346">
        <ele>12.423563</ele>
        <time>2020-09-06T22:29:47.808Z</time>
      </trkpt>
      <trkpt lat="48.81737" lon="-3.51366">
        <ele>12.400619</ele>
        <time>2020-09-06T22:29:50.336Z</time>
      </trkpt>
      <trkpt lat="48.81735" lon="-3.51385">
        <ele>12.37935</ele>
        <time>2020-09-06T22:29:52.948Z</time>
      </trkpt>
      <trkpt lat="48.81733" lon="-3.51403">
        <ele>12.360058</ele>
        <time>2020-09-06T22:29:55.145Z</time>
      </trkpt>
      <trkpt lat="48.81732" lon="-3.5142">
        <ele>12.340459</ele>
        <time>2020-09-06T22:29:57.380Z</time>
      </trkpt>
      <trkpt lat="48.81731" lon="-3.51442">
        <ele>12.316504</ele>
        <time>2020-09-06T22:30:00.435Z</time>
      </trkpt>
      <trkpt lat="48.81731" lon="-3.51456">
        <ele>12.300556</ele>
        <time>2020-09-06T22:30:02.262Z</time>
      </trkpt>
      <trkpt lat="48.81732" lon="-3.5147">
        <ele>12.285639</ele>
        <time>2020-09-06T22:30:04.001Z</time>
      </trkpt>
      <trkpt lat="48.81734" lon="-3.51481">
        <ele>12.272932</ele>
        <time>2020-09-06T22:30:05.633Z</time>
      </trkpt>
      <trkpt lat="48.8173" lon="-3.51484">
        <ele>12.266621</ele>
        <time>2020-09-06T22:30:06.470Z</time>
      </trkpt>
      <trkpt lat="48.81702" lon="-3.51514">
        <ele>12.45564</ele>
        <time>2020-09-06T22:30:14.148Z</time>
      </trkpt>
      <trkpt lat="48.81679" lon="-3.51536">
        <ele>12.721482</ele>
        <time>2020-09-06T22:30:20.212Z</time>
      </trkpt>
      <trkpt lat="48.81665" lon="-3.5155">
        <ele>12.882457</ele>
        <time>2020-09-06T22:30:24.209Z</time>
      </trkpt>
      <trkpt lat="48.81566" lon="-3.51607">
        <ele>13.927716</ele>
        <time>2020-09-06T22:30:51.975Z</time>
      </trkpt>
      <trkpt lat="48.81518" lon="-3.51668">
        <ele>14.936487</ele>
        <time>2020-09-06T22:31:09.851Z</time>
      </trkpt>
      <trkpt lat="48.81497" lon="-3.51698">
        <ele>15.426796</ele>
        <time>2020-09-06T22:31:17.985Z</time>
      </trkpt>
      <trkpt lat="48.81463" lon="-3.51749">
        <ele>16.253156</ele>
        <time>2020-09-06T22:31:31.591Z</time>
      </trkpt>
      <trkpt lat="48.81416" lon="-3.51816">
        <ele>17.534037</ele>
        <time>2020-09-06T22:31:50.914Z</time>
      </trkpt>
      <trkpt lat="48.81354" lon="-3.51863">
        <ele>19.575488</ele>
        <time>2020-09-06T22:32:12.816Z</time>
      </trkpt>
      <trkpt lat="48.81314" lon="-3.51887">
        <ele>20.81126</ele>
        <time>2020-09-06T22:32:28.056Z</time>
      </trkpt>
      <trkpt lat="48.8131" lon="-3.5189">
        <ele>20.957804</ele>
        <time>2020-09-06T22:32:30.799Z</time>
      </trkpt>
      <trkpt lat="48.81243" lon="-3.51917">
        <ele>23.37476</ele>
        <time>2020-09-06T22:32:56.318Z</time>
      </trkpt>
      <trkpt lat="48.81213" lon="-3.51928">
        <ele>24.84286</ele>
        <time>2020-09-06T22:33:09.657Z</time>
      </trkpt>
      <trkpt lat="48.81199" lon="-3.51934">
        <ele>25.549515</ele>
        <time>2020-09-06T22:33:17.101Z</time>
      </trkpt>
      <trkpt lat="48.81131" lon="-3.51971">
        <ele>29.003377</ele>
        <time>2020-09-06T22:33:49.444Z</time>
      </trkpt>
      <trkpt lat="48.81092" lon="-3.51979">
        <ele>30.893649</ele>
        <time>2020-09-06T22:34:07.617Z</time>
      </trkpt>
      <trkpt lat="48.81083" lon="-3.5198">
        <ele>31.406104</ele>
        <time>2020-09-06T22:34:12.547Z</time>
      </trkpt>
      <trkpt lat="48.81066" lon="-3.51978">
        <ele>32.325891</ele>
        <time>2020-09-06T22:34:20.147Z</time>
      </trkpt>
      <trkpt lat="48.81023" lon="-3.51979">
        <ele>34.615035</ele>
        <time>2020-09-06T22:34:40.683Z</time>
      </trkpt>
      <trkpt lat="48.81" lon="-3.52">
        <ele>36.083329</ele>
        <time>2020-09-06T22:34:52.650Z</time>
      </trkpt>
      <trkpt lat="48.80991" lon="-3.52002">
        <ele>36.571342</ele>
        <time>2020-09-06T22:34:57.497Z</time>
      </trkpt>
      <trkpt lat="48.80986" lon="-3.52003">
        <ele>36.865984</ele>
        <time>2020-09-06T22:35:01.530Z</time>
      </trkpt>
      <trkpt lat="48.80933" lon="-3.51995">
        <ele>39.728313</ele>
        <time>2020-09-06T22:35:31.791Z</time>
      </trkpt>
      <trkpt lat="48.80925" lon="-3.51995">
        <ele>40.160233</ele>
        <time>2020-09-06T22:35:36.545Z</time>
      </trkpt>
      <trkpt lat="48.80917" lon="-3.52003">
        <ele>40.678401</ele>
        <time>2020-09-06T22:35:43.241Z</time>
      </trkpt>
      <trkpt lat="48.8086" lon="-3.52021">
        <ele>43.000812</ele>
        <time>2020-09-06T22:36:14.323Z</time>
      </trkpt>
      <trkpt lat="48.80799" lon="-3.52018">
        <ele>45.38238</ele>
        <time>2020-09-06T22:36:47.595Z</time>
      </trkpt>
      <trkpt lat="48.80762" lon="-3.5202">
        <ele>46.857314</ele>
        <time>2020-09-06T22:37:06.271Z</time>
      </trkpt>
      <trkpt lat="48.80753" lon="-3.52026">
        <ele>47.222421</ele>
        <time>2020-09-06T22:37:10.027Z</time>
      </trkpt>
      <trkpt lat="48.80731" lon="-3.52034">
        <ele>47.815517</ele>
        <time>2020-09-06T22:37:19.857Z</time>
      </trkpt>
      <trkpt lat="48.80714" lon="-3.52035">
        <ele>47.878044</ele>
        <time>2020-09-06T22:37:26.859Z</time>
      </trkpt>
      <trkpt lat="48.80692" lon="-3.52034">
        <ele>47.953523</ele>
        <time>2020-09-06T22:37:32.798Z</time>
      </trkpt>
      <trkpt lat="48.80614" lon="-3.52037">
        <ele>48.227048</ele>
        <time>2020-09-06T22:37:49.410Z</time>
      </trkpt>
      <trkpt lat="48.80587" lon="-3.52045">
        <ele>48.324465</ele>
        <time>2020-09-06T22:37:54.178Z</time>
      </trkpt>
      <trkpt lat="48.80534" lon="-3.52067">
        <ele>47.757974</ele>
        <time>2020-09-06T22:38:02.843Z</time>
      </trkpt>
      <trkpt lat="48.80492" lon="-3.52096">
        <ele>46.684349</ele>
        <time>2020-09-06T22:38:09.863Z</time>
      </trkpt>
      <trkpt lat="48.80488" lon="-3.52094">
        <ele>46.587137</ele>
        <time>2020-09-06T22:38:10.419Z</time>
      </trkpt>
      <trkpt lat="48.80486" lon="-3.52093">
        <ele>46.521022</ele>
        <time>2020-09-06T22:38:10.774Z</time>
      </trkpt>
      <trkpt lat="48.80462" lon="-3.52109">
        <ele>45.91534</ele>
        <time>2020-09-06T22:38:14.841Z</time>
      </trkpt>
      <trkpt lat="48.80397" lon="-3.52103">
        <ele>44.373039</ele>
        <time>2020-09-06T22:38:24.415Z</time>
      </trkpt>
      <trkpt lat="48.80376" lon="-3.52109">
        <ele>43.889335</ele>
        <time>2020-09-06T22:38:27.516Z</time>
      </trkpt>
      <trkpt lat="48.80363" lon="-3.52135">
        <ele>43.424838</ele>
        <time>2020-09-06T22:38:30.692Z</time>
      </trkpt>
      <trkpt lat="48.8032" lon="-3.52267">
        <ele>41.314373</ele>
        <time>2020-09-06T22:38:45.401Z</time>
      </trkpt>
      <trkpt lat="48.80318" lon="-3.52271">
        <ele>41.245959</ele>
        <time>2020-09-06T22:38:45.820Z</time>
      </trkpt>
      <trkpt lat="48.80323" lon="-3.52277">
        <ele>41.117833</ele>
        <time>2020-09-06T22:38:46.855Z</time>
      </trkpt>
      <trkpt lat="48.80327" lon="-3.52289">
        <ele>40.927786</ele>
        <time>2020-09-06T22:38:48.331Z</time>
      </trkpt>
      <trkpt lat="48.80317" lon="-3.52303">
        <ele>40.634533</ele>
        <time>2020-09-06T22:38:50.502Z</time>
      </trkpt>
      <trkpt lat="48.80302" lon="-3.52324">
        <ele>40.243772</ele>
        <time>2020-09-06T22:38:53.767Z</time>
      </trkpt>
      <trkpt lat="48.80284" lon="-3.52365">
        <ele>39.940893</ele>
        <time>2020-09-06T22:38:59.231Z</time>
      </trkpt>
      <trkpt lat="48.80282" lon="-3.52378">
        <ele>39.861384</ele>
        <time>2020-09-06T22:39:00.674Z</time>
      </trkpt>
      <trkpt lat="48.80278" lon="-3.52413">
        <ele>39.648025</ele>
        <time>2020-09-06T22:39:04.581Z</time>
      </trkpt>
      <trkpt lat="48.80274" lon="-3.52432">
        <ele>39.530459</ele>
        <time>2020-09-06T22:39:08.452Z</time>
      </trkpt>
      <trkpt lat="48.80259" lon="-3.52504">
        <ele>39.066655</ele>
        <time>2020-09-06T22:39:23.690Z</time>
      </trkpt>
      <trkpt lat="48.80244" lon="-3.52549">
        <ele>38.766025</ele>
        <time>2020-09-06T22:39:33.708Z</time>
      </trkpt>
      <trkpt lat="48.80248" lon="-3.52561">
        <ele>38.68287</ele>
        <time>2020-09-06T22:39:36.473Z</time>
      </trkpt>
      <trkpt lat="48.80248" lon="-3.52575">
        <ele>38.564917</ele>
        <time>2020-09-06T22:39:39.313Z</time>
      </trkpt>
      <trkpt lat="48.80236" lon="-3.52647">
        <ele>37.616837</ele>
        <time>2020-09-06T22:39:53.810Z</time>
      </trkpt>
      <trkpt lat="48.80242" lon="-3.52668">
        <ele>37.334011</ele>
        <time>2020-09-06T22:39:57.858Z</time>
      </trkpt>
      <trkpt lat="48.80225" lon="-3.52707">
        <ele>36.723444</ele>
        <time>2020-09-06T22:40:06.583Z</time>
      </trkpt>
      <trkpt lat="48.80221" lon="-3.52717">
        <ele>36.580364</ele>
        <time>2020-09-06T22:40:08.516Z</time>
      </trkpt>
      <trkpt lat="48.80189" lon="-3.52791">
        <ele>35.451025</ele>
        <time>2020-09-06T22:40:17.838Z</time>
      </trkpt>
      <trkpt lat="48.80158" lon="-3.52864">
        <ele>33.715312</ele>
        <time>2020-09-06T22:40:26.655Z</time>
      </trkpt>
      <trkpt lat="48.80065" lon="-3.53032">
        <ele>28.828226</ele>
        <time>2020-09-06T22:40:48.187Z</time>
      </trkpt>
      <trkpt lat="48.80005" lon="-3.53116">
        <ele>27.290484</ele>
        <time>2020-09-06T22:41:01.097Z</time>
      </trkpt>
      <trkpt lat="48.79997" lon="-3.5312">
        <ele>27.130874</ele>
        <time>2020-09-06T22:41:02.349Z</time>
      </trkpt>
      <trkpt lat="48.79985" lon="-3.53119">
        <ele>26.903033</ele>
        <time>2020-09-06T22:41:04.675Z</time>
      </trkpt>
      <trkpt lat="48.79948" lon="-3.53141">
        <ele>26.164945</ele>
        <time>2020-09-06T22:41:12.017Z</time>
      </trkpt>
      <trkpt lat="48.79934" lon="-3.5316">
        <ele>25.801519</ele>
        <time>2020-09-06T22:41:15.641Z</time>
      </trkpt>
      <trkpt lat="48.79924" lon="-3.53166">
        <ele>25.607778</ele>
        <time>2020-09-06T22:41:19.128Z</time>
      </trkpt>
      <trkpt lat="48.799" lon="-3.53171">
        <ele>25.994007</ele>
        <time>2020-09-06T22:41:26.749Z</time>
      </trkpt>
      <trkpt lat="48.79848" lon="-3.53165">
        <ele>27.092845</ele>
        <time>2020-09-06T22:41:46.103Z</time>
      </trkpt>
      <trkpt lat="48.79792" lon="-3.53137">
        <ele>28.328474</ele>
        <time>2020-09-06T22:42:12.286Z</time>
      </trkpt>
      <trkpt lat="48.79751" lon="-3.5315">
        <ele>29.218503</ele>
        <time>2020-09-06T22:42:34.310Z</time>
      </trkpt>
      <trkpt lat="48.7973" lon="-3.53137">
        <ele>29.987161</ele>
        <time>2020-09-06T22:42:46.140Z</time>
      </trkpt>
      <trkpt lat="48.79693" lon="-3.53152">
        <ele>31.487605</ele>
        <time>2020-09-06T22:43:06.762Z</time>
      </trkpt>
      <trkpt lat="48.79663" lon="-3.53172">
        <ele>32.738938</ele>
        <time>2020-09-06T22:43:23.711Z</time>
      </trkpt>
      <trkpt lat="48.79631" lon="-3.53205">
        <ele>34.229447</ele>
        <time>2020-09-06T22:43:43.914Z</time>
      </trkpt>
      <trkpt lat="48.7962" lon="-3.53212">
        <ele>34.708665</ele>
        <time>2020-09-06T22:43:48.879Z</time>
      </trkpt>
      <trkpt lat="48.79617" lon="-3.53214">
        <ele>34.838434</ele>
        <time>2020-09-06T22:43:50.332Z</time>
      </trkpt>
      <trkpt lat="48.79602" lon="-3.53221">
        <ele>35.421482</ele>
        <time>2020-09-06T22:43:55.847Z</time>
      </trkpt>
      <trkpt lat="48.79595" lon="-3.53225">
        <ele>35.73333</ele>
        <time>2020-09-06T22:43:58.923Z</time>
      </trkpt>
      <trkpt lat="48.7959" lon="-3.53224">
        <ele>35.930512</ele>
        <time>2020-09-06T22:44:00.720Z</time>
      </trkpt>
      <trkpt lat="48.79587" lon="-3.53224">
        <ele>36.040522</ele>
        <time>2020-09-06T22:44:01.810Z</time>
      </trkpt>
      <trkpt lat="48.79578" lon="-3.53221">
        <ele>36.346574</ele>
        <time>2020-09-06T22:44:05.178Z</time>
      </trkpt>
      <trkpt lat="48.79572" lon="-3.53221">
        <ele>36.490429</ele>
        <time>2020-09-06T22:44:07.418Z</time>
      </trkpt>
      <trkpt lat="48.7956" lon="-3.53234">
        <ele>36.812998</ele>
        <time>2020-09-06T22:44:12.433Z</time>
      </trkpt>
      <trkpt lat="48.79512" lon="-3.53256">
        <ele>37.971347</ele>
        <time>2020-09-06T22:44:31.031Z</time>
      </trkpt>
      <trkpt lat="48.79469" lon="-3.53269">
        <ele>38.970883</ele>
        <time>2020-09-06T22:44:44.754Z</time>
      </trkpt>
      <trkpt lat="48.79414" lon="-3.53195">
        <ele>40.520204</ele>
        <time>2020-09-06T22:45:05.532Z</time>
      </trkpt>
      <trkpt lat="48.79389" lon="-3.53176">
        <ele>40.842352</ele>
        <time>2020-09-06T22:45:13.193Z</time>
      </trkpt>
      <trkpt lat="48.79285" lon="-3.53157">
        <ele>42.056434</ele>
        <time>2020-09-06T22:45:41.404Z</time>
      </trkpt>
      <trkpt lat="48.79264" lon="-3.53163">
        <ele>42.311733</ele>
        <time>2020-09-06T22:45:47.362Z</time>
      </trkpt>
      <trkpt lat="48.79207" lon="-3.53178">
        <ele>42.718782</ele>
        <time>2020-09-06T22:46:02.879Z</time>
      </trkpt>
      <trkpt lat="48.79054" lon="-3.53243">
        <ele>43.346785</ele>
        <time>2020-09-06T22:46:40.282Z</time>
      </trkpt>
      <trkpt lat="48.79058" lon="-3.53262">
        <ele>43.270052</ele>
        <time>2020-09-06T22:46:44.477Z</time>
      </trkpt>
      <trkpt lat="48.79068" lon="-3.5333">
        <ele>43.013674</ele>
        <time>2020-09-06T22:46:58.410Z</time>
      </trkpt>
      <trkpt lat="48.79117" lon="-3.53476">
        <ele>42.351237</ele>
        <time>2020-09-06T22:47:30.132Z</time>
      </trkpt>
      <trkpt lat="48.79127" lon="-3.53501">
        <ele>42.132261</ele>
        <time>2020-09-06T22:47:35.702Z</time>
      </trkpt>
      <trkpt lat="48.79127" lon="-3.53512">
        <ele>42.046929</ele>
        <time>2020-09-06T22:47:37.892Z</time>
      </trkpt>
      <trkpt lat="48.79089" lon="-3.53555">
        <ele>41.511145</ele>
        <time>2020-09-06T22:47:51.743Z</time>
      </trkpt>
      <trkpt lat="48.79074" lon="-3.53591">
        <ele>41.194149</ele>
        <time>2020-09-06T22:47:59.775Z</time>
      </trkpt>
      <trkpt lat="48.79064" lon="-3.53606">
        <ele>41.033826</ele>
        <time>2020-09-06T22:48:03.845Z</time>
      </trkpt>
      <trkpt lat="48.79054" lon="-3.53611">
        <ele>40.916694</ele>
        <time>2020-09-06T22:48:05.702Z</time>
      </trkpt>
      <trkpt lat="48.79032" lon="-3.53621">
        <ele>40.65224</ele>
        <time>2020-09-06T22:48:10.045Z</time>
      </trkpt>
      <trkpt lat="48.79027" lon="-3.53635">
        <ele>40.534537</ele>
        <time>2020-09-06T22:48:11.922Z</time>
      </trkpt>
      <trkpt lat="48.79026" lon="-3.5367">
        <ele>40.274559</ele>
        <time>2020-09-06T22:48:16.343Z</time>
      </trkpt>
      <trkpt lat="48.7902" lon="-3.53733">
        <ele>39.829182</ele>
        <time>2020-09-06T22:48:24.212Z</time>
      </trkpt>
      <trkpt lat="48.79008" lon="-3.5381">
        <ele>39.265899</ele>
        <time>2020-09-06T22:48:34.096Z</time>
      </trkpt>
      <trkpt lat="48.78993" lon="-3.53878">
        <ele>38.757609</ele>
        <time>2020-09-06T22:48:43.233Z</time>
      </trkpt>
      <trkpt lat="48.78946" lon="-3.53989">
        <ele>37.772816</ele>
        <time>2020-09-06T22:48:59.894Z</time>
      </trkpt>
      <trkpt lat="48.78931" lon="-3.54076">
        <ele>37.085059</ele>
        <time>2020-09-06T22:49:11.436Z</time>
      </trkpt>
      <trkpt lat="48.78936" lon="-3.54099">
        <ele>36.899732</ele>
        <time>2020-09-06T22:49:14.499Z</time>
      </trkpt>
      <trkpt lat="48.78944" lon="-3.5411">
        <ele>36.779509</ele>
        <time>2020-09-06T22:49:16.489Z</time>
      </trkpt>
      <trkpt lat="48.78918" lon="-3.54295">
        <ele>33.598771</ele>
        <time>2020-09-06T22:49:38.290Z</time>
      </trkpt>
      <trkpt lat="48.78919" lon="-3.54369">
        <ele>32.107181</ele>
        <time>2020-09-06T22:49:45.984Z</time>
      </trkpt>
      <trkpt lat="48.78912" lon="-3.544">
        <ele>31.452218</ele>
        <time>2020-09-06T22:49:49.329Z</time>
      </trkpt>
      <trkpt lat="48.78883" lon="-3.54454">
        <ele>29.974141</ele>
        <time>2020-09-06T22:49:56.605Z</time>
      </trkpt>
      <trkpt lat="48.78876" lon="-3.54471">
        <ele>29.528248</ele>
        <time>2020-09-06T22:49:58.609Z</time>
      </trkpt>
      <trkpt lat="48.7886" lon="-3.54484">
        <ele>28.930619</ele>
        <time>2020-09-06T22:50:01.546Z</time>
      </trkpt>
      <trkpt lat="48.78861" lon="-3.54509">
        <ele>28.376645</ele>
        <time>2020-09-06T22:50:03.805Z</time>
      </trkpt>
      <trkpt lat="48.78874" lon="-3.54677">
        <ele>24.813137</ele>
        <time>2020-09-06T22:50:19.910Z</time>
      </trkpt>
      <trkpt lat="48.78881" lon="-3.54729">
        <ele>24.221889</ele>
        <time>2020-09-06T22:50:26.170Z</time>
      </trkpt>
      <trkpt lat="48.78881" lon="-3.54766">
        <ele>23.813273</ele>
        <time>2020-09-06T22:50:30.982Z</time>
      </trkpt>
      <trkpt lat="48.78883" lon="-3.54811">
        <ele>23.309774</ele>
        <time>2020-09-06T22:50:35.834Z</time>
      </trkpt>
      <trkpt lat="48.78887" lon="-3.5485">
        <ele>22.871905</ele>
        <time>2020-09-06T22:50:40.578Z</time>
      </trkpt>
      <trkpt lat="48.78888" lon="-3.54857">
        <ele>22.801468</ele>
        <time>2020-09-06T22:50:41.141Z</time>
      </trkpt>
      <trkpt lat="48.78892" lon="-3.54912">
        <ele>22.179653</ele>
        <time>2020-09-06T22:50:46.898Z</time>
      </trkpt>
      <trkpt lat="48.78893" lon="-3.54925">
        <ele>22.034164</ele>
        <time>2020-09-06T22:50:48.128Z</time>
      </trkpt>
      <trkpt lat="48.78894" lon="-3.54958">
        <ele>21.502159</ele>
        <time>2020-09-06T22:50:51.426Z</time>
      </trkpt>
      <trkpt lat="48.78896" lon="-3.54992">
        <ele>20.861101</ele>
        <time>2020-09-06T22:50:54.529Z</time>
      </trkpt>
      <trkpt lat="48.789" lon="-3.55012">
        <ele>20.478952</ele>
        <time>2020-09-06T22:50:57.054Z</time>
      </trkpt>
      <trkpt lat="48.78907" lon="-3.55024">
        <ele>20.186908</ele>
        <time>2020-09-06T22:50:58.403Z</time>
      </trkpt>
      <trkpt lat="48.78955" lon="-3.55113">
        <ele>18.042311</ele>
        <time>2020-09-06T22:51:09.935Z</time>
      </trkpt>
      <trkpt lat="48.78968" lon="-3.55156">
        <ele>17.174761</ele>
        <time>2020-09-06T22:51:14.307Z</time>
      </trkpt>
      <trkpt lat="48.7897" lon="-3.55167">
        <ele>16.963198</ele>
        <time>2020-09-06T22:51:15.474Z</time>
      </trkpt>
      <trkpt lat="48.78971" lon="-3.55174">
        <ele>16.852138</ele>
        <time>2020-09-06T22:51:16.080Z</time>
      </trkpt>
      <trkpt lat="48.78958" lon="-3.5516">
        <ele>16.668808</ele>
        <time>2020-09-06T22:51:18.328Z</time>
      </trkpt>
      <trkpt lat="48.78935" lon="-3.55142">
        <ele>16.368686</ele>
        <time>2020-09-06T22:51:21.895Z</time>
      </trkpt>
      <trkpt lat="48.78887" lon="-3.55125">
        <ele>15.797916</ele>
        <time>2020-09-06T22:51:29.682Z</time>
      </trkpt>
      <trkpt lat="48.78872" lon="-3.55124">
        <ele>15.62122</ele>
        <time>2020-09-06T22:51:32.648Z</time>
      </trkpt>
      <trkpt lat="48.78864" lon="-3.5517">
        <ele>15.258031</ele>
        <time>2020-09-06T22:51:38.256Z</time>
      </trkpt>
      <trkpt lat="48.78857" lon="-3.55212">
        <ele>14.924828</ele>
        <time>2020-09-06T22:51:45.084Z</time>
      </trkpt>
      <trkpt lat="48.78856" lon="-3.55215">
        <ele>14.898562</ele>
        <time>2020-09-06T22:51:45.829Z</time>
      </trkpt>
      <trkpt lat="48.78848" lon="-3.55238">
        <ele>14.766995</ele>
        <time>2020-09-06T22:51:50.149Z</time>
      </trkpt>
      <trkpt lat="48.78845" lon="-3.5525">
        <ele>14.758514</ele>
        <time>2020-09-06T22:51:51.614Z</time>
      </trkpt>
      <trkpt lat="48.78841" lon="-3.55274">
        <ele>14.74208</ele>
        <time>2020-09-06T22:51:56.771Z</time>
      </trkpt>
      <trkpt lat="48.7884" lon="-3.55305">
        <ele>14.722307</ele>
        <time>2020-09-06T22:52:00.621Z</time>
      </trkpt>
      <trkpt lat="48.78852" lon="-3.55422">
        <ele>14.644829</ele>
        <time>2020-09-06T22:52:15.559Z</time>
      </trkpt>
      <trkpt lat="48.78847" lon="-3.55474">
        <ele>14.610162</ele>
        <time>2020-09-06T22:52:21.833Z</time>
      </trkpt>
      <trkpt lat="48.7884" lon="-3.55543">
        <ele>13.94989</ele>
        <time>2020-09-06T22:52:29.632Z</time>
      </trkpt>
      <trkpt lat="48.78888" lon="-3.55573">
        <ele>12.835704</ele>
        <time>2020-09-06T22:52:37.527Z</time>
      </trkpt>
      <trkpt lat="48.78902" lon="-3.55591">
        <ele>12.430422</ele>
        <time>2020-09-06T22:52:40.560Z</time>
      </trkpt>
      <trkpt lat="48.7892" lon="-3.55628">
        <ele>11.785442</ele>
        <time>2020-09-06T22:52:44.896Z</time>
      </trkpt>
      <trkpt lat="48.78937" lon="-3.55654">
        <ele>11.26213</ele>
        <time>2020-09-06T22:52:48.392Z</time>
      </trkpt>
      <trkpt lat="48.78999" lon="-3.55704">
        <ele>10.074037</ele>
        <time>2020-09-06T22:52:58.521Z</time>
      </trkpt>
      <trkpt lat="48.79022" lon="-3.55729">
        <ele>9.656794</ele>
        <time>2020-09-06T22:53:03.083Z</time>
      </trkpt>
      <trkpt lat="48.79029" lon="-3.55744">
        <ele>9.483329</ele>
        <time>2020-09-06T22:53:04.820Z</time>
      </trkpt>
      <trkpt lat="48.79018" lon="-3.55764">
        <ele>9.226552</ele>
        <time>2020-09-06T22:53:08.107Z</time>
      </trkpt>
      <trkpt lat="48.79" lon="-3.55816">
        <ele>8.675625</ele>
        <time>2020-09-06T22:53:15.248Z</time>
      </trkpt>
      <trkpt lat="48.78996" lon="-3.5586">
        <ele>8.245473</ele>
        <time>2020-09-06T22:53:21.042Z</time>
      </trkpt>
      <trkpt lat="48.78999" lon="-3.55932">
        <ele>8.267892</ele>
        <time>2020-09-06T22:53:30.740Z</time>
      </trkpt>
      <trkpt lat="48.78986" lon="-3.5613">
        <ele>8.793848</ele>
        <time>2020-09-06T22:54:00.841Z</time>
      </trkpt>
      <trkpt lat="48.78959" lon="-3.56292">
        <ele>9.406204</ele>
        <time>2020-09-06T22:54:27.394Z</time>
      </trkpt>
      <trkpt lat="48.78951" lon="-3.56321">
        <ele>9.523778</ele>
        <time>2020-09-06T22:54:32.123Z</time>
      </trkpt>
      <trkpt lat="48.78947" lon="-3.56336">
        <ele>9.58776</ele>
        <time>2020-09-06T22:54:34.576Z</time>
      </trkpt>
      <trkpt lat="48.78929" lon="-3.56384">
        <ele>9.794625</ele>
        <time>2020-09-06T22:54:42.574Z</time>
      </trkpt>
      <trkpt lat="48.7892" lon="-3.56408">
        <ele>9.889558</ele>
        <time>2020-09-06T22:54:46.636Z</time>
      </trkpt>
      <trkpt lat="48.7891" lon="-3.56425">
        <ele>9.948688</ele>
        <time>2020-09-06T22:54:49.753Z</time>
      </trkpt>
      <trkpt lat="48.78905" lon="-3.56438">
        <ele>9.988402</ele>
        <time>2020-09-06T22:54:51.991Z</time>
      </trkpt>
      <trkpt lat="48.78895" lon="-3.56471">
        <ele>10.080883</ele>
        <time>2020-09-06T22:54:56.760Z</time>
      </trkpt>
      <trkpt lat="48.78865" lon="-3.56675">
        <ele>10.988937</ele>
        <time>2020-09-06T22:55:26.624Z</time>
      </trkpt>
      <trkpt lat="48.78867" lon="-3.56721">
        <ele>11.992431</ele>
        <time>2020-09-06T22:55:34.777Z</time>
      </trkpt>
      <trkpt lat="48.78847" lon="-3.56776">
        <ele>13.377295</ele>
        <time>2020-09-06T22:55:47.091Z</time>
      </trkpt>
      <trkpt lat="48.78841" lon="-3.56787">
        <ele>13.703827</ele>
        <time>2020-09-06T22:55:50.075Z</time>
      </trkpt>
      <trkpt lat="48.78824" lon="-3.56818">
        <ele>14.573176</ele>
        <time>2020-09-06T22:56:01.446Z</time>
      </trkpt>
      <trkpt lat="48.78808" lon="-3.56834">
        <ele>15.2185</ele>
        <time>2020-09-06T22:56:08.832Z</time>
      </trkpt>
      <trkpt lat="48.78775" lon="-3.56842">
        <ele>16.354075</ele>
        <time>2020-09-06T22:56:23.889Z</time>
      </trkpt>
      <trkpt lat="48.78759" lon="-3.56843">
        <ele>17.272909</ele>
        <time>2020-09-06T22:56:33.827Z</time>
      </trkpt>
      <trkpt lat="48.7875" lon="-3.56845">
        <ele>17.979392</ele>
        <time>2020-09-06T22:56:38.983Z</time>
      </trkpt>
      <trkpt lat="48.7872" lon="-3.56879">
        <ele>21.024056</ele>
        <time>2020-09-06T22:57:01.244Z</time>
      </trkpt>
      <trkpt lat="48.78715" lon="-3.56888">
        <ele>21.656284</ele>
        <time>2020-09-06T22:57:05.193Z</time>
      </trkpt>
      <trkpt lat="48.78701" lon="-3.56915">
        <ele>23.457883</ele>
        <time>2020-09-06T22:57:21.821Z</time>
      </trkpt>
      <trkpt lat="48.78669" lon="-3.56996">
        <ele>28.474643</ele>
        <time>2020-09-06T22:58:00.063Z</time>
      </trkpt>
      <trkpt lat="48.78668" lon="-3.57005">
        <ele>28.965602</ele>
        <time>2020-09-06T22:58:06.102Z</time>
      </trkpt>
      <trkpt lat="48.78644" lon="-3.57008">
        <ele>30.909984</ele>
        <time>2020-09-06T22:58:19.466Z</time>
      </trkpt>
      <trkpt lat="48.78616" lon="-3.57008">
        <ele>32.595087</ele>
        <time>2020-09-06T22:58:36.385Z</time>
      </trkpt>
      <trkpt lat="48.78605" lon="-3.57007">
        <ele>33.233487</ele>
        <time>2020-09-06T22:58:43.292Z</time>
      </trkpt>
      <trkpt lat="48.78585" lon="-3.57006">
        <ele>34.439983</ele>
        <time>2020-09-06T22:58:56.085Z</time>
      </trkpt>
      <trkpt lat="48.78564" lon="-3.57003">
        <ele>35.661916</ele>
        <time>2020-09-06T22:59:06.765Z</time>
      </trkpt>
      <trkpt lat="48.78466" lon="-3.56994">
        <ele>41.381176</ele>
        <time>2020-09-06T22:59:48.971Z</time>
      </trkpt>
      <trkpt lat="48.7845" lon="-3.56992">
        <ele>41.825954</ele>
        <time>2020-09-06T22:59:54.703Z</time>
      </trkpt>
      <trkpt lat="48.78385" lon="-3.56968">
        <ele>43.0968</ele>
        <time>2020-09-06T23:00:14.138Z</time>
      </trkpt>
      <trkpt lat="48.78317" lon="-3.56941">
        <ele>44.439079</ele>
        <time>2020-09-06T23:00:32.291Z</time>
      </trkpt>
      <trkpt lat="48.78294" lon="-3.56932">
        <ele>44.895166</ele>
        <time>2020-09-06T23:00:38.190Z</time>
      </trkpt>
      <trkpt lat="48.78252" lon="-3.56914">
        <ele>45.200747</ele>
        <time>2020-09-06T23:00:48.420Z</time>
      </trkpt>
      <trkpt lat="48.78134" lon="-3.56855">
        <ele>45.815035</ele>
        <time>2020-09-06T23:01:15.224Z</time>
      </trkpt>
      <trkpt lat="48.78132" lon="-3.56854">
        <ele>45.824431</ele>
        <time>2020-09-06T23:01:15.517Z</time>
      </trkpt>
      <trkpt lat="48.78016" lon="-3.56797">
        <ele>46.048165</ele>
        <time>2020-09-06T23:01:38.692Z</time>
      </trkpt>
      <trkpt lat="48.78014" lon="-3.56796">
        <ele>46.05146</ele>
        <time>2020-09-06T23:01:39.074Z</time>
      </trkpt>
      <trkpt lat="48.7801" lon="-3.56793">
        <ele>46.057286</ele>
        <time>2020-09-06T23:01:40.019Z</time>
      </trkpt>
      <trkpt lat="48.77923" lon="-3.56713">
        <ele>46.439972</ele>
        <time>2020-09-06T23:02:01.126Z</time>
      </trkpt>
      <trkpt lat="48.77888" lon="-3.56691">
        <ele>46.766817</ele>
        <time>2020-09-06T23:02:09.832Z</time>
      </trkpt>
      <trkpt lat="48.77878" lon="-3.56685">
        <ele>46.864461</ele>
        <time>2020-09-06T23:02:12.651Z</time>
      </trkpt>
      <trkpt lat="48.77829" lon="-3.56668">
        <ele>47.288425</ele>
        <time>2020-09-06T23:02:24.993Z</time>
      </trkpt>
      <trkpt lat="48.77817" lon="-3.56665">
        <ele>47.395784</ele>
        <time>2020-09-06T23:02:28.161Z</time>
      </trkpt>
      <trkpt lat="48.77757" lon="-3.56647">
        <ele>47.664077</ele>
        <time>2020-09-06T23:02:44.148Z</time>
      </trkpt>
      <trkpt lat="48.77617" lon="-3.5658">
        <ele>47.510521</ele>
        <time>2020-09-06T23:03:11.907Z</time>
      </trkpt>
      <trkpt lat="48.77613" lon="-3.56578">
        <ele>47.506088</ele>
        <time>2020-09-06T23:03:12.930Z</time>
      </trkpt>
      <trkpt lat="48.77612" lon="-3.566">
        <ele>47.206614</ele>
        <time>2020-09-06T23:03:15.129Z</time>
      </trkpt>
      <trkpt lat="48.77608" lon="-3.56709">
        <ele>45.469439</ele>
        <time>2020-09-06T23:03:26.649Z</time>
      </trkpt>
      <trkpt lat="48.77586" lon="-3.56804">
        <ele>43.857423</ele>
        <time>2020-09-06T23:03:36.913Z</time>
      </trkpt>
      <trkpt lat="48.77573" lon="-3.56861">
        <ele>42.940478</ele>
        <time>2020-09-06T23:03:43.124Z</time>
      </trkpt>
      <trkpt lat="48.77551" lon="-3.56912">
        <ele>42.131866</ele>
        <time>2020-09-06T23:03:49.636Z</time>
      </trkpt>
      <trkpt lat="48.77533" lon="-3.56936">
        <ele>41.645833</ele>
        <time>2020-09-06T23:03:53.468Z</time>
      </trkpt>
      <trkpt lat="48.7752" lon="-3.56948">
        <ele>41.344181</ele>
        <time>2020-09-06T23:03:56.125Z</time>
      </trkpt>
      <trkpt lat="48.77466" lon="-3.56971">
        <ele>40.225749</ele>
        <time>2020-09-06T23:04:05.611Z</time>
      </trkpt>
      <trkpt lat="48.77408" lon="-3.56977">
        <ele>38.902725</ele>
        <time>2020-09-06T23:04:15.602Z</time>
      </trkpt>
      <trkpt lat="48.77398" lon="-3.56988">
        <ele>38.560791</ele>
        <time>2020-09-06T23:04:17.635Z</time>
      </trkpt>
      <trkpt lat="48.77383" lon="-3.5704">
        <ele>37.556788</ele>
        <time>2020-09-06T23:04:23.835Z</time>
      </trkpt>
      <trkpt lat="48.77347" lon="-3.57106">
        <ele>36.055521</ele>
        <time>2020-09-06T23:04:32.493Z</time>
      </trkpt>
      <trkpt lat="48.77344" lon="-3.57111">
        <ele>35.933527</ele>
        <time>2020-09-06T23:04:33.143Z</time>
      </trkpt>
      <trkpt lat="48.77345" lon="-3.57129">
        <ele>35.615113</ele>
        <time>2020-09-06T23:04:34.902Z</time>
      </trkpt>
      <trkpt lat="48.77347" lon="-3.57161">
        <ele>35.039698</ele>
        <time>2020-09-06T23:04:37.932Z</time>
      </trkpt>
      <trkpt lat="48.77347" lon="-3.57197">
        <ele>34.381435</ele>
        <time>2020-09-06T23:04:41.270Z</time>
      </trkpt>
      <trkpt lat="48.7734" lon="-3.57269">
        <ele>32.942924</ele>
        <time>2020-09-06T23:04:47.994Z</time>
      </trkpt>
      <trkpt lat="48.77338" lon="-3.57312">
        <ele>32.077143</ele>
        <time>2020-09-06T23:04:52.072Z</time>
      </trkpt>
      <trkpt lat="48.77346" lon="-3.57441">
        <ele>29.520307</ele>
        <time>2020-09-06T23:05:04.455Z</time>
      </trkpt>
      <trkpt lat="48.77363" lon="-3.57498">
        <ele>29.556084</ele>
        <time>2020-09-06T23:05:11.222Z</time>
      </trkpt>
      <trkpt lat="48.77404" lon="-3.57576">
        <ele>29.96984</ele>
        <time>2020-09-06T23:05:25.914Z</time>
      </trkpt>
      <trkpt lat="48.77417" lon="-3.57648">
        <ele>30.279057</ele>
        <time>2020-09-06T23:05:39.029Z</time>
      </trkpt>
      <trkpt lat="48.77417" lon="-3.57662">
        <ele>30.338812</ele>
        <time>2020-09-06T23:05:41.767Z</time>
      </trkpt>
      <trkpt lat="48.77416" lon="-3.57672">
        <ele>30.379766</ele>
        <time>2020-09-06T23:05:44.404Z</time>
      </trkpt>
      <trkpt lat="48.77398" lon="-3.57705">
        <ele>30.957589</ele>
        <time>2020-09-06T23:05:52.785Z</time>
      </trkpt>
      <trkpt lat="48.77386" lon="-3.57719">
        <ele>31.498423</ele>
        <time>2020-09-06T23:05:58.326Z</time>
      </trkpt>
      <trkpt lat="48.77376" lon="-3.57726">
        <ele>31.885292</ele>
        <time>2020-09-06T23:06:01.860Z</time>
      </trkpt>
      <trkpt lat="48.77362" lon="-3.57731">
        <ele>32.387271</ele>
        <time>2020-09-06T23:06:06.722Z</time>
      </trkpt>
      <trkpt lat="48.77305" lon="-3.57731">
        <ele>34.397291</ele>
        <time>2020-09-06T23:06:27.665Z</time>
      </trkpt>
      <trkpt lat="48.77285" lon="-3.5773">
        <ele>35.088924</ele>
        <time>2020-09-06T23:06:35.798Z</time>
      </trkpt>
      <trkpt lat="48.77277" lon="-3.57733">
        <ele>35.397275</ele>
        <time>2020-09-06T23:06:39.319Z</time>
      </trkpt>
      <trkpt lat="48.7727" lon="-3.57741">
        <ele>35.707776</ele>
        <time>2020-09-06T23:06:42.819Z</time>
      </trkpt>
      <trkpt lat="48.77251" lon="-3.57773">
        <ele>36.714576</ele>
        <time>2020-09-06T23:06:54.655Z</time>
      </trkpt>
      <trkpt lat="48.77233" lon="-3.57805">
        <ele>37.881624</ele>
        <time>2020-09-06T23:07:06.050Z</time>
      </trkpt>
      <trkpt lat="48.77205" lon="-3.578">
        <ele>39.106851</ele>
        <time>2020-09-06T23:07:17.129Z</time>
      </trkpt>
      <trkpt lat="48.77191" lon="-3.57797">
        <ele>39.760093</ele>
        <time>2020-09-06T23:07:23.862Z</time>
      </trkpt>
      <trkpt lat="48.7713" lon="-3.57783">
        <ele>42.430481</ele>
        <time>2020-09-06T23:07:49.129Z</time>
      </trkpt>
      <trkpt lat="48.77116" lon="-3.57774">
        <ele>43.106538</ele>
        <time>2020-09-06T23:07:55.622Z</time>
      </trkpt>
      <trkpt lat="48.77098" lon="-3.57753">
        <ele>44.108513</ele>
        <time>2020-09-06T23:08:04.605Z</time>
      </trkpt>
      <trkpt lat="48.77095" lon="-3.57755">
        <ele>44.221525</ele>
        <time>2020-09-06T23:08:05.986Z</time>
      </trkpt>
      <trkpt lat="48.77076" lon="-3.57763">
        <ele>45.011104</ele>
        <time>2020-09-06T23:08:13.858Z</time>
      </trkpt>
      <trkpt lat="48.77065" lon="-3.57763">
        <ele>45.382317</ele>
        <time>2020-09-06T23:08:18.318Z</time>
      </trkpt>
      <trkpt lat="48.77034" lon="-3.57759">
        <ele>46.41695</ele>
        <time>2020-09-06T23:08:30.947Z</time>
      </trkpt>
      <trkpt lat="48.76975" lon="-3.57766">
        <ele>48.425338</ele>
        <time>2020-09-06T23:08:53.530Z</time>
      </trkpt>
      <trkpt lat="48.76903" lon="-3.57803">
        <ele>50.87625</ele>
        <time>2020-09-06T23:09:17.465Z</time>
      </trkpt>
      <trkpt lat="48.76888" lon="-3.57808">
        <ele>51.179263</ele>
        <time>2020-09-06T23:09:22.548Z</time>
      </trkpt>
      <trkpt lat="48.76871" lon="-3.57813">
        <ele>51.511412</ele>
        <time>2020-09-06T23:09:26.620Z</time>
      </trkpt>
      <trkpt lat="48.76863" lon="-3.57814">
        <ele>51.680765</ele>
        <time>2020-09-06T23:09:29.076Z</time>
      </trkpt>
      <trkpt lat="48.76845" lon="-3.57816">
        <ele>52.033281</ele>
        <time>2020-09-06T23:09:34.213Z</time>
      </trkpt>
      <trkpt lat="48.7684" lon="-3.57815">
        <ele>52.124811</ele>
        <time>2020-09-06T23:09:35.230Z</time>
      </trkpt>
      <trkpt lat="48.76818" lon="-3.57809">
        <ele>52.564789</ele>
        <time>2020-09-06T23:09:41.752Z</time>
      </trkpt>
      <trkpt lat="48.76791" lon="-3.57797">
        <ele>53.130997</ele>
        <time>2020-09-06T23:09:49.209Z</time>
      </trkpt>
      <trkpt lat="48.76772" lon="-3.57785">
        <ele>53.534442</ele>
        <time>2020-09-06T23:09:54.686Z</time>
      </trkpt>
      <trkpt lat="48.76727" lon="-3.57737">
        <ele>54.727595</ele>
        <time>2020-09-06T23:10:10.952Z</time>
      </trkpt>
      <trkpt lat="48.76663" lon="-3.57621">
        <ele>57.362858</ele>
        <time>2020-09-06T23:10:44.069Z</time>
      </trkpt>
      <trkpt lat="48.76637" lon="-3.5759">
        <ele>58.240401</ele>
        <time>2020-09-06T23:10:55.532Z</time>
      </trkpt>
      <trkpt lat="48.7662" lon="-3.57577">
        <ele>58.757856</ele>
        <time>2020-09-06T23:11:01.998Z</time>
      </trkpt>
      <trkpt lat="48.7661" lon="-3.5757">
        <ele>59.037999</ele>
        <time>2020-09-06T23:11:05.802Z</time>
      </trkpt>
      <trkpt lat="48.76574" lon="-3.57557">
        <ele>59.694618</ele>
        <time>2020-09-06T23:11:18.126Z</time>
      </trkpt>
      <trkpt lat="48.76399" lon="-3.57554">
        <ele>61.662551</ele>
        <time>2020-09-06T23:12:05.011Z</time>
      </trkpt>
      <trkpt lat="48.76353" lon="-3.57543">
        <ele>60.877979</ele>
        <time>2020-09-06T23:12:13.425Z</time>
      </trkpt>
      <trkpt lat="48.76327" lon="-3.57537">
        <ele>60.420257</ele>
        <time>2020-09-06T23:12:17.749Z</time>
      </trkpt>
      <trkpt lat="48.76226" lon="-3.57484">
        <ele>56.709496</ele>
        <time>2020-09-06T23:12:32.703Z</time>
      </trkpt>
      <trkpt lat="48.76174" lon="-3.57453">
        <ele>52.469383</ele>
        <time>2020-09-06T23:12:39.713Z</time>
      </trkpt>
      <trkpt lat="48.76147" lon="-3.57431">
        <ele>50.196325</ele>
        <time>2020-09-06T23:12:43.389Z</time>
      </trkpt>
      <trkpt lat="48.76118" lon="-3.57391">
        <ele>47.213106</ele>
        <time>2020-09-06T23:12:48.182Z</time>
      </trkpt>
      <trkpt lat="48.76105" lon="-3.57368">
        <ele>45.709725</ele>
        <time>2020-09-06T23:12:50.552Z</time>
      </trkpt>
      <trkpt lat="48.76091" lon="-3.5734">
        <ele>43.953352</ele>
        <time>2020-09-06T23:12:53.262Z</time>
      </trkpt>
      <trkpt lat="48.76083" lon="-3.57314">
        <ele>42.461618</ele>
        <time>2020-09-06T23:12:55.589Z</time>
      </trkpt>
      <trkpt lat="48.76072" lon="-3.57266">
        <ele>39.847721</ele>
        <time>2020-09-06T23:12:59.686Z</time>
      </trkpt>
      <trkpt lat="48.76042" lon="-3.57129">
        <ele>32.452957</ele>
        <time>2020-09-06T23:13:11.581Z</time>
      </trkpt>
      <trkpt lat="48.76039" lon="-3.57116">
        <ele>31.722239</ele>
        <time>2020-09-06T23:13:12.813Z</time>
      </trkpt>
      <trkpt lat="48.76023" lon="-3.57013">
        <ele>29.162192</ele>
        <time>2020-09-06T23:13:22.431Z</time>
      </trkpt>
      <trkpt lat="48.76022" lon="-3.56975">
        <ele>28.278376</ele>
        <time>2020-09-06T23:13:26.066Z</time>
      </trkpt>
      <trkpt lat="48.76023" lon="-3.56962">
        <ele>27.96037</ele>
        <time>2020-09-06T23:13:27.262Z</time>
      </trkpt>
      <trkpt lat="48.7604" lon="-3.56884">
        <ele>26.037243</ele>
        <time>2020-09-06T23:13:35.183Z</time>
      </trkpt>
      <trkpt lat="48.76068" lon="-3.56826">
        <ele>25.093404</ele>
        <time>2020-09-06T23:13:42.592Z</time>
      </trkpt>
      <trkpt lat="48.76109" lon="-3.56753">
        <ele>24.878388</ele>
        <time>2020-09-06T23:13:53.443Z</time>
      </trkpt>
      <trkpt lat="48.76124" lon="-3.56726">
        <ele>24.798143</ele>
        <time>2020-09-06T23:13:57.889Z</time>
      </trkpt>
      <trkpt lat="48.76134" lon="-3.56705">
        <ele>24.741816</ele>
        <time>2020-09-06T23:14:04.066Z</time>
      </trkpt>
      <trkpt lat="48.76141" lon="-3.56677">
        <ele>24.675644</ele>
        <time>2020-09-06T23:14:08.782Z</time>
      </trkpt>
      <trkpt lat="48.76141" lon="-3.56676">
        <ele>24.673104</ele>
        <time>2020-09-06T23:14:09.542Z</time>
      </trkpt>
      <trkpt lat="48.76146" lon="-3.56652">
        <ele>24.617902</ele>
        <time>2020-09-06T23:14:13.686Z</time>
      </trkpt>
      <trkpt lat="48.76151" lon="-3.56609">
        <ele>24.544269</ele>
        <time>2020-09-06T23:14:19.771Z</time>
      </trkpt>
      <trkpt lat="48.76157" lon="-3.56591">
        <ele>24.524746</ele>
        <time>2020-09-06T23:14:22.157Z</time>
      </trkpt>
      <trkpt lat="48.76168" lon="-3.56579">
        <ele>24.505883</ele>
        <time>2020-09-06T23:14:24.448Z</time>
      </trkpt>
      <trkpt lat="48.7621" lon="-3.56564">
        <ele>24.444685</ele>
        <time>2020-09-06T23:14:30.876Z</time>
      </trkpt>
      <trkpt lat="48.76212" lon="-3.56563">
        <ele>24.442013</ele>
        <time>2020-09-06T23:14:32.681Z</time>
      </trkpt>
      <trkpt lat="48.76235" lon="-3.56553">
        <ele>24.407462</ele>
        <time>2020-09-06T23:14:36.694Z</time>
      </trkpt>
      <trkpt lat="48.76197" lon="-3.56541">
        <ele>24.352357</ele>
        <time>2020-09-06T23:14:45.638Z</time>
      </trkpt>
      <trkpt lat="48.76162" lon="-3.56535">
        <ele>24.35942</ele>
        <time>2020-09-06T23:14:53.852Z</time>
      </trkpt>
      <trkpt lat="48.76158" lon="-3.56534">
        <ele>24.442308</ele>
        <time>2020-09-06T23:14:54.557Z</time>
      </trkpt>
      <trkpt lat="48.76137" lon="-3.56529">
        <ele>24.83327</ele>
        <time>2020-09-06T23:15:00.967Z</time>
      </trkpt>
      <trkpt lat="48.76123" lon="-3.56526">
        <ele>25.093856</ele>
        <time>2020-09-06T23:15:03.571Z</time>
      </trkpt>
      <trkpt lat="48.76123" lon="-3.56514">
        <ele>25.243059</ele>
        <time>2020-09-06T23:15:07.331Z</time>
      </trkpt>
      <trkpt lat="48.76118" lon="-3.5648">
        <ele>25.670973</ele>
        <time>2020-09-06T23:15:11.565Z</time>
      </trkpt>
      <trkpt lat="48.76117" lon="-3.56471">
        <ele>25.794611</ele>
        <time>2020-09-06T23:15:12.964Z</time>
      </trkpt>
      <trkpt lat="48.76101" lon="-3.56387">
        <ele>26.864807</ele>
        <time>2020-09-06T23:15:28.414Z</time>
      </trkpt>
      <trkpt lat="48.76099" lon="-3.56281">
        <ele>27.669985</ele>
        <time>2020-09-06T23:15:57.912Z</time>
      </trkpt>
      <trkpt lat="48.76097" lon="-3.56274">
        <ele>27.669985</ele>
        <time>2020-09-06T23:16:01.080Z</time>
      </trkpt>
      <trkpt lat="48.76097" lon="-3.56274">
        <ele>27.669985</ele>
        <time>2020-09-06T23:16:01.236Z</time>
      </trkpt>
      <trkpt lat="48.76097" lon="-3.56274">
        <ele>27.669985</ele>
        <time>2020-09-06T23:16:01.253Z</time>
      </trkpt>
      <trkpt lat="48.76095" lon="-3.56275">
        <ele>27.669985</ele>
        <time>2020-09-06T23:16:02.237Z</time>
      </trkpt>
      <trkpt lat="48.76085" lon="-3.56228">
        <ele>27.669985</ele>
        <time>2020-09-06T23:16:16.225Z</time>
      </trkpt>
      <trkpt lat="48.76097" lon="-3.5625">
        <ele>27.669985</ele>
        <time>2020-09-06T23:16:24.291Z</time>
      </trkpt>
      <trkpt lat="48.76125" lon="-3.56273">
        <ele>27.669985</ele>
        <time>2020-09-06T23:16:37.926Z</time>
      </trkpt>
    </trkseg>
  </trk>
</gpx>